[[{"header":{"parameterUnit":"m.s-1","parameterCategory":1,"la1":30.6,"la2":28.766,"lo1":-90.7593,"lo2":-88.6598,"dy":0.0162,"dx":0.0183,"nx":116,"ny":114,"refTime":"2024-06-01T06:00:00:Z","depth":0,"parameterNumber":2,"parameterNumberName":"U-component_of_WINDS"},"data":[0.0,0.0,0.0,0.0,0.0,0.0,0.0,0.0,0.0,0.0,0.0,0.0,0.0,0.0,0.0,0.0,0.0,0.0,0.0,0.0,0.0,0.0,0.0,0.0,0.0,0.0,0.0,0.0,0.0,0.0,0.0,0.0,0.0,0.0,0.0,0.0,0.0,0.0,0.0,0.0,0.0,0.0,0.0,0.0,0.0,0.0,0.0,0.0,0.0,0.0,0.0,0.0,0.0,0.0,0.0,0.0,0.0,0.0,0.0,0.0,0.0,0.0,0.0,0.0,0.0,0.0,0.0,0.0,0.0,0.0,0.0,0.0,0.0,0.0,0.0,0.0,0.0,0.0,0.0,0.0,0.0,0.0,0.0,0.0,0.0,0.0,0.0,0.0,0.0,0.0,0.0,0.0,0.0,0.0,0.0,0.0,0.0,0.0,0.0,0.0,0.0,0.0,0.0,0.0,0.0,0.0,0.0,0.0,0.0,0.0,0.0,0.0,0.0,0.0,0.0,0.0,0.0,0.0,0.0,0.0,0.0,0.0,0.0,0.0,0.0,0.0,0.0,0.0,0.0,0.0,0.0,0.0,0.0,0.0,0.0,0.0,0.0,0.0,0.0,0.0,0.0,0.0,0.0,0.0,0.0,0.0,0.0,0.0,0.0,0.0,0.0,0.0,0.0,0.0,0.0,0.0,0.0,0.0,0.0,0.0,0.0,0.0,0.0,0.0,0.0,0.0,0.0,0.0,0.0,0.0,0.0,0.0,0.0,0.0,0.0,0.0,0.0,0.0,0.0,0.0,0.0,0.0,0.0,0.0,0.0,0.0,0.0,0.0,0.0,0.0,0.0,0.0,0.0,0.0,0.0,0.0,0.0,0.0,0.0,0.0,0.0,0.0,0.0,0.0,0.0,0.0,0.0,0.0,0.0,0.0,0.0,0.0,0.0,0.0,0.0,0.0,0.0,0.0,0.0,0.0,0.0,0.0,0.0,0.0,0.0,0.0,0.0,0.0,0.0,0.0,0.0,0.0,0.0,0.0,0.0,0.0,0.0,0.0,0.0,0.0,0.0,0.0,0.0,0.0,0.0,0.0,0.0,0.0,0.0,0.0,0.0,0.0,0.0,0.0,0.0,0.0,0.0,0.0,0.0,0.0,0.0,0.0,0.0,0.0,0.0,0.0,0.0,0.0,0.0,0.0,0.0,0.0,0.0,0.0,0.0,0.0,0.0,0.0,0.0,0.0,0.0,0.0,0.0,0.0,0.0,0.0,0.0,0.0,0.0,0.0,0.0,0.0,0.0,0.0,0.0,0.0,0.0,0.0,0.0,0.0,0.0,0.0,0.0,0.0,0.0,0.0,0.0,0.0,0.0,0.0,0.0,0.0,0.0,0.0,0.0,0.0,0.0,0.0,0.0,0.0,0.0,0.0,0.0,0.0,0.0,0.0,0.0,0.0,0.0,0.0,0.0,0.0,0.0,0.0,0.0,0.0,0.0,0.0,0.0,0.0,0.0,0.0,0.0,0.0,0.0,0.0,0.0,0.0,0.0,0.0,0.0,0.0,0.0,0.0,0.0,0.0,0.0,0.0,0.0,0.0,0.0,0.0,0.0,0.0,0.0,0.0,0.0,0.0,0.0,0.0,0.0,0.0,0.0,0.0,0.0,0.0,0.0,0.0,0.0,0.0,0.0,0.0,0.0,0.0,0.0,0.0,0.0,0.0,0.0,0.0,0.0,0.0,0.0,0.0,0.0,0.0,0.0,0.0,0.0,0.0,0.0,0.0,0.0,0.0,0.0,0.0,0.0,0.0,0.0,0.0,0.0,0.0,0.0,0.0,0.0,0.0,0.0,0.0,0.0,0.0,0.0,0.0,0.0,0.0,0.0,0.0,0.0,0.0,0.0,0.0,0.0,0.0,0.0,0.0,0.0,0.0,0.0,0.0,0.0,0.0,0.0,0.0,0.0,0.0,0.0,0.0,0.0,0.0,0.0,0.0,0.0,0.0,0.0,0.0,0.0,0.0,0.0,0.0,0.0,0.0,0.0,0.0,0.0,0.0,0.0,0.0,0.0,0.0,0.0,0.0,0.0,0.0,0.0,0.0,0.0,0.0,0.0,0.0,0.0,0.0,0.0,0.0,0.0,0.0,0.0,0.0,0.0,0.0,0.0,0.0,0.0,0.0,0.0,0.0,0.0,0.0,0.0,0.0,0.0,0.0,0.0,0.0,0.0,0.0,0.0,0.0,0.0,0.0,0.0,0.0,0.0,0.0,0.0,0.0,0.0,0.0,0.0,0.0,0.0,0.0,0.0,0.0,0.0,0.0,0.0,0.0,0.0,0.0,0.0,0.0,0.0,0.0,0.0,0.0,0.0,0.0,0.0,0.0,0.0,0.0,0.0,0.0,0.0,0.0,0.0,0.0,0.0,0.0,0.0,0.0,0.0,0.0,0.0,0.0,0.0,0.0,0.0,0.0,0.0,0.0,0.0,0.0,0.0,0.0,0.0,0.0,0.0,0.0,0.0,0.0,0.0,0.0,0.0,0.0,0.0,0.0,0.0,0.0,0.0,0.0,0.0,0.0,0.0,0.0,0.0,0.0,0.0,0.0,0.0,0.0,0.0,0.0,0.0,0.0,0.0,0.0,0.0,0.0,0.0,0.0,0.0,0.0,0.0,0.0,0.0,0.0,0.0,0.0,0.0,0.0,0.0,0.0,0.0,0.0,0.0,0.0,0.0,0.0,0.0,0.0,0.0,0.0,0.0,0.0,0.0,0.0,0.0,0.0,0.0,0.0,0.0,0.0,0.0,0.0,0.0,0.0,0.0,0.0,0.0,0.0,0.0,0.0,0.0,0.0,0.0,0.0,0.0,0.0,0.0,0.0,0.0,0.0,0.0,0.0,0.0,0.0,0.0,0.0,0.0,0.0,0.0,0.0,0.0,0.0,0.0,0.0,0.0,0.0,0.0,0.0,0.0,0.0,0.0,0.0,0.0,0.0,0.0,0.0,0.0,0.0,0.0,0.0,0.0,0.0,0.0,0.0,0.0,0.0,0.0,0.0,0.0,0.0,0.0,0.0,0.0,0.0,0.0,0.0,0.0,0.0,0.0,0.0,0.0,0.0,0.0,0.0,0.0,0.0,0.0,0.0,0.0,0.0,0.0,0.0,0.0,0.0,0.0,0.0,0.0,0.0,0.0,0.0,0.0,0.0,0.0,0.0,0.0,0.0,0.0,0.0,0.0,0.0,0.0,0.0,0.0,0.0,0.0,0.0,0.0,0.0,0.0,0.0,0.0,0.0,0.0,0.0,0.0,0.0,0.0,0.0,0.0,0.0,0.0,0.0,0.0,0.0,0.0,0.0,0.0,0.0,0.0,0.0,0.0,0.0,0.0,0.0,0.0,0.0,0.0,0.0,0.0,0.0,0.0,0.0,0.0,0.0,0.0,0.0,0.0,0.0,0.0,0.0,0.0,0.0,0.0,0.0,0.0,0.0,0.0,0.0,0.0,0.0,0.0,0.0,0.0,0.0,0.0,0.0,0.0,0.0,0.0,0.0,0.0,0.0,0.0,0.0,0.0,0.0,0.0,0.0,0.0,0.0,0.0,0.0,0.0,0.0,0.0,0.0,0.0,0.0,0.0,0.0,0.0,0.0,0.0,0.0,0.0,0.0,0.0,0.0,0.0,0.0,0.0,0.0,0.0,0.0,0.0,0.0,0.0,0.0,0.0,0.0,0.0,0.0,0.0,0.0,0.0,0.0,0.0,0.0,0.0,0.0,0.0,0.0,0.0,0.0,0.0,0.0,0.0,0.0,0.0,0.0,0.0,0.0,0.0,0.0,0.0,0.0,0.0,0.0,0.0,0.0,0.0,0.0,0.0,0.0,0.0,0.0,0.0,0.0,0.0,0.0,0.0,0.0,0.0,0.0,0.0,0.0,0.0,0.0,0.0,0.0,0.0,0.0,0.0,0.0,0.0,0.0,0.0,0.0,0.0,0.0,0.0,0.0,0.0,0.0,0.0,0.0,0.0,0.0,0.0,0.0,0.0,0.0,0.0,0.0,0.0,0.0,0.0,0.0,0.0,0.0,0.0,0.0,0.0,0.0,0.0,0.0,0.0,0.0,0.0,0.0,0.0,0.0,0.0,0.0,0.0,0.0,0.0,0.0,0.0,0.0,0.0,0.0,0.0,0.0,0.0,0.0,0.0,0.0,0.0,0.0,0.0,0.0,0.0,0.0,0.0,0.0,0.0,0.0,0.0,0.0,0.0,0.0,0.0,0.0,0.0,0.0,0.0,0.0,0.0,0.0,0.0,0.0,0.0,0.0,0.0,0.0,0.0,0.0,0.0,0.0,0.0,0.0,0.0,0.0,0.0,0.0,0.0,0.0,0.0,0.0,0.0,0.0,0.0,0.0,0.0,0.0,0.0,0.0,0.0,0.0,0.0,0.0,0.0,0.0,0.0,0.0,0.0,0.0,0.0,0.0,0.0,0.0,0.0,0.0,0.0,0.0,0.0,0.0,0.0,0.0,0.0,0.0,0.0,0.0,0.0,0.0,0.0,0.0,0.0,0.0,0.0,0.0,0.0,0.0,0.0,0.0,0.0,0.0,0.0,0.0,0.0,0.0,0.0,0.0,0.0,0.0,0.0,0.0,0.0,0.0,0.0,0.0,0.0,0.0,0.0,0.0,0.0,0.0,0.0,0.0,0.0,0.0,0.0,0.0,0.0,0.0,0.0,0.0,0.0,0.0,0.0,0.0,0.0,0.0,0.0,0.0,0.0,0.0,0.0,0.0,0.0,0.0,0.0,0.0,0.0,0.0,0.0,0.0,0.0,0.0,0.0,0.0,0.0,0.0,0.0,0.0,0.0,0.0,0.0,0.0,0.0,0.0,0.0,0.0,0.0,0.0,0.0,0.0,0.0,0.0,0.0,0.0,0.0,0.0,0.0,0.0,0.0,0.0,0.0,0.0,0.0,0.0,0.0,0.0,0.0,0.0,0.0,0.0,0.0,0.0,0.0,0.0,0.0,0.0,0.0,0.0,0.0,0.0,0.0,0.0,0.0,0.0,0.0,0.0,0.0,0.0,0.0,0.0,0.0,0.0,0.0,0.0,0.0,0.0,0.0,0.0,0.0,0.0,0.0,0.0,0.0,0.0,0.0,0.0,0.0,0.0,0.0,0.0,0.0,0.0,0.0,0.0,0.0,0.0,0.0,0.0,0.0,0.0,0.0,0.0,0.0,0.0,0.0,0.0,0.0,0.0,0.0,0.0,0.0,0.0,0.0,0.0,0.0,0.0,0.0,0.0,0.0,0.0,0.0,0.0,0.0,0.0,0.0,0.0,0.0,0.0,0.0,0.0,0.0,0.0,0.0,0.0,0.0,0.0,0.0,0.0,0.0,0.0,0.0,0.0,0.0,0.0,0.0,0.0,0.0,0.0,0.0,0.0,0.0,0.0,0.0,0.0,0.0,0.0,0.0,0.0,0.0,0.0,0.0,0.0,0.0,0.0,0.0,0.0,0.0,0.0,0.0,0.0,0.0,0.0,0.0,0.0,0.0,0.0,0.0,0.0,0.0,0.0,0.0,0.0,0.0,0.0,0.0,0.0,0.0,0.0,0.0,0.0,0.0,0.0,0.0,0.0,0.0,0.0,0.0,0.0,0.0,0.0,0.0,0.0,0.0,0.0,0.0,0.0,0.0,0.0,0.0,0.0,0.0,0.0,0.0,0.0,0.0,0.0,0.0,0.0,0.0,0.0,0.0,0.0,0.0,0.0,0.0,0.0,0.0,0.0,0.0,0.0,0.0,0.0,0.0,0.0,0.0,0.0,0.0,0.0,0.0,0.0,0.0,0.0,0.0,0.0,0.0,0.0,0.0,0.0,0.0,0.0,0.0,0.0,0.0,0.0,0.0,0.0,0.0,0.0,0.0,0.0,0.0,0.0,0.0,0.0,0.0,0.0,0.0,0.0,0.0,0.0,0.0,0.0,0.0,0.0,0.0,0.0,0.0,0.0,0.0,0.0,0.0,0.0,0.0,0.0,0.0,0.0,0.0,0.0,0.0,0.0,0.0,0.0,0.0,0.0,0.0,0.0,0.0,0.0,0.0,0.0,-3.0496,0.0,0.0,0.0,0.0,0.0,0.0,0.0,0.0,0.0,0.0,0.0,0.0,0.0,0.0,0.0,0.0,0.0,0.0,0.0,0.0,0.0,0.0,0.0,0.0,-1.6698,-1.705,-1.793,-1.9151,-1.9336,-1.8037,0.0,0.0,0.0,0.0,0.0,-1.7895,-1.7527,-1.769,-1.8477,-1.8056,-1.8281,-1.9064,-1.7777,-1.699,-1.6643,0.0,0.0,0.0,0.0,0.0,0.0,0.0,0.0,0.0,0.0,0.0,0.0,0.0,0.0,0.0,0.0,0.0,0.0,0.0,0.0,0.0,0.0,0.0,0.0,0.0,0.0,0.0,0.0,0.0,0.0,0.0,0.0,0.0,0.0,0.0,0.0,0.0,0.0,0.0,0.0,0.0,0.0,0.0,0.0,0.0,0.0,0.0,0.0,0.0,0.0,0.0,0.0,0.0,0.0,0.0,0.0,0.0,0.0,0.0,0.0,0.0,0.0,0.0,0.0,0.0,0.0,0.0,0.0,0.0,0.0,0.0,-3.0482,0.0,0.0,0.0,0.0,0.0,0.0,0.0,0.0,0.0,0.0,0.0,0.0,0.0,0.0,0.0,0.0,0.0,0.0,0.0,0.0,0.0,-1.5839,-1.701,-1.7138,-1.7604,-1.8766,-2.0137,-2.0322,-1.8885,-2.0071,0.0,0.0,0.0,-1.8981,-1.9393,-1.8769,-1.9158,-2.0621,-2.0104,-2.0174,-2.0828,-2.023,-1.9501,-1.8633,-1.834,0.0,0.0,0.0,0.0,0.0,0.0,0.0,0.0,0.0,0.0,0.0,0.0,0.0,0.0,0.0,0.0,0.0,0.0,0.0,0.0,0.0,0.0,0.0,0.0,0.0,0.0,0.0,0.0,0.0,0.0,0.0,0.0,0.0,0.0,0.0,0.0,0.0,0.0,0.0,0.0,0.0,0.0,0.0,0.0,0.0,0.0,0.0,0.0,0.0,0.0,0.0,0.0,0.0,0.0,0.0,0.0,0.0,0.0,0.0,0.0,0.0,0.0,0.0,-3.1718,-3.1679,-3.0885,-3.2275,-3.2468,-3.166,-3.0942,-3.0654,-3.0704,0.0,0.0,0.0,0.0,0.0,0.0,0.0,0.0,0.0,0.0,0.0,0.0,0.0,0.0,0.0,0.0,0.0,0.0,0.0,0.0,-1.6297,-1.8614,-1.8863,-1.9815,-2.2133,-2.2543,-2.2568,-2.2349,-2.2537,0.0,0.0,-2.1512,-2.1677,-2.026,-2.0185,-2.0614,-2.1532,-2.212,-2.2467,-2.2587,-2.3164,-2.263,-2.1157,-1.9698,-1.8651,-1.8042,0.0,0.0,0.0,0.0,0.0,0.0,0.0,0.0,0.0,0.0,0.0,0.0,0.0,0.0,0.0,0.0,0.0,0.0,0.0,0.0,0.0,0.0,0.0,0.0,0.0,0.0,0.0,0.0,0.0,0.0,0.0,0.0,0.0,0.0,0.0,0.0,0.0,0.0,0.0,0.0,0.0,-2.6074,-2.6922,0.0,0.0,0.0,0.0,0.0,0.0,0.0,0.0,0.0,0.0,0.0,0.0,0.0,0.0,-3.1443,-3.202,-3.2393,-3.2583,-3.3449,-3.341,-3.2583,-3.2795,-3.2468,-3.1698,-3.1583,0.0,-3.1549,-3.1549,0.0,0.0,0.0,0.0,0.0,0.0,0.0,0.0,0.0,0.0,0.0,0.0,0.0,0.0,0.0,0.0,0.0,0.0,0.0,0.0,0.0,-1.9249,-2.0456,-2.2022,-2.2579,-2.2845,-2.2891,-2.2433,-2.1836,-2.1113,-2.1332,-2.1367,-2.1143,-2.1056,-2.1648,-2.2933,-2.3812,-2.4257,-2.4246,-2.3653,-2.3002,-2.2333,-2.1612,-2.0859,-2.0126,-1.9952,0.0,0.0,0.0,0.0,0.0,0.0,0.0,0.0,0.0,0.0,0.0,0.0,0.0,0.0,0.0,0.0,0.0,0.0,0.0,0.0,0.0,0.0,0.0,0.0,0.0,0.0,0.0,0.0,0.0,0.0,0.0,0.0,0.0,0.0,0.0,0.0,0.0,0.0,0.0,-2.5584,-2.6798,-2.7148,-2.7379,-2.7289,0.0,0.0,0.0,0.0,0.0,0.0,0.0,0.0,0.0,-3.1374,-3.1713,-3.1912,-3.1995,-3.2279,-3.2485,-3.2565,-3.3443,-3.3405,-3.2603,-3.3677,-3.3473,-3.2266,-3.3352,-3.3269,-3.2333,-3.1891,-3.1192,-3.0404,0.0,0.0,0.0,0.0,0.0,-2.9785,0.0,0.0,0.0,0.0,0.0,0.0,0.0,0.0,0.0,0.0,0.0,0.0,-1.7849,-1.9084,-2.035,-2.159,-2.2254,-2.2633,-2.2727,-2.232,-2.2017,-2.1879,-2.1478,-2.1461,-2.1901,-2.1976,-2.2628,-2.3871,-2.4625,-2.4981,-2.4962,-2.3485,-2.2711,-2.2554,-2.3014,-2.2662,-2.1726,-2.1252,-2.0844,-2.0298,0.0,0.0,0.0,0.0,0.0,0.0,0.0,0.0,0.0,0.0,0.0,0.0,0.0,0.0,0.0,0.0,0.0,0.0,0.0,0.0,0.0,0.0,0.0,0.0,0.0,0.0,0.0,0.0,0.0,0.0,0.0,0.0,0.0,0.0,0.0,0.0,0.0,-2.6981,-2.7689,-2.7689,-2.834,-2.8422,0.0,0.0,0.0,0.0,0.0,0.0,-3.0525,-3.1109,-3.1708,-3.2351,-3.2731,-3.2835,-3.2608,-3.2997,-3.3147,-3.3047,-3.3692,-3.37,-3.3162,-3.4388,-3.424,-3.3092,-3.4536,-3.4295,-3.2852,-3.2256,-3.1506,-3.0712,-3.0481,-3.0404,-3.0404,-3.0404,-3.0012,-2.9603,0.0,0.0,0.0,0.0,0.0,0.0,0.0,0.0,0.0,0.0,0.0,-1.5864,-1.8207,-1.8538,-1.959,-2.2058,-2.2298,-2.2379,-2.2511,-2.3191,-2.3307,-2.2676,-2.34,-2.34,-2.2487,-2.3258,-2.3714,-2.3804,-2.4039,-2.4168,-2.4149,-2.322,-2.2355,-2.1643,-2.3306,-2.3126,-2.1671,-2.2503,-2.1911,-2.0324,-1.9505,0.0,0.0,0.0,0.0,0.0,0.0,0.0,0.0,0.0,0.0,0.0,0.0,0.0,0.0,0.0,0.0,0.0,0.0,0.0,0.0,0.0,0.0,0.0,0.0,0.0,0.0,0.0,0.0,0.0,0.0,0.0,0.0,0.0,0.0,0.0,0.0,0.0,0.0,-2.9287,-2.9334,0.0,0.0,0.0,0.0,-2.9648,-3.0897,-3.1771,-3.2072,-3.1888,-3.1845,-3.2016,-3.3373,-3.3904,-3.3449,-3.4881,-3.5424,-3.5059,-3.5098,-3.5197,-3.5306,-3.457,-3.4192,-3.4115,-3.4218,-3.3737,-3.2891,-3.2852,-3.2352,-3.1545,-3.0712,-3.0404,-3.0404,-3.0404,-3.0365,-3.035,0.0,0.0,0.0,0.0,0.0,-1.5369,-1.5253,-1.5138,-1.505,-1.4973,-1.5677,-1.6498,-1.7323,-1.8724,-1.9937,-2.0814,-2.1046,-2.1409,-2.2009,-2.1436,-2.1211,-2.1595,-2.136,-2.1549,-2.2221,-2.2123,-2.2577,-2.3611,-2.3286,-2.3136,-2.3117,-2.2329,-2.1803,-2.1537,-2.2156,-2.2068,-2.1574,-2.3079,-2.305,-2.1937,-2.116,-1.9795,0.0,0.0,0.0,0.0,0.0,0.0,0.0,0.0,0.0,0.0,0.0,0.0,0.0,0.0,0.0,0.0,0.0,0.0,0.0,0.0,0.0,0.0,0.0,0.0,0.0,0.0,0.0,0.0,0.0,0.0,0.0,0.0,0.0,0.0,0.0,0.0,0.0,-3.0158,-3.1533,0.0,-3.0604,-3.1312,-3.1669,-3.1239,-3.1661,-3.2224,-3.2925,-3.3283,-3.3735,-3.43,-3.5869,-3.6093,-3.4808,-3.5844,-3.5766,-3.4548,-3.4732,-3.486,-3.4917,-3.4877,-3.4531,-3.4047,-3.4735,-3.4545,-3.368,-3.3122,-3.2429,-3.1679,-3.1371,-3.0885,-3.0404,-3.0404,-3.0404,-3.0402,0.0,0.0,0.0,0.0,-1.5383,-1.5332,-1.5211,-1.5057,-1.4886,-1.4724,-1.5566,-1.6255,-1.6417,-1.801,-1.9174,-1.9371,-1.9659,-2.0077,-2.0709,-2.0094,-1.9996,-2.0674,-2.0213,-2.0464,-2.1559,-2.1221,-2.17,-2.307,-2.2436,-2.2146,-2.2181,-2.1387,-2.1035,-2.1067,-2.137,-2.1454,-2.1488,-2.2997,-2.3317,-2.2766,-2.1985,-2.0801,-1.9543,0.0,0.0,0.0,0.0,0.0,0.0,0.0,0.0,0.0,0.0,0.0,0.0,0.0,0.0,0.0,0.0,0.0,0.0,0.0,0.0,0.0,0.0,0.0,0.0,0.0,0.0,0.0,0.0,0.0,0.0,0.0,0.0,0.0,0.0,0.0,-3.0902,-3.0623,-3.25,-3.338,-3.2314,-3.3015,-3.3344,-3.2846,-3.3299,-3.3881,-3.4547,-3.5219,-3.5938,-3.6758,-3.7858,-3.7614,-3.5919,-3.6439,-3.5901,-3.4328,-3.4575,-3.474,-3.4802,-3.5141,-3.4983,-3.4481,-3.5189,-3.5173,-3.4584,-3.4026,-3.3295,-3.2468,-3.1602,-3.1096,-3.0808,-3.0519,-3.0404,-3.0402,0.0,0.0,0.0,-1.5398,-1.5331,-1.5265,-1.5192,-1.4958,-1.4676,-1.4366,-1.4606,-1.5046,-1.566,-1.6407,-1.7157,-1.7876,-1.823,-1.8483,-1.8636,-1.9379,-1.9893,-2.0045,-2.023,-2.0411,-2.0575,-2.0769,-2.1262,-2.2161,-2.1475,-2.1222,-2.134,-2.048,-2.0121,-2.0222,-2.1073,-2.1426,-2.1407,-2.2259,-2.2623,-2.2607,-2.1945,-2.1143,-2.0437,0.0,0.0,0.0,0.0,0.0,0.0,0.0,0.0,0.0,0.0,0.0,0.0,0.0,0.0,0.0,0.0,0.0,0.0,0.0,0.0,0.0,0.0,0.0,0.0,0.0,0.0,0.0,0.0,0.0,0.0,0.0,0.0,0.0,-2.817,-3.027,-3.1515,-3.0761,-3.208,-3.3064,-3.3064,-3.3788,-3.4332,-3.4479,-3.5864,-3.6769,-3.6932,-3.7582,-3.8302,-3.912,-3.9194,-3.8432,-3.6792,-3.6811,-3.6099,-3.4677,-3.4839,-3.5039,-3.5212,-3.5403,-3.5493,-3.5493,-3.55,-3.55,-3.55,-3.5462,-3.4988,-3.3994,-3.1481,-3.1,-3.1602,-3.075,-3.0423,-3.0402,0.0,0.0,-1.5358,-1.533,-1.5269,-1.5181,-1.5074,-1.4703,-1.4517,-1.4702,-1.4986,-1.5375,-1.5923,-1.6133,-1.6336,-1.6541,-1.6768,-1.6996,-1.723,-1.8044,-1.867,-1.9002,-1.9102,-1.9534,-2.0289,-1.9884,-2.0094,-2.0981,-2.0387,-2.0138,-2.0162,-2.0114,-2.0074,-2.0065,-2.0417,-2.0517,-2.0466,-2.0714,-2.1173,-2.1852,-2.2908,-2.248,-2.1325,0.0,0.0,0.0,0.0,0.0,0.0,0.0,0.0,0.0,0.0,0.0,0.0,0.0,0.0,0.0,0.0,0.0,0.0,0.0,0.0,0.0,0.0,0.0,0.0,0.0,0.0,0.0,0.0,0.0,0.0,0.0,0.0,-2.9248,-2.9824,-3.0995,-3.1885,-3.2114,-3.3704,-3.4742,-3.4534,-3.5497,-3.618,-3.6216,-3.6609,-3.7131,-3.7735,-3.8407,-3.9157,-4.0011,-4.1163,-4.0698,-3.8451,-3.9078,-3.8287,-3.6112,-3.5743,-3.5585,-3.5639,-3.5382,-3.5273,-3.5281,-3.5432,-3.55,-3.5442,-3.4814,-3.4795,-3.5007,-3.368,-3.2564,-3.1679,-3.1429,-3.0942,-3.041,0.0,-1.5305,-1.5343,-1.5347,-1.5245,-1.5091,-1.4896,-1.4555,-1.4379,-1.4626,-1.4603,-1.4772,-1.5259,-1.5288,-1.5299,-1.5299,-1.5803,-1.6083,-1.5994,-1.6851,-1.7603,-1.8153,-1.843,-1.8872,-1.9469,-1.9278,-1.9427,-1.9965,-1.9729,-1.9636,-1.965,-1.9881,-1.9979,-2.001,-2.0103,-2.0145,-2.0093,-2.0093,-2.0384,-2.0986,-2.2355,-2.2527,-2.21,-2.3495,-2.4014,-2.3995,-2.3855,-2.3562,-2.3399,-2.4211,0.0,0.0,0.0,0.0,0.0,0.0,0.0,0.0,0.0,0.0,0.0,0.0,0.0,0.0,0.0,0.0,0.0,0.0,0.0,0.0,0.0,0.0,0.0,0.0,-2.9542,-3.0624,-3.1266,-3.1831,-3.2305,-3.2674,-3.3955,-3.5034,-3.5597,-3.6369,-3.6951,-3.7286,-3.7621,-3.8199,-3.9019,-3.9737,-4.068,-4.1869,-4.2482,-4.1776,-3.9658,-3.977,-3.8799,-3.6699,-3.6089,-3.5792,-3.5784,-3.5306,-3.5115,0.0,-3.5324,-3.5424,-3.5462,-3.4949,-3.5045,0.0,0.0,0.0,0.0,0.0,-3.0827,-3.0404,0.0,-1.5255,-1.5322,-1.5377,-1.5228,-1.4997,-1.4733,-1.4412,-1.4214,-1.4242,-1.3801,-1.3634,-1.4053,-1.4083,-1.4065,-1.4065,-1.5047,-1.5528,-1.5205,-1.6072,-1.6887,-1.7567,-1.8078,-1.8388,-1.8473,-1.8833,-1.9074,-1.916,-1.9378,-1.9496,-1.9579,-1.9726,-1.9858,-1.9982,-2.0055,-2.0093,-2.0093,-2.0093,-2.0093,-2.017,-2.0943,-2.1746,-2.2562,-2.3422,-2.3818,-2.399,-2.4784,-2.4612,-2.4167,-2.4937,0.0,0.0,0.0,0.0,0.0,0.0,0.0,0.0,0.0,0.0,0.0,0.0,0.0,0.0,0.0,0.0,0.0,0.0,0.0,0.0,0.0,0.0,0.0,0.0,-3.0676,-3.2022,-3.2479,-3.2664,-3.2768,-3.2768,-3.3493,-3.4604,-3.62,-3.6615,-3.718,-3.8098,-3.8841,-3.9658,-4.062,0.0,0.0,0.0,0.0,-4.2017,-4.042,-3.9621,-3.8469,-3.6959,-3.6234,-3.5908,-3.5871,-3.5186,-3.4954,-3.5132,-3.5168,-3.5266,-3.5432,-3.5465,-3.5486,-3.5327,-3.3583,-3.2891,-3.2699,-3.1019,-3.0404,0.0,0.0,-1.5245,-1.5292,-1.5322,-1.515,-1.4955,-1.4737,-1.4053,-1.3642,-1.3861,-1.3202,-1.2912,-1.341,-1.2948,-1.2614,-1.2614,-1.3639,-1.486,-1.62,-1.6836,-1.7278,-1.7589,-1.785,-1.8093,-1.8323,-1.8512,-1.8735,-1.8956,-1.916,-1.9329,-1.9439,-1.9688,-1.9811,-1.9841,-2.002,-2.0093,-2.0093,-2.0093,-2.0093,-2.0112,-2.0284,-2.0862,-2.1727,-2.2543,-2.3288,-2.3913,-2.4091,-2.4492,-2.4975,-2.5134,-2.5096,-2.4939,-2.4962,-2.4512,0.0,0.0,0.0,0.0,0.0,0.0,0.0,0.0,0.0,0.0,0.0,0.0,0.0,0.0,0.0,0.0,0.0,0.0,0.0,-3.0412,-3.1579,-3.2537,-3.3273,-3.3223,-3.3103,-3.3103,-3.3953,-3.494,-3.5989,-3.6838,-3.8052,-3.9788,-4.0062,-4.0791,-4.2259,-4.2482,0.0,-4.302,-4.2872,-4.2017,-4.042,-4.0215,-3.964,-3.8618,0.0,0.0,-3.6478,-3.5233,-3.4678,-3.473,-3.4898,-3.4982,-3.5037,-3.5201,-3.5354,-3.5327,-3.3583,-3.2891,-3.2699,-3.1019,-3.0404,-3.0404,-1.5146,-1.5196,-1.5253,-1.5295,-1.5169,-1.4931,-1.4566,-1.3902,-1.3486,-1.3601,-1.2678,-1.2253,-1.2791,-1.2223,-1.1799,-1.1799,-1.2775,-1.4177,-1.6025,-1.6422,-1.6834,-1.7368,-1.7726,-1.802,-1.8232,-1.8508,-1.8725,-1.8843,-1.9125,-1.9277,-1.9364,-1.9624,-1.9751,-1.9757,-2.0005,-2.0093,-2.0093,-2.0143,-2.0134,-2.0136,-2.0607,-2.1043,-2.1483,-2.23,-2.3403,-2.4555,-2.4555,-2.4822,-2.518,-2.5075,-2.5051,-2.5025,-2.4858,-2.4525,-2.4198,0.0,0.0,0.0,0.0,0.0,0.0,0.0,0.0,0.0,0.0,0.0,0.0,0.0,0.0,-2.6517,0.0,0.0,-2.993,-3.1277,-3.2333,-3.3065,-3.3229,-3.3581,-3.38,-3.38,-3.425,-3.5033,-3.6279,-3.7457,-3.8722,-4.0096,-4.0696,-4.1534,-4.2742,-4.2797,-4.2983,-4.3392,-4.3002,-4.2222,-4.101,-4.0587,-3.9955,-3.9082,-3.7875,-3.7076,-3.6662,-3.554,-3.4884,-3.4612,-3.471,-3.4811,-3.4927,-3.5115,-3.5258,-3.5181,-3.3531,-3.2891,-3.2699,-3.1019,-3.0404,-3.0404,-1.5089,-1.5158,-1.5229,-1.528,-1.5175,-1.4925,-1.4403,-1.3805,-1.3334,-1.312,-1.2118,-1.1569,-1.1958,-1.1561,-1.1408,-1.1745,-1.2615,-1.3887,-1.5634,-1.5887,-1.6342,-1.7158,-1.7607,-1.7944,-1.82,-1.8553,-1.8752,-1.8798,-1.9113,-1.9297,-1.9305,-1.9605,-1.9726,-1.9713,-1.9976,-2.0203,-2.0379,-2.0433,-2.0533,-2.0706,-2.147,-2.1829,-2.1977,-2.2637,-2.3736,-2.4956,-2.4956,-2.504,-2.5119,-2.4942,-2.4881,-2.4832,-2.4689,-2.4634,-2.4634,-2.4594,-2.3905,0.0,0.0,0.0,0.0,0.0,0.0,0.0,0.0,0.0,-2.5662,-2.5807,-2.6423,-2.7323,-2.8507,-2.9775,-3.0957,-3.1885,-3.2949,-3.3518,-3.318,-3.3829,-3.4389,-3.4533,-3.4695,-3.5249,-3.6448,-3.788,-3.9148,-4.0151,-4.1082,-4.2017,-4.2983,-4.2872,-4.302,-4.3522,-4.289,-4.2092,-4.1126,-4.0639,-3.9955,-3.9082,-3.8284,-3.7559,-3.6891,-3.5937,-3.523,-3.4761,-3.4592,-3.4628,-3.487,-3.5063,-3.5157,-3.5073,-3.3696,-3.3141,-3.2929,-3.1077,-3.0404,-3.0404,0.0,-1.5158,-1.52,-1.5212,-1.5155,-1.4946,-1.446,-1.3636,-1.2807,-1.2061,-1.1299,-1.073,-1.0551,-1.0683,-1.1399,-1.2946,-1.369,-1.4568,-1.5811,-1.61,-1.6541,-1.7163,-1.7467,-1.7811,-1.819,-1.8423,-1.863,-1.8798,-1.9077,-1.9234,-1.9305,-1.9707,-1.9809,-1.9713,-1.9976,-2.055,-2.1331,-2.1358,-2.1833,-2.2594,-2.2697,-2.3126,-2.3726,-2.3803,-2.3932,-2.4052,-2.4052,-2.4435,-2.4929,-2.4908,-2.4811,-2.4689,-2.4483,-2.4424,-2.4389,-2.4211,-2.3908,-2.3643,-2.3787,-2.3555,-2.3262,-2.3164,-2.3506,-2.3836,0.0,0.0,-2.5529,-2.6185,-2.7148,-2.8357,-2.9972,-3.0594,-3.1215,-3.234,-3.3237,-3.3819,-3.3956,-3.406,-3.438,-3.5023,-3.5738,-3.6055,-3.5748,-3.7394,-3.9163,-4.0943,-4.1396,-4.2259,-4.3782,-4.3188,-4.25,-4.1887,-4.1776,-4.0977,-3.9398,-4.0048,-3.9955,-3.9082,-3.8284,-3.7838,-3.7708,-3.6197,-3.5467,-3.5361,-3.458,-3.4386,-3.4647,-3.486,-3.5046,-3.513,-3.4356,-3.4052,-3.3763,-3.1288,-3.0404,-3.0404,0.0,-1.5111,-1.5133,-1.5135,-1.5179,-1.5068,-1.458,-1.3792,-1.2993,-1.2291,-1.1578,-1.1027,-1.0787,-1.1176,-1.2048,-1.3515,-1.3998,-1.4659,-1.5709,-1.6108,-1.6607,-1.7288,-1.7507,-1.7839,-1.8363,-1.8573,-1.8761,-1.8922,-1.9219,-1.9401,-1.9427,-1.9756,-1.986,-1.9845,-2.058,-2.1133,-2.1548,-2.2126,-2.2585,-2.295,-2.3482,-2.3876,-2.4168,-2.4586,-2.4745,-2.4689,-2.4548,-2.4664,0.0,-2.4663,-2.4491,-2.432,-2.4117,-2.3935,-2.3795,-2.372,-2.354,-2.3295,-2.3019,-2.289,-2.2759,-2.2523,-2.3249,-2.4,-2.3895,-2.4927,-2.6016,-2.6333,-2.7445,-2.8654,-2.9677,-3.0644,-3.1705,0.0,-3.3407,-3.3812,-3.4323,-3.4429,-3.4394,-3.4235,-3.5031,-3.5705,-3.6037,-3.7481,-3.8919,-4.0185,-4.1542,-4.2593,-4.3262,-4.3429,-4.3132,-4.2314,-4.1832,-4.1033,-3.9863,-3.9714,-3.9454,-3.9082,-3.8284,-3.7652,-3.7164,-3.603,-3.5231,-3.4729,-3.4364,-3.4257,-3.4393,-3.4636,-3.4831,-3.495,-3.4293,-3.4112,-3.3955,-3.191,-3.1154,-3.1077,0.0,-1.5071,-1.512,-1.5157,-1.5235,-1.5141,-1.4702,-1.4012,-1.3319,-1.2588,-1.1994,-1.1574,-1.1443,-1.2093,-1.2898,-1.3825,-1.4183,-1.4718,-1.5594,-1.605,-1.6588,-1.7313,-1.7566,-1.7916,-1.8413,-1.8677,-1.8861,-1.8938,-1.9594,-1.9901,-1.9866,-2.0393,-2.0627,-2.063,-2.1473,-2.1995,-2.23,-2.3048,-2.3484,-2.3739,-2.4408,-2.4641,-2.4619,-2.5146,-2.5336,-2.5259,-2.5,-2.4874,-2.4797,-2.4441,-2.4183,-2.3971,-2.3756,-2.3555,-2.338,-2.3329,-2.3116,-2.2842,-2.2487,-2.2354,-2.2248,-2.2053,-2.3059,-2.4097,-2.4097,-2.5179,-2.6239,-2.6438,-2.7391,-2.8464,-2.9344,-3.0445,-3.1711,-3.3192,-3.3597,-3.4017,-3.4826,-3.4792,-3.4477,-3.3897,-3.4287,-3.496,-3.5918,-3.7188,-3.8423,-3.9528,-4.1104,-4.2161,-4.2445,-4.2816,-4.2742,-4.2166,-4.1571,-4.0866,-4.0048,-3.964,-3.9342,-3.9082,-3.8507,-3.7801,-3.7002,-3.5974,-3.5027,-3.4197,-3.4197,-3.4197,-3.4221,-3.4495,-3.4689,-3.4774,-3.4393,-3.4351,-3.4318,-3.2917,-3.2237,-3.191,0.0,0.0,-1.5132,-1.5267,-1.5302,-1.5155,-1.4768,-1.4292,-1.3621,-1.2634,-1.23,-1.2196,-1.226,-1.3218,-1.3867,-1.391,-1.4429,-1.4996,-1.5477,-1.5934,-1.6502,-1.7179,-1.7641,-1.7988,-1.8211,-1.8601,-1.8798,-1.8807,-2.0248,-2.0894,-2.0788,-2.1969,-2.2446,-2.2335,-2.2628,-2.3265,-2.4114,-2.423,-2.4788,-2.5617,-2.5658,-2.5571,-2.5459,-2.5498,-2.5406,-2.5259,-2.5,-2.483,-2.4642,-2.4238,-2.3989,-2.3756,-2.35,-2.3403,-2.3364,-2.3157,-2.279,-2.2419,-2.2391,-2.2217,-2.2013,-2.2013,-2.2904,-2.3819,-2.3819,-2.4744,-2.5829,-2.6526,-2.6926,-2.7694,-2.9468,-3.004,-3.0889,-3.2888,-3.3867,-3.469,-3.5633,-3.5144,-3.4688,-3.467,-3.4003,-3.3934,0.0,-3.6143,-3.7611,-3.9457,-3.9898,-4.0551,-4.159,-4.0936,-4.0508,-4.0471,-4.0438,-4.0011,-3.9138,-3.9937,-3.9937,-3.9101,-3.9082,-3.8637,-3.7801,-3.6216,-3.5027,-3.4197,-3.4197,-3.4197,-3.4221,-3.4495,-3.4594,-3.4647,-3.5008,-3.5152,-3.5081,-3.4382,-3.3583,-3.2756,0.0,0.0,0.0,-1.5226,-1.5316,-1.5292,-1.5077,-1.4553,-1.4059,-1.3675,-1.3218,0.0,0.0,0.0,0.0,0.0,-1.485,-1.5224,-1.5609,-1.6036,-1.6588,-1.7301,-1.7577,-1.7975,-1.8574,-1.925,-1.9714,-1.9924,-2.1089,-2.1696,-2.1742,-2.2243,-2.2547,-2.27,-2.3407,-2.3927,-2.4308,-2.4961,-2.5416,-2.5699,-2.5699,-2.5669,-2.5612,-2.5538,-2.5473,-2.5376,0.0,-2.4663,-2.4386,-2.4012,-2.3657,-2.3324,-2.3242,-2.3079,-2.291,-2.2681,-2.2398,-2.2118,-2.1976,-2.2101,-2.2261,-2.2261,-2.3275,-2.4267,-2.4267,-2.4587,-2.5082,-2.5826,-2.6032,-2.6721,-2.8707,-2.9532,-3.0607,-3.2664,-3.3692,-3.4473,-3.5278,-3.5194,-3.5037,-3.5037,-3.4441,0.0,0.0,0.0,0.0,-3.8656,-3.9053,-3.9664,-4.0754,-4.1051,-4.0954,-4.042,-4.0416,-3.9974,-3.9101,-3.938,-3.938,-3.9082,-3.8024,-3.6779,-3.5423,-3.4884,-3.4476,-3.4197,-3.4197,-3.4197,-3.4209,-3.4293,-3.445,-3.4604,-3.4751,-3.4973,-3.5171,-3.4948,-3.4762,-3.4423,0.0,0.0,0.0,0.0,0.0,0.0,0.0,0.0,0.0,0.0,0.0,0.0,0.0,0.0,0.0,0.0,0.0,-1.5433,-1.5823,-1.6309,-1.6863,-1.7479,-1.7692,-1.822,-1.9106,-1.9698,-2.0281,-2.0858,-2.1918,-2.2506,-2.2668,-2.3106,-2.3443,-2.371,-2.4343,-2.4671,-2.478,-2.5429,-2.5699,-2.5699,-2.5691,-2.5696,-2.5692,-2.5607,-2.5544,0.0,-2.5001,-2.462,-2.4258,-2.3816,-2.345,-2.3182,-2.3003,-2.2842,-2.2659,-2.246,-2.2203,-2.1955,-2.1753,-2.2034,-2.2394,-2.2394,-2.3446,-2.4452,-2.4209,-2.4338,-2.4628,-2.5114,-2.5211,-2.5882,-2.8104,-2.9011,-3.0131,-3.2363,-3.35,-3.4372,-3.5094,-3.5197,-3.5197,-3.5197,-3.4852,-3.4888,0.0,0.0,0.0,-3.8241,-3.8649,-3.9128,-3.99,-4.042,-4.0476,-3.9937,-3.9937,-3.9658,-3.9101,-3.9101,-3.9101,-3.9082,-3.7764,-3.6408,-3.507,-3.4791,-3.4494,-3.4197,-3.4197,-3.4197,-3.4197,-3.4197,-3.4293,-3.4473,-3.4561,-3.4761,-3.501,-3.5141,-3.5273,-3.5199,0.0,0.0,0.0,0.0,0.0,0.0,0.0,0.0,0.0,0.0,0.0,0.0,0.0,0.0,0.0,0.0,0.0,0.0,-1.6059,-1.6713,-1.7268,-1.7664,-1.8061,-1.8711,-1.9701,-1.998,-2.0603,-2.1579,-2.2716,-2.3361,-2.358,-2.4487,-2.5031,-2.5317,-2.5374,-2.5439,-2.551,-2.5641,-2.5699,-2.5703,-2.5708,-2.5698,-2.5699,-2.5698,-2.5621,-2.5464,-2.5053,-2.4702,-2.4329,-2.3629,-2.338,-2.3277,-2.282,-2.2685,-2.2646,-2.2432,-2.2189,-2.194,-2.1738,-2.2067,-2.2458,-2.2458,-2.3495,-2.4387,-2.369,-2.4047,-2.45,-2.45,-2.45,-2.5259,0.0,0.0,-2.952,-3.1975,-3.3365,-3.4424,-3.5145,-3.5318,-3.537,0.0,0.0,0.0,0.0,0.0,0.0,-3.8212,0.0,-3.884,-3.9073,-3.9101,-3.9101,-3.9101,-3.9101,-3.9101,-3.9101,-3.9101,-3.9082,-3.9027,-3.8265,-3.7448,-3.6606,-3.5863,-3.5027,-3.4197,-3.4197,-3.4197,-3.4197,-3.4197,-3.4197,-3.4221,-3.4484,-3.4602,-3.4636,-3.5037,-3.5185,-3.5084,0.0,0.0,0.0,0.0,0.0,0.0,0.0,0.0,0.0,0.0,0.0,0.0,0.0,0.0,0.0,0.0,0.0,0.0,-1.5881,-1.6638,-1.7211,-1.7467,-1.8517,-1.9346,-1.9909,-2.1298,-2.2215,-2.2612,-2.3618,-2.4193,-2.4396,-2.4738,-2.5078,-2.5378,-2.5379,-2.5486,-2.5643,-2.5695,-2.5692,-2.571,-2.5697,-2.5704,-2.5697,-2.5699,-2.5685,-2.5598,-2.5256,-2.4971,-2.4642,-2.3715,-2.3165,-2.2833,-2.2565,-2.2474,-2.2405,-2.2005,-2.1827,-2.1723,-2.1464,-2.2281,-2.322,-2.322,-2.4272,-2.513,-2.4419,-2.4387,-2.45,-2.45,-2.45,-2.5167,0.0,0.0,0.0,-3.1596,-3.3623,0.0,-3.5921,-3.7008,0.0,-3.7715,0.0,-3.699,-3.7182,-3.6891,0.0,0.0,-3.7622,-3.7995,-3.8826,-3.9017,-3.9101,-3.9101,-3.9101,-3.9101,-3.9101,-3.9101,-3.8804,-3.8191,-3.7986,-3.7164,-3.5807,-3.5584,-3.5027,-3.4197,-3.4197,-3.4197,-3.4197,-3.4197,-3.4197,-3.4209,-3.4281,-3.4409,-3.4604,-3.472,-3.486,-3.4954,0.0,0.0,0.0,0.0,0.0,0.0,0.0,0.0,0.0,0.0,0.0,0.0,0.0,0.0,0.0,0.0,0.0,0.0,0.0,-1.702,-1.7553,-1.8088,-1.9015,-2.0008,-2.0988,-2.2116,-2.2974,-2.3529,-2.4116,-2.4491,-2.4693,-2.4865,-2.5116,-2.5441,-2.5443,-2.5543,-2.5702,-2.5707,-2.5704,0.0,0.0,-2.5694,-2.5709,-2.5708,-2.5699,-2.5664,-2.5317,-2.4847,-2.4275,-2.3627,-2.3037,-2.2555,-2.2432,-2.2318,-2.2147,-2.1797,-2.1709,-2.1715,-2.1761,-2.2604,-2.3496,-2.3496,-2.4322,-2.4855,-2.3802,-2.3836,-2.4063,-2.4063,-2.4306,-2.5083,-2.7018,-2.8087,-2.9321,0.0,0.0,0.0,-3.6146,-3.7042,-3.7836,0.0,-3.7629,0.0,-3.7611,-3.7187,-3.6935,0.0,-3.7308,-3.7756,-3.8533,-3.8718,-3.8865,-3.9045,-3.9087,-3.9101,-3.9101,-3.9101,-3.8859,-3.8432,-3.8432,-3.7764,-3.6551,-3.6197,-3.5566,-3.4748,0.0,-3.4197,-3.4197,-3.4197,-3.4197,-3.4197,-3.4197,-3.4293,-3.445,-3.455,-3.4668,-3.4771,0.0,0.0,0.0,0.0,0.0,0.0,0.0,0.0,0.0,0.0,0.0,0.0,0.0,0.0,0.0,0.0,0.0,0.0,0.0,0.0,-1.7977,-1.8914,-1.9547,-2.0625,-2.2257,-2.2697,-2.3341,-2.4199,-2.4355,-2.4532,-2.4719,-2.4935,-2.5202,-2.5499,-2.551,-2.5578,-2.5706,-2.5704,-2.5698,-2.57,-2.571,-2.5692,-2.5699,0.0,-2.5697,-2.5641,-2.5294,-2.4541,-2.3687,-2.3464,-2.2945,-2.2391,-2.2363,-2.2175,-2.1911,-2.1708,-2.1649,-2.1751,-2.2264,-2.2945,-2.3496,-2.3496,-2.3998,-2.4128,-2.2718,-2.3042,-2.3609,-2.3512,-2.4112,-2.5108,-2.6679,-2.7909,-2.9265,-3.1038,0.0,-3.4749,-3.6249,-3.6542,-3.7129,-3.8577,-3.7387,-3.6766,-3.7581,-3.7043,-3.6643,-3.6643,-3.719,-3.7736,-3.8211,-3.8339,-3.8576,-3.8993,-3.9059,-3.9101,-3.9101,-3.9101,-3.9101,-3.9101,-3.9101,-3.8674,-3.7856,-3.7071,-3.6272,-3.5454,0.0,0.0,-3.4197,-3.4197,-3.4197,-3.4197,-3.4197,-3.4197,-3.4221,-3.4461,-3.4539,-3.4539,0.0,0.0,0.0,0.0,0.0,0.0,0.0,0.0,0.0,0.0,-1.6079,-1.5417,0.0,0.0,0.0,0.0,0.0,0.0,0.0,0.0,0.0,-1.8711,-2.0006,-2.121,-2.2275,-2.3379,-2.4033,-2.421,-2.4499,-2.4689,-2.4797,-2.51,-2.5343,-2.5499,-2.5564,-2.5637,-2.5707,-2.5693,-2.57,-2.5703,-2.57,-2.5699,-2.5699,-2.5706,0.0,0.0,-2.512,-2.4482,-2.3817,-2.3512,-2.2945,-2.2363,-2.213,-2.1928,-2.1708,-2.1433,-2.1372,-2.1518,-2.2216,-2.2945,-2.3496,-2.3496,-2.3998,-2.4128,-2.2718,-2.3399,0.0,-2.3609,-2.4515,-2.5561,-2.6085,-2.7559,-2.9284,-3.1094,-3.3416,-3.5525,-3.7081,-3.7823,-3.8525,0.0,-3.8198,-3.7599,-3.8336,-3.7172,0.0,0.0,0.0,-3.6962,-3.7911,-3.8243,-3.8606,-3.9073,-3.9101,-3.9101,-3.9101,-3.9101,-3.9101,-3.9101,-3.9101,-3.8674,-3.7856,-3.7071,-3.6272,-3.5454,-3.4569,0.0,-3.4197,-3.4197,-3.4197,-3.4197,-3.4197,-3.4197,-3.4209,-3.4257,-3.4269,-3.4269,0.0,0.0,0.0,0.0,0.0,0.0,0.0,-1.7764,-1.8458,-1.8123,-1.7003,-1.6129,-1.5839,-1.559,-1.5481,0.0,0.0,0.0,0.0,0.0,0.0,0.0,-2.0326,-2.1512,-2.2843,-2.3739,0.0,0.0,0.0,-2.4806,-2.4917,0.0,0.0,0.0,-2.5605,-2.567,-2.5702,-2.5701,-2.5703,-2.5694,-2.5701,-2.5696,0.0,0.0,0.0,0.0,0.0,-2.4475,-2.3847,-2.3505,-2.2945,-2.2349,-2.207,-2.1766,-2.1481,-2.134,-2.1293,-2.1536,-2.2669,-2.3237,-2.3496,-2.3496,-2.3739,-2.3609,-2.2167,0.0,0.0,-2.3561,-2.4612,-2.5675,-2.5954,-2.7176,-2.871,-3.0479,-3.2267,-3.4231,-3.6542,-3.6835,-3.7387,-3.8939,-3.7784,-3.718,0.0,-3.6973,0.0,0.0,0.0,-3.6618,-3.7341,-3.7962,-3.8421,-3.8685,-3.8685,-3.8591,-3.8384,-3.8603,-3.8744,-3.8744,-3.8984,-3.8897,-3.8469,-3.7262,-3.6495,-3.6049,-3.4754,0.0,-3.4197,-3.4197,-3.4197,-3.4197,-3.4197,-3.4197,-3.4197,-3.4197,-3.4197,-3.4197,0.0,0.0,0.0,0.0,0.0,0.0,0.0,-1.7869,-1.8475,-1.8671,-1.795,-1.7132,-1.6343,-1.6022,-1.5898,0.0,0.0,0.0,0.0,0.0,0.0,0.0,0.0,-2.1728,-2.3322,0.0,0.0,0.0,0.0,0.0,0.0,0.0,0.0,0.0,0.0,0.0,0.0,-2.5703,-2.57,0.0,0.0,0.0,0.0,0.0,0.0,0.0,0.0,-2.4904,-2.417,-2.3786,-2.3128,-2.2402,-2.2158,-2.1796,-2.1449,-2.1387,-2.1403,-2.1712,-2.3192,-2.3583,-2.3583,-2.3583,-2.3583,-2.324,-2.1859,-2.2539,-2.3528,-2.3674,-2.4725,-2.5724,-2.6169,-2.6975,-2.8238,0.0,-3.1358,-3.2972,-3.568,-3.5852,-3.6404,0.0,-3.7525,0.0,-3.7685,-3.7008,0.0,0.0,0.0,0.0,-3.69,-3.7649,-3.8096,-3.8178,-3.816,-3.8028,-3.7701,-3.8142,-3.8387,-3.8402,-3.8865,-3.8994,-3.8785,-3.7355,-3.6606,-3.6365,-3.4847,0.0,0.0,-3.4197,-3.4197,-3.4197,-3.4197,-3.4197,-3.4197,-3.4197,-3.4197,-3.4197,0.0,0.0,0.0,0.0,0.0,0.0,0.0,-1.8435,-1.9012,-1.8735,-1.8344,-1.7776,-1.692,-1.6382,-1.5854,0.0,0.0,0.0,0.0,0.0,0.0,0.0,0.0,0.0,0.0,0.0,0.0,0.0,0.0,0.0,0.0,0.0,0.0,0.0,0.0,0.0,0.0,0.0,0.0,0.0,0.0,0.0,0.0,0.0,0.0,0.0,0.0,-2.6303,-2.5178,-2.4658,-2.3636,-2.2561,-2.2402,-2.2175,-2.1897,-2.1723,0.0,0.0,-2.3457,-2.3852,-2.3852,-2.3852,-2.3852,-2.3589,-2.2541,0.0,-2.3674,-2.429,-2.5049,-2.5889,-2.6829,-2.7326,-2.8407,-3.0889,-3.213,-3.3386,-3.5059,-3.646,-3.7616,-3.8513,0.0,0.0,-3.8474,0.0,0.0,0.0,0.0,0.0,-3.6962,-3.7415,-3.7684,-3.7753,-3.7753,-3.7736,-3.7701,-3.8111,-3.8339,-3.8402,-3.8811,-3.866,-3.7968,-3.7108,-3.6309,-3.5566,-3.4606,0.0,0.0,-3.4197,-3.4197,-3.4197,-3.4197,-3.4197,-3.4197,-3.4197,-3.4197,-3.4197,0.0,0.0,0.0,0.0,0.0,0.0,-1.7338,-1.808,-1.8614,-1.8477,-1.8128,-1.777,-1.7474,-1.733,-1.6912,-1.6065,0.0,0.0,0.0,0.0,0.0,0.0,0.0,0.0,0.0,0.0,0.0,0.0,0.0,0.0,0.0,0.0,0.0,0.0,0.0,0.0,0.0,0.0,0.0,0.0,0.0,0.0,0.0,0.0,0.0,0.0,0.0,0.0,0.0,-2.4361,-2.3524,-2.2497,-2.2552,-2.2429,-2.2161,-2.1814,-2.1797,-2.2071,-2.2928,-2.3305,-2.3532,-2.3964,-2.3967,-2.3737,-2.3375,-2.3731,-2.4176,-2.4452,-2.5098,-2.5864,-2.6697,-2.7263,-2.8216,-3.0133,-3.1075,-3.2341,-3.4584,-3.5223,-3.5973,-3.7422,-3.7369,0.0,0.0,0.0,0.0,0.0,0.0,0.0,-3.6577,-3.696,-3.7192,-3.7229,-3.7211,-3.7098,-3.6865,-3.7542,-3.7893,-3.7927,-3.812,-3.8076,-3.7807,-3.6504,-3.5769,-3.5454,-3.4569,0.0,0.0,-3.4197,-3.4197,-3.4197,-3.4197,-3.4197,-3.4197,-3.4197,-3.4197,-3.4197,0.0,0.0,0.0,0.0,0.0,-1.7954,-1.755,-1.7831,-1.8146,-1.8253,-1.7774,-1.7511,-1.7766,-1.7868,-1.7685,-1.7033,-1.7571,0.0,0.0,0.0,0.0,0.0,0.0,0.0,0.0,0.0,0.0,-2.467,0.0,0.0,0.0,0.0,0.0,0.0,0.0,0.0,0.0,0.0,0.0,0.0,0.0,0.0,0.0,0.0,0.0,0.0,0.0,0.0,0.0,0.0,0.0,-2.2569,-2.2672,-2.2592,-2.2419,-2.202,-2.2017,-2.2238,-2.2781,-2.3073,-2.341,-2.4135,-2.4176,-2.4066,-2.4183,-2.4407,-2.4673,-2.4792,-2.5422,-2.6169,-2.6984,-2.7375,-2.8097,-2.9669,-3.0542,-3.1754,-3.3855,-3.4705,-3.5596,0.0,0.0,0.0,0.0,0.0,0.0,0.0,0.0,0.0,0.0,-3.6348,-3.6407,-3.6407,-3.6407,-3.6162,-3.5645,-3.6711,-3.7256,-3.7273,-3.7543,-3.7581,-3.7373,-3.5999,-3.526,-3.5045,0.0,0.0,0.0,-3.4197,-3.4197,-3.4179,-3.3937,-3.3993,-3.416,-3.3918,-3.3993,-3.4197,0.0,0.0,0.0,0.0,0.0,0.0,-1.8485,-1.7945,-1.7748,-1.8158,-1.7329,-1.698,-1.7726,-1.7787,-1.7874,-1.8058,-1.8393,0.0,0.0,0.0,0.0,0.0,0.0,0.0,0.0,0.0,-2.3736,-2.4402,-2.4737,-2.5048,0.0,0.0,0.0,0.0,0.0,0.0,0.0,0.0,0.0,0.0,0.0,0.0,0.0,0.0,0.0,0.0,0.0,0.0,0.0,0.0,0.0,0.0,0.0,-2.2699,-2.2659,-2.2446,-2.2391,-2.2561,-2.3291,-2.3478,-2.368,-2.4411,-2.4581,-2.4644,-2.4829,-2.4874,-2.5018,-2.5494,-2.6183,-2.7013,-2.7997,-2.7802,-2.8082,-2.9897,-3.1099,-3.2041,-3.28,-3.5545,-3.7478,0.0,0.0,0.0,0.0,0.0,0.0,0.0,0.0,0.0,0.0,-3.5594,-3.5218,-3.5218,-3.5218,-3.4872,-3.413,-3.5649,-3.6451,-3.652,-3.7241,-3.7215,-3.6477,-3.5673,-3.4862,0.0,0.0,0.0,0.0,-3.4197,-3.4197,-3.4123,-3.3324,-3.3491,-3.4104,-3.3317,-3.3522,-3.4197,0.0,0.0,0.0,0.0,0.0,0.0,0.0,-1.8181,-1.7999,-1.8361,-1.7849,-1.7739,-1.8455,-1.847,-1.8572,-1.8949,-1.9292,0.0,0.0,0.0,0.0,0.0,0.0,0.0,0.0,0.0,-2.3767,-2.4402,-2.4634,-2.496,-2.5302,-2.5449,0.0,0.0,0.0,0.0,0.0,0.0,0.0,0.0,0.0,0.0,0.0,0.0,0.0,0.0,0.0,0.0,0.0,0.0,0.0,0.0,0.0,0.0,0.0,-2.3056,-2.2854,-2.2634,-2.2722,-2.3218,-2.3879,-2.4682,-2.5096,-2.5486,-2.6067,-2.5912,-2.5694,-2.585,-2.63,-2.6935,-2.7716,-2.7928,-2.8552,-3.0317,-3.1121,-3.2215,-3.4182,0.0,0.0,-3.7373,0.0,0.0,0.0,0.0,0.0,0.0,0.0,0.0,0.0,-3.5318,-3.5197,-3.5197,-3.4717,-3.4355,-3.4113,-3.537,-3.5755,-3.5279,-3.5731,-3.558,-3.4842,-3.4027,0.0,0.0,0.0,0.0,0.0,-3.4197,-3.4197,-3.4123,-3.3317,-3.3503,-3.403,-3.2685,-3.3039,-3.4123,0.0,0.0,0.0,0.0,0.0,0.0,0.0,-1.8609,-1.8338,-1.8408,-1.8201,-1.8273,-1.8793,-1.8993,-1.9213,-1.9533,-2.0178,0.0,0.0,0.0,0.0,0.0,0.0,0.0,0.0,-2.3288,-2.3772,-2.4256,-2.4595,-2.4914,-2.5186,-2.5392,-2.57,-2.6046,0.0,0.0,0.0,0.0,0.0,0.0,0.0,0.0,0.0,0.0,0.0,0.0,0.0,0.0,0.0,0.0,0.0,0.0,0.0,0.0,0.0,0.0,-2.3934,-2.3794,-2.3239,-2.3511,-2.4185,-2.5175,-2.5644,-2.6019,-2.6655,-2.647,-2.6201,-2.6372,-2.6784,-2.7284,-2.7996,-2.813,-2.8507,-2.96,-3.069,0.0,0.0,0.0,0.0,0.0,0.0,0.0,0.0,0.0,0.0,0.0,0.0,0.0,0.0,-3.4766,-3.4645,-3.4335,-3.3886,-3.3507,-3.3214,-3.4363,-3.4689,-3.4251,-3.4604,-3.4505,-3.4035,-3.3232,0.0,0.0,0.0,0.0,0.0,-3.4173,-3.4161,-3.4006,-3.3282,-3.3455,-3.3932,-3.2706,-3.3083,-3.4123,0.0,0.0,0.0,0.0,0.0,0.0,0.0,-1.9142,-1.8752,-1.8514,-1.8529,-1.8654,-1.8931,-1.9409,-1.9764,-1.9841,0.0,0.0,0.0,0.0,0.0,0.0,0.0,0.0,-2.3005,-2.3427,-2.3756,-2.4018,-2.4601,-2.4924,-2.502,-2.5358,-2.5974,-2.6775,-2.5964,0.0,0.0,0.0,0.0,0.0,0.0,0.0,0.0,0.0,0.0,0.0,0.0,0.0,0.0,0.0,0.0,0.0,0.0,0.0,0.0,0.0,0.0,0.0,0.0,-2.4409,-2.4686,-2.5865,-2.6204,-2.635,-2.6769,-2.6657,0.0,-2.6939,-2.7356,-2.7867,-2.8602,-2.8311,-2.8056,-2.827,-3.0026,0.0,0.0,-3.3685,0.0,0.0,0.0,0.0,0.0,0.0,0.0,0.0,0.0,0.0,0.0,-3.4007,-3.3645,-3.2852,-3.2817,-3.249,-3.18,-3.2895,-3.3442,-3.3389,-3.3754,-3.3888,-3.3817,-3.3069,0.0,0.0,0.0,0.0,0.0,-3.4025,-3.3969,-3.3729,-3.3117,-3.3241,-3.3663,-3.3049,-3.3336,-3.4011,0.0,0.0,0.0,0.0,0.0,0.0,0.0,0.0,0.0,0.0,-1.9622,-1.9506,-2.0385,-2.0242,-2.0176,0.0,0.0,0.0,0.0,0.0,0.0,0.0,0.0,0.0,-2.3135,-2.3649,-2.403,-2.4309,-2.4598,-2.4891,-2.5166,-2.5385,-2.5992,-2.6844,-2.5977,-2.5714,0.0,0.0,0.0,0.0,0.0,0.0,0.0,0.0,0.0,0.0,0.0,-2.5287,0.0,0.0,0.0,0.0,0.0,0.0,0.0,0.0,-2.6135,-2.6706,-2.684,0.0,-2.6419,-2.6708,-2.7199,-2.7611,0.0,-2.7272,-2.694,-2.6426,-2.6686,-2.7251,-2.8029,-2.7395,-2.7514,-2.9935,0.0,0.0,0.0,0.0,0.0,0.0,0.0,0.0,0.0,0.0,0.0,0.0,0.0,0.0,0.0,-3.3179,-3.2835,-3.2076,-3.2059,-3.1972,-3.18,-3.2618,-3.276,-3.2224,-3.2853,-3.2855,-3.2316,-3.2124,0.0,0.0,0.0,0.0,-3.3648,-3.3213,-3.293,-3.2692,-3.209,-3.1949,-3.1998,-3.1392,-3.1663,-3.2277,0.0,0.0,0.0,0.0,0.0,0.0,0.0,0.0,0.0,0.0,0.0,0.0,0.0,0.0,0.0,0.0,0.0,0.0,0.0,0.0,0.0,0.0,0.0,-2.291,-2.3335,-2.3895,-2.4264,-2.4441,-2.4774,-2.5027,-2.5202,-2.5406,-2.5973,-2.6798,-2.6342,-2.6189,0.0,0.0,0.0,0.0,0.0,0.0,0.0,0.0,0.0,0.0,-2.5604,-2.551,0.0,-2.5182,-2.508,-2.5024,0.0,0.0,0.0,0.0,-2.6658,-2.7481,-2.7764,-2.7795,-2.7782,-2.8009,-2.8362,-2.8567,-2.8314,-2.7716,-2.7152,-2.6925,-2.6801,-2.694,-2.771,-2.7461,-2.7668,0.0,-3.0277,0.0,0.0,0.0,0.0,0.0,0.0,0.0,0.0,0.0,0.0,0.0,0.0,0.0,0.0,-3.2714,-3.2559,-3.1817,-3.18,-3.18,-3.18,-3.2196,-3.2196,-3.18,-3.2196,-3.2179,-3.18,-3.18,-3.1881,0.0,0.0,0.0,-3.2896,-3.2602,-3.2333,-3.2067,-3.148,-3.1195,-3.1071,-3.1033,-3.1279,-3.1605,0.0,0.0,0.0,0.0,0.0,0.0,0.0,0.0,0.0,0.0,0.0,0.0,0.0,0.0,0.0,0.0,0.0,0.0,0.0,0.0,0.0,0.0,0.0,-2.2984,-2.3552,-2.4128,-2.4473,-2.4606,-2.502,-2.5212,-2.523,-2.5395,-2.5846,-2.6512,-2.6979,-2.7094,0.0,0.0,0.0,0.0,0.0,0.0,0.0,0.0,0.0,0.0,0.0,0.0,0.0,-2.5374,-2.5313,-2.5293,-2.5212,0.0,0.0,0.0,0.0,0.0,-2.7992,-2.8404,-2.8871,-2.917,-2.9289,-2.9244,-2.8832,-2.7923,-2.7237,-2.752,-2.7028,-2.6808,-2.7586,-2.787,0.0,0.0,0.0,0.0,0.0,0.0,0.0,0.0,0.0,0.0,0.0,0.0,0.0,0.0,0.0,0.0,0.0,-3.2386,-3.2455,-3.1817,-3.18,-3.18,-3.18,-3.18,-3.18,-3.18,-3.18,-3.18,-3.18,-3.1679,-3.1462,0.0,0.0,0.0,-3.1794,-3.1761,-3.1603,-3.136,-3.0934,-3.0563,-3.0362,-3.1027,-3.1207,-3.1169,0.0,0.0,0.0,0.0,0.0,0.0,0.0,0.0,0.0,0.0,0.0,0.0,0.0,0.0,0.0,0.0,0.0,0.0,0.0,0.0,0.0,-2.3118,-2.2843,-2.3088,-2.3919,-2.428,-2.4673,-2.5098,-2.5163,-2.5263,-2.5371,-2.5397,-2.5487,-2.5693,-2.7857,-2.8043,-2.6845,0.0,0.0,0.0,0.0,0.0,0.0,0.0,0.0,0.0,0.0,0.0,0.0,-2.5443,-2.5371,-2.5361,-2.5239,0.0,0.0,0.0,0.0,0.0,-2.7998,-2.8953,-2.9642,-2.9089,-2.9254,-2.9291,-2.8287,-2.7692,-2.7195,-2.6639,-2.6426,-2.6693,-2.7752,-2.7656,-2.7882,0.0,0.0,0.0,0.0,0.0,0.0,0.0,0.0,0.0,0.0,0.0,0.0,0.0,0.0,0.0,0.0,0.0,-3.1921,-3.18,-3.18,-3.18,-3.18,-3.18,-3.18,-3.18,-3.18,-3.18,-3.1783,-3.1145,-3.0889,0.0,0.0,-3.0457,-3.0366,-2.9867,-2.9597,-2.9544,-2.9661,-2.935,-2.8938,-2.9891,-2.991,-2.9602,0.0,0.0,0.0,0.0,0.0,0.0,0.0,0.0,0.0,0.0,0.0,0.0,0.0,0.0,0.0,0.0,0.0,0.0,0.0,0.0,0.0,-2.2519,-2.3123,-2.359,-2.3883,-2.4433,-2.4879,-2.5207,-2.5272,-2.5335,-2.5406,-2.5813,-2.6251,-2.6757,-2.7913,-2.8318,-2.8152,-2.897,0.0,0.0,0.0,0.0,0.0,0.0,0.0,0.0,0.0,0.0,0.0,0.0,-2.5429,-2.539,-2.5288,0.0,0.0,0.0,0.0,0.0,-2.7343,-2.8453,-2.9369,-2.921,-2.9994,-3.0603,-2.9724,-2.9022,-2.8403,-2.7909,-2.7605,-2.7514,-2.7788,0.0,-2.8577,-2.9443,0.0,0.0,0.0,0.0,0.0,0.0,0.0,0.0,0.0,0.0,0.0,0.0,0.0,0.0,0.0,0.0,-3.18,-3.18,-3.18,-3.18,-3.18,-3.18,-3.18,-3.18,-3.18,-3.1593,-3.1179,-3.0852,-3.0318,-2.967,0.0,-2.9757,-2.9417,-2.9062,-2.8951,-2.8961,-2.8638,-2.8407,-2.8309,-2.8954,-2.915,-2.9229,0.0,0.0,0.0,0.0,0.0,0.0,0.0,0.0,0.0,0.0,0.0,0.0,0.0,0.0,0.0,0.0,0.0,0.0,0.0,0.0,-2.33,-2.2314,-2.3549,-2.4117,-2.3846,-2.4504,-2.4985,-2.5254,-2.5343,-2.5495,-2.5698,-2.639,-2.7117,-2.7788,-2.8186,-2.8681,-2.925,-2.9447,-2.9924,0.0,0.0,0.0,0.0,0.0,0.0,0.0,0.0,0.0,0.0,0.0,0.0,0.0,0.0,0.0,0.0,-2.518,-2.5362,-2.5739,-2.6475,-2.759,-2.8615,-2.8907,-3.0115,-3.1092,-3.0643,-2.9799,-2.9111,-2.9086,-2.8792,-2.8448,0.0,-2.865,0.0,-2.9521,0.0,0.0,0.0,0.0,0.0,0.0,0.0,0.0,0.0,0.0,0.0,0.0,0.0,0.0,0.0,0.0,-3.1671,-3.1671,-3.1763,-3.1746,-3.1671,-3.1746,-3.18,-3.18,-3.18,-3.1403,-3.0679,-3.0489,-2.973,-2.858,-2.9013,-2.8953,-2.8522,-2.8415,-2.846,-2.8556,-2.7944,-2.785,-2.8067,-2.8375,-2.8718,-2.9125,0.0,0.0,0.0,0.0,0.0,0.0,0.0,0.0,0.0,0.0,0.0,0.0,0.0,0.0,0.0,0.0,0.0,0.0,0.0,0.0,-2.3216,-2.313,-2.409,-2.4462,-2.4008,-2.4456,-2.4935,-2.5383,-2.5406,-2.5781,-2.6537,-2.7147,-2.7523,-2.7783,-2.934,-2.9652,-2.9066,-2.9883,-3.0266,-3.0333,0.0,0.0,0.0,0.0,0.0,0.0,0.0,0.0,0.0,0.0,0.0,0.0,0.0,0.0,-2.5185,-2.5125,-2.487,-2.4758,-2.5492,-2.6597,-2.7547,-2.7694,-2.8476,-2.9253,-2.947,-2.8681,-2.813,-2.8857,-2.8975,-2.9029,0.0,-2.9189,-2.9311,-2.9959,0.0,0.0,0.0,0.0,0.0,0.0,0.0,0.0,0.0,0.0,0.0,0.0,0.0,0.0,0.0,0.0,0.0,-3.1334,-3.1634,-3.1653,-3.1334,-3.1653,-3.18,-3.18,-3.18,-3.1403,-3.0662,-2.992,-2.9161,-2.8367,-2.7762,-2.7451,-2.7415,-2.74,-2.7552,-2.7786,-2.7719,-2.7893,-2.8209,-2.8414,-2.8644,-2.8827,0.0,0.0,0.0,0.0,0.0,0.0,0.0,0.0,0.0,0.0,0.0,0.0,0.0,0.0,0.0,0.0,0.0,0.0,0.0,-2.2569,-2.2981,-2.248,-2.382,-2.4365,-2.3885,-2.4501,-2.5009,-2.5395,-2.5818,-2.6408,-2.7172,-2.7951,-2.8591,-2.9165,-2.9877,-3.0034,-2.9774,-3.0139,-3.0292,-3.0316,-3.0406,0.0,0.0,0.0,0.0,0.0,0.0,0.0,0.0,0.0,-2.5418,-2.5331,-2.5278,-2.5228,-2.5168,-2.4968,-2.4756,-2.4702,-2.5301,-2.6083,-2.6856,-2.744,-2.7897,-2.8487,-2.9571,-2.9524,-2.9465,-3.0209,-3.0135,-2.9656,0.0,0.0,-2.8606,0.0,0.0,0.0,0.0,0.0,0.0,0.0,0.0,0.0,0.0,0.0,0.0,0.0,0.0,0.0,0.0,0.0,0.0,-2.9694,-2.9807,-2.9807,-2.9677,-2.9807,-2.9972,-3.0136,-3.0797,-3.0713,-2.992,-2.9161,-2.842,-2.7696,-2.742,-2.7299,-2.7299,-2.7299,-2.745,-2.773,-2.7922,-2.8081,-2.8196,-2.8291,-2.8445,-2.8619,0.0,0.0,0.0,0.0,0.0,0.0,0.0,0.0,0.0,0.0,0.0,0.0,0.0,0.0,0.0,0.0,0.0,0.0,-2.1709,-2.2705,-2.3051,-2.25,-2.3728,-2.4325,-2.4094,-2.4476,-2.4885,-2.5308,-2.5753,-2.6517,-2.7519,-2.8118,-2.8981,-3.0034,-2.9877,-2.9958,-3.0196,-2.9711,-2.9819,-3.0272,-3.0071,-2.9814,0.0,0.0,0.0,0.0,0.0,0.0,0.0,0.0,-2.5378,-2.5303,-2.5292,-2.5223,-2.5119,-2.4869,-2.4851,-2.4978,-2.528,-2.599,-2.6742,-2.7151,-2.7479,-2.7993,-2.9119,-2.9583,-2.9985,-3.0813,-3.0434,-2.9693,-2.8788,0.0,0.0,0.0,0.0,0.0,0.0,0.0,0.0,0.0,0.0,0.0,0.0,0.0,0.0,0.0,0.0,0.0,0.0,0.0,0.0,0.0,-2.8609,-2.8647,-2.8534,-2.8647,-2.8777,-2.896,-2.9571,-2.961,-2.9144,-2.8627,-2.7989,-2.7299,-2.7299,-2.7299,-2.7299,-2.7299,-2.745,-2.773,-2.8025,-2.8154,-2.8196,-2.8196,-2.8327,-2.8479,0.0,0.0,0.0,0.0,0.0,0.0,0.0,0.0,0.0,0.0,0.0,0.0,0.0,0.0,0.0,0.0,0.0,0.0,-2.1943,-2.2893,-2.3493,-2.3493,-2.3994,-2.4401,-2.4689,-2.4373,-2.4515,-2.5111,-2.5118,-2.5946,-2.7504,-2.7509,-2.8432,-3.0032,-2.9315,-2.9481,-3.0177,-2.8495,-2.8762,-3.0214,-2.9423,-2.9621,0.0,0.0,0.0,0.0,0.0,0.0,0.0,0.0,-2.5308,-2.5288,-2.5225,-2.5162,-2.5076,-2.4854,-2.5174,-2.5541,-2.5349,-2.6308,-2.7234,-2.6651,-2.7107,-2.7714,-2.7794,-2.8433,-2.9269,-3.0281,-2.9587,-2.8994,-2.9648,-2.8308,0.0,0.0,0.0,0.0,0.0,0.0,0.0,0.0,0.0,0.0,0.0,0.0,0.0,0.0,0.0,0.0,0.0,0.0,0.0,0.0,-2.8386,-2.8517,-2.8171,-2.8498,-2.8649,-2.8578,-2.818,-2.8135,-2.8403,-2.8385,-2.7989,-2.7299,-2.7299,-2.7299,-2.7299,-2.7299,-2.745,-2.7716,-2.7925,-2.8085,-2.8196,-2.8196,-2.8327,-2.8466,0.0,0.0,0.0,0.0,0.0,0.0,0.0,0.0,0.0,0.0,0.0,0.0,0.0,0.0,0.0,0.0,0.0,0.0,-2.2617,-2.2802,-2.298,-2.3072,-2.3312,-2.3644,-2.405,-2.5029,-2.5674,-2.5944,-2.6562,-2.7103,-2.7605,-2.8788,-2.8979,-2.8356,-2.8804,-2.8829,-2.8509,-2.8021,-2.8436,-2.9446,-2.9212,-2.9621,0.0,0.0,0.0,0.0,0.0,0.0,0.0,0.0,0.0,0.0,-2.5149,-2.5532,-2.5831,-2.4873,-2.5095,-2.5467,-2.4503,-2.5244,-2.6157,-2.5758,-2.6899,-2.8212,-2.8557,-2.884,-2.9061,-2.9251,-2.8764,-2.7947,-2.6842,0.0,0.0,0.0,0.0,0.0,0.0,0.0,0.0,0.0,0.0,0.0,0.0,0.0,0.0,0.0,0.0,0.0,0.0,0.0,0.0,0.0,-2.6368,-2.6479,-2.6366,-2.6479,-2.6689,-2.7037,-2.6941,-2.742,-2.8385,-2.7851,-2.7506,-2.7299,-2.7299,-2.7299,-2.7315,-2.739,-2.7539,-2.7716,-2.7925,-2.8085,-2.8196,-2.8196,-2.8237,-2.8277,0.0,0.0,0.0,0.0,0.0,0.0,0.0,0.0,0.0,0.0,-2.5156,0.0,0.0,0.0,0.0,0.0,0.0,0.0,0.0,-2.3124,-2.3106,-2.3253,-2.3248,-2.3627,-2.4425,-2.5826,-2.6795,-2.7338,-2.7223,-2.7319,-2.7619,-2.8364,-2.83,-2.7606,-2.7915,-2.7975,-2.7783,-2.7103,-2.7511,-2.8599,-2.825,-2.8621,-2.9319,0.0,0.0,0.0,0.0,0.0,0.0,0.0,0.0,0.0,-2.5143,-2.5475,-2.5766,-2.5158,-2.5529,-2.6005,-2.5404,-2.6039,-2.6874,-2.6722,-2.7609,-2.854,-2.8717,0.0,0.0,0.0,-2.7523,-2.6726,-2.5885,0.0,0.0,0.0,0.0,0.0,0.0,0.0,0.0,0.0,0.0,0.0,0.0,0.0,0.0,0.0,0.0,0.0,0.0,0.0,0.0,0.0,-2.5371,-2.5521,-2.5597,-2.5597,-2.5824,-2.6226,-2.6349,-2.6877,-2.7739,-2.7441,-2.7299,-2.7299,-2.7299,-2.7299,-2.7315,-2.7392,-2.7524,-2.7716,-2.7836,-2.8011,-2.8196,-2.8196,-2.8196,-2.8196,0.0,0.0,0.0,0.0,0.0,0.0,0.0,0.0,0.0,0.0,-2.5297,-2.5259,0.0,0.0,0.0,0.0,0.0,0.0,0.0,0.0,-2.3726,-2.3856,-2.3785,-2.4299,-2.5541,-2.6733,-2.7875,-2.8913,-2.7386,-2.6977,-2.7618,-2.7001,-2.6963,-2.7381,-2.6836,-2.7006,-2.7563,-2.5962,-2.625,-2.7717,-2.6928,-2.7121,-2.7818,-2.7,0.0,0.0,0.0,0.0,0.0,0.0,0.0,0.0,-2.5185,-2.5195,-2.5264,-2.5525,-2.6163,-2.6871,-2.7118,-2.7863,-2.8558,-2.8591,-2.8609,0.0,-2.8304,-2.84,-2.8248,-2.7206,0.0,-2.5503,-2.6087,0.0,0.0,0.0,0.0,0.0,0.0,0.0,0.0,0.0,0.0,0.0,0.0,0.0,0.0,0.0,0.0,0.0,0.0,0.0,0.0,0.0,-2.5178,-2.5391,-2.5578,-2.5597,-2.5731,0.0,-2.626,-2.6521,-2.6808,-2.7153,-2.7299,-2.7299,-2.7299,-2.7299,-2.7299,-2.7299,-2.7434,-2.7686,-2.7701,-2.7893,-2.8182,-2.8213,-2.8196,-2.8196,0.0,0.0,0.0,0.0,0.0,0.0,0.0,0.0,0.0,0.0,0.0,0.0,0.0,0.0,0.0,0.0,0.0,0.0,0.0,0.0,-2.4201,-2.4344,-2.5066,-2.5893,-2.679,-2.7932,-2.8677,-2.8989,-2.8055,-2.7706,-2.7909,-2.7716,-2.7003,-2.5885,-2.6386,-2.6313,-2.5827,-2.5462,-2.5904,-2.6851,-2.6678,-2.7121,-2.7871,-2.7618,-2.7146,0.0,0.0,0.0,0.0,0.0,0.0,0.0,-2.5137,-2.5552,-2.5872,-2.5011,-2.5726,-2.6615,-2.5747,-2.6825,-2.8013,-2.7193,-2.7274,-2.7452,-2.7057,-2.6804,-2.6522,-2.6297,-2.5737,-2.5189,0.0,0.0,0.0,0.0,0.0,0.0,0.0,0.0,0.0,0.0,0.0,0.0,0.0,0.0,0.0,0.0,0.0,0.0,0.0,0.0,0.0,-2.469,-2.5084,-2.5314,-2.5371,-2.5521,-2.5731,0.0,-2.6064,-2.6331,-2.6808,-2.7153,-2.7299,-2.7299,-2.7299,-2.7299,-2.7299,-2.7299,-2.739,-2.7539,-2.7657,-2.785,-2.8056,-2.8154,-2.8196,-2.8196,0.0,0.0,0.0,0.0,0.0,0.0,0.0,0.0,0.0,0.0,0.0,0.0,0.0,0.0,0.0,0.0,0.0,0.0,0.0,-2.4628,-2.4548,-2.4636,-2.601,-2.6766,-2.6761,-2.8253,-2.8851,-2.8467,-2.7722,-2.7396,-2.742,-2.7395,-2.6898,-2.6047,-2.6463,-2.6376,-2.5904,-2.5481,-2.5558,-2.5981,-2.5981,-2.625,-2.6654,-2.6624,-2.635,-2.6037,-2.6444,0.0,0.0,0.0,0.0,0.0,0.0,0.0,-2.5665,-2.5314,-2.5972,-2.6718,-2.642,-2.7327,-2.8215,-2.7718,0.0,-2.7343,-2.6743,-2.6156,-2.5544,-2.4865,-2.4498,0.0,0.0,0.0,0.0,0.0,0.0,0.0,0.0,0.0,0.0,0.0,0.0,0.0,0.0,0.0,0.0,0.0,0.0,0.0,0.0,-2.4323,-2.4508,-2.4609,-2.4966,-2.5217,-2.5294,-2.5486,-2.5656,-2.5807,-2.5936,-2.6279,-2.6808,-2.7153,-2.7299,-2.7299,-2.7299,-2.7299,-2.7299,-2.7299,-2.7392,-2.7511,-2.7642,-2.7821,-2.8028,-2.814,-2.8196,-2.8196,0.0,0.0,0.0,0.0,0.0,0.0,0.0,0.0,0.0,0.0,0.0,0.0,0.0,0.0,0.0,0.0,0.0,0.0,0.0,-2.4942,-2.483,-2.4924,-2.6547,-2.7135,-2.6428,-2.8122,-2.8582,-2.7735,-2.7123,-2.6889,-2.7011,-2.6861,-2.6834,-2.6896,-2.6756,-2.6651,-2.6544,-2.5673,-2.5308,-2.5308,-2.5308,-2.5308,-2.5308,-2.5303,-2.5303,-2.5327,-2.5476,-2.5889,-2.632,-2.5868,0.0,0.0,0.0,0.0,-2.5222,-2.5655,-2.6212,-2.6767,-2.7243,-2.7808,-2.8353,-2.8732,-2.8164,0.0,-2.6662,-2.5924,-2.5026,-2.3666,0.0,0.0,0.0,0.0,0.0,0.0,0.0,0.0,0.0,0.0,0.0,0.0,0.0,0.0,0.0,0.0,0.0,0.0,0.0,0.0,-2.3637,-2.4012,-2.4323,-2.4549,-2.4846,-2.5084,-2.5256,-2.5354,-2.5468,-2.5597,-2.5881,-2.6261,-2.6741,-2.7071,-2.725,-2.7299,-2.7299,-2.7299,-2.7299,-2.7299,-2.7376,-2.7481,-2.7615,-2.7792,-2.7968,-2.8112,-2.8168,-2.8196,0.0,0.0,0.0,0.0,0.0,0.0,0.0,0.0,0.0,0.0,-2.5403,-2.5403,-2.5393,-2.5393,0.0,0.0,0.0,0.0,-2.5126,0.0,0.0,-2.5401,-2.6366,-2.6882,-2.6818,-2.7768,-2.7851,-2.7031,-2.6936,-2.7246,-2.7919,-2.7083,-2.7078,-2.7706,-2.6954,-2.6617,-2.6544,-2.5673,-2.5308,-2.5308,-2.5308,-2.5308,-2.5303,-2.5302,-2.5307,-2.5399,-2.6153,-2.6018,-2.5682,-2.7012,-2.6579,0.0,0.0,0.0,0.0,-2.4996,-2.5499,-2.6053,-2.5792,-2.6284,-2.7204,0.0,-2.7652,-2.6307,0.0,0.0,-2.4756,0.0,0.0,0.0,0.0,0.0,0.0,0.0,0.0,0.0,0.0,0.0,0.0,0.0,0.0,0.0,0.0,0.0,0.0,0.0,0.0,0.0,-2.2999,-2.3564,-2.4009,-2.4323,-2.4766,-2.5005,-2.5025,-2.4786,-2.4968,-2.5597,-2.5881,-2.6171,-2.647,-2.6741,-2.7039,-2.7299,-2.7299,-2.7299,-2.7299,-2.7299,-2.7297,-2.7345,-2.7465,-2.7615,-2.776,-2.7954,-2.8099,-2.8196,0.0,0.0,0.0,0.0,0.0,0.0,0.0,0.0,0.0,0.0,0.0,-2.5332,-2.5341,-2.5346,0.0,0.0,0.0,0.0,-2.5096,-2.5307,0.0,0.0,-2.6332,-2.6597,-2.6182,-2.6997,-2.7021,-2.6162,-2.617,-2.6826,-2.8103,-2.8109,-2.8555,-2.9346,-2.8911,-2.8205,-2.7274,-2.6409,-2.575,-2.5308,-2.5308,-2.5596,-2.5981,-2.549,-2.5605,-2.6019,-2.5913,-2.5932,-2.6077,-2.6317,-2.6229,-2.5997,-2.5874,0.0,0.0,0.0,-2.5511,-2.6056,-2.607,-2.622,-2.6583,0.0,-2.6857,-2.61,-2.611,0.0,-2.5158,0.0,0.0,0.0,0.0,0.0,0.0,0.0,0.0,0.0,0.0,0.0,0.0,0.0,0.0,0.0,0.0,0.0,0.0,0.0,0.0,-2.1582,-2.1763,-2.2388,-2.2798,-2.296,-2.353,-2.3815,-2.3815,-2.3899,-2.429,-2.4984,-2.526,-2.574,-2.6401,-2.6285,-2.6629,-2.7299,-2.7299,-2.7299,-2.7299,-2.7299,-2.7299,-2.7297,-2.7452,-2.7542,-2.7615,-2.7896,-2.8042,-2.8099,0.0,0.0,0.0,0.0,0.0,0.0,0.0,0.0,0.0,0.0,0.0,0.0,-2.5308,0.0,0.0,0.0,0.0,0.0,-2.5187,0.0,0.0,0.0,0.0,-2.624,-2.5648,-2.6046,-2.6048,-2.5622,-2.539,-2.6351,-2.8443,-2.8956,-2.9776,-3.0797,-3.0524,-2.944,-2.7764,-2.6905,-2.6135,-2.5502,-2.5472,-2.5896,-2.6491,-2.6028,-2.6294,-2.6792,-2.5927,-2.6023,-2.647,0.0,0.0,0.0,0.0,0.0,0.0,0.0,0.0,-2.5578,-2.6005,0.0,-2.5722,-2.6251,-2.6257,-2.6103,0.0,0.0,0.0,0.0,0.0,0.0,0.0,0.0,0.0,0.0,0.0,0.0,0.0,0.0,0.0,0.0,0.0,0.0,0.0,0.0,0.0,0.0,0.0,-2.0571,-2.0668,-2.1301,-2.1689,-2.1768,-2.2425,-2.2773,-2.2773,-2.3271,-2.3658,-2.3982,-2.4372,-2.5109,-2.6133,-2.5847,-2.6274,-2.7299,-2.7299,-2.7299,-2.7299,-2.7299,-2.7299,-2.7315,-2.7405,-2.7465,-2.7542,-2.7824,-2.7954,-2.8028,0.0,0.0,0.0,0.0,0.0,0.0,0.0,0.0,0.0,0.0,0.0,0.0,-2.5308,-2.5308,-2.5308,-2.5308,0.0,0.0,0.0,0.0,0.0,0.0,0.0,0.0,-2.5703,-2.4921,-2.4902,-2.5699,-2.4794,-2.6069,-2.9337,-2.9239,-3.0072,-3.1598,-3.0764,-2.9369,-2.7555,-2.6752,-2.6276,-2.6058,-2.5988,-2.6093,-2.6384,-2.7106,-2.7523,-2.7614,-2.6749,-2.6472,0.0,0.0,0.0,0.0,0.0,-2.5306,-2.5128,0.0,0.0,0.0,-2.4625,-2.4358,0.0,-2.5431,-2.5977,-2.61,0.0,0.0,0.0,0.0,0.0,0.0,0.0,0.0,0.0,0.0,0.0,0.0,0.0,0.0,0.0,0.0,0.0,0.0,0.0,0.0,0.0,0.0,0.0,-1.9636,-2.0027,-2.0622,-2.1111,-2.1421,-2.2076,-2.2434,-2.2434,-2.3133,-2.3172,-2.2523,-2.3237,-2.4229,-2.5464,-2.543,-2.6114,-2.7299,-2.7299,-2.7299,-2.7299,-2.7299,-2.7299,-2.7299,-2.7315,-2.7392,-2.7526,-2.7657,-2.7836,-2.8028,0.0,0.0,0.0,0.0,0.0,0.0,0.0,0.0,0.0,0.0,0.0,0.0,0.0,-2.5351,-2.536,-2.536,-2.537,0.0,0.0,0.0,0.0,0.0,0.0,0.0,0.0,-2.5391,-2.5391,-2.5703,-2.5322,-2.6037,-2.7737,-2.8165,-2.8685,-2.9324,-3.0645,-3.019,-2.8407,-2.807,-2.7528,-2.6873,-2.6941,-2.7317,-2.7825,-2.7727,-2.8058,-2.8465,-2.7633,0.0,0.0,0.0,0.0,0.0,-2.549,-2.4952,-2.4351,-2.3424,-2.3508,-2.3772,-2.3246,0.0,0.0,-2.4356,-2.4702,-2.5098,-2.527,0.0,0.0,0.0,0.0,0.0,0.0,0.0,0.0,0.0,0.0,0.0,0.0,0.0,0.0,0.0,0.0,0.0,0.0,0.0,0.0,0.0,0.0,0.0,-1.9032,-1.9414,-1.9671,-1.9793,-2.0515,-2.1124,-2.1572,-2.2389,-2.2653,-2.2394,-2.2669,-2.344,-2.4627,-2.4173,-2.4655,-2.585,-2.6316,-2.6816,-2.7299,-2.7299,-2.7299,-2.7299,-2.7299,-2.7329,-2.7392,-2.7509,-2.7674,-2.7821,0.0,0.0,0.0,0.0,0.0,0.0,0.0,0.0,0.0,-2.5322,0.0,0.0,0.0,0.0,-2.541,-2.541,-2.5127,-2.5084,-2.5391,-2.5209,0.0,0.0,0.0,0.0,0.0,-2.5136,-2.5117,-2.5703,-2.5045,-2.5446,-2.6806,-2.7279,-2.7644,-2.7965,-2.9671,-2.9813,-2.8796,-2.8782,-2.829,-2.7535,-2.7621,-2.8056,-2.862,-2.8463,-2.8827,-2.9296,0.0,0.0,0.0,0.0,0.0,0.0,-2.5547,-2.4514,-2.3443,-2.2566,-2.2906,-2.3356,-2.2449,0.0,0.0,0.0,0.0,-2.4271,-2.4685,0.0,0.0,0.0,0.0,0.0,0.0,0.0,0.0,0.0,0.0,0.0,0.0,0.0,0.0,0.0,0.0,0.0,0.0,0.0,0.0,0.0,0.0,0.0,-1.8498,-1.8678,-1.8879,-1.9128,-1.9732,-2.0378,-2.1103,-2.1714,-2.2037,-2.2037,-2.2118,-2.2766,-2.384,-2.3461,-2.3932,-2.504,-2.5766,-2.6402,-2.6919,-2.7178,-2.7299,-2.7299,-2.7299,-2.7299,-2.733,-2.7434,-2.7554,-2.7627,0.0,0.0,0.0,0.0,0.0,0.0,0.0,0.0,-2.5437,-2.5437,0.0,0.0,0.0,0.0,0.0,-2.5473,-2.4681,-2.4546,-2.5395,-2.4754,0.0,0.0,0.0,0.0,-2.57,-2.4039,-2.4001,-2.57,-2.394,-2.4331,-2.6756,-2.6695,-2.708,-2.7857,-2.7857,-2.8128,-2.857,-2.8635,-2.8404,-2.8013,0.0,-2.8211,-2.8616,0.0,-2.9855,0.0,-2.9301,-2.9028,0.0,-2.8133,0.0,0.0,-2.5494,-2.4051,-2.2551,-2.1751,-2.2115,-2.2666,0.0,0.0,0.0,0.0,0.0,0.0,0.0,0.0,0.0,0.0,0.0,0.0,0.0,0.0,0.0,0.0,0.0,0.0,0.0,0.0,0.0,0.0,0.0,0.0,0.0,0.0,0.0,0.0,0.0,-1.8512,-1.8498,-1.8498,-1.8841,-1.9576,-1.9793,-2.0278,-2.1071,-2.123,-2.1293,-2.1293,-2.1572,-2.2224,-2.3164,-2.3371,-2.3998,-2.4971,-2.5697,-2.6025,-2.6094,-2.6954,-2.7299,-2.7299,-2.7299,-2.7299,-2.733,-2.7452,-2.7496,-2.7526,0.0,0.0,0.0,0.0,0.0,-2.6679,-2.667,-2.6482,-2.6347,0.0,0.0,0.0,-2.6417,-2.6389,-2.6645,-2.7229,-2.6537,-2.6165,-2.6393,-2.5638,-2.5308,-2.5598,-2.5623,-2.5648,-2.5691,-2.5226,-2.5228,-2.57,-2.5209,-2.5264,-2.5868,-2.5846,-2.6234,-2.6967,-2.6967,-2.7296,-2.7875,-2.7684,0.0,-2.7995,-2.8044,-2.8497,0.0,0.0,0.0,0.0,0.0,-2.9732,-2.9831,0.0,-2.9021,-2.8013,0.0,-2.4091,-2.2666,-2.2432,-2.2934,-2.3367,-2.2443,0.0,0.0,0.0,0.0,0.0,0.0,0.0,0.0,0.0,0.0,0.0,0.0,0.0,0.0,0.0,0.0,0.0,0.0,0.0,0.0,0.0,0.0,0.0,0.0,0.0,0.0,0.0,-1.9157,-1.8961,-1.8512,-1.8498,-1.8793,-1.9435,-1.9737,-2.0227,-2.0876,-2.1151,-2.1293,-2.1293,-2.1572,-2.1912,-2.2329,-2.2595,-2.2942,-2.3371,-2.4129,-2.4439,-2.4594,-2.6506,-2.7299,-2.7299,-2.7299,-2.7299,-2.7297,-2.7345,-2.7421,-2.7496,0.0,0.0,0.0,0.0,0.0,-2.7694,-2.7297,-2.7235,-2.7245,0.0,0.0,0.0,-2.7346,-2.7325,-2.7381,-2.7484,-2.741,-2.7061,-2.6352,-2.6152,-2.5937,-2.5604,-2.5625,-2.5665,-2.5704,-2.5337,-2.5341,-2.5696,-2.5346,-2.5288,-2.5493,-2.5492,-2.5521,-2.5563,-2.5534,-2.5691,-2.5996,-2.5825,0.0,0.0,-2.8487,0.0,0.0,-2.9455,-2.9608,0.0,0.0,0.0,-3.0082,-3.0173,-2.9666,0.0,0.0,0.0,0.0,-2.2906,-2.3404,-2.4068,-2.294,-2.3336,0.0,0.0,0.0,0.0,0.0,-2.3393,0.0,0.0,0.0,0.0,0.0,0.0,0.0,0.0,0.0,0.0,0.0,0.0,0.0,0.0,0.0,0.0,0.0,0.0,0.0,-1.9845,-1.9564,-1.9143,-1.8526,-1.8498,-1.8697,-1.9191,-1.9648,-2.0141,-2.0629,-2.1087,-2.1293,-2.1293,-2.1646,-2.1899,-2.2013,-2.2357,-2.2579,-2.2733,-2.3491,-2.3802,-2.3939,-2.5643,-2.6523,-2.6799,-2.6799,-2.7006,-2.7299,-2.7299,-2.7345,-2.7405,0.0,0.0,-2.9615,-2.9548,-2.9457,-2.913,-2.8276,-2.8156,-2.8155,0.0,-2.8137,-2.8191,-2.8353,-2.8282,-2.7968,-2.7285,-2.7861,-2.7572,-2.5995,-2.6529,-2.651,-2.5648,-2.5676,-2.5693,-2.5699,-2.504,-2.5023,-2.5707,-2.5027,-2.4972,-2.5513,-2.5418,-2.4919,-2.4081,-2.3933,-2.3859,-2.3822,-2.3846,0.0,-2.811,-2.8827,-2.9214,0.0,0.0,-2.9395,-2.9579,-2.9666,-2.9712,-2.9769,-2.9875,-2.9344,0.0,0.0,0.0,0.0,0.0,-2.3928,-2.4792,-2.3742,-2.3407,-2.3464,0.0,0.0,0.0,-2.3702,-2.3628,0.0,0.0,0.0,0.0,0.0,0.0,0.0,0.0,0.0,0.0,0.0,0.0,0.0,0.0,0.0,0.0,0.0,-2.0618,-2.0569,-2.0498,-1.9887,-1.9256,-1.8624,-1.8596,-1.8691,-1.8879,-1.9543,-2.0054,-2.041,-2.099,-2.1293,-2.1325,-2.1779,-2.2013,-2.2027,-2.2494,-2.2699,-2.2733,-2.3388,-2.3681,-2.3733,-2.4439,-2.5229,-2.5988,-2.5988,-2.6419,-2.704,-2.7144,-2.7161,-2.7178,0.0,-2.9891,-3.0453,-3.0444,-2.9862,-2.9324,-2.9082,-2.9089,-2.9094,-2.8985,-2.8911,-2.9197,-3.0024,-2.9497,-2.9284,-2.9804,-2.948,-2.8791,-2.7754,-2.7201,-2.6537,-2.5726,-2.5683,-2.5693,-2.5699,-2.6212,-2.6235,-2.5707,-2.6232,-2.6176,-2.5568,-2.486,-2.4384,-2.408,-2.334,-2.3376,-2.3997,-2.4524,0.0,-2.6511,-2.7084,0.0,-2.9145,-2.9089,-2.9174,-2.9272,-2.8669,-2.8612,-2.8783,-2.8338,-2.7612,-2.6924,0.0,0.0,0.0,-2.6365,-2.6088,-2.5611,-2.5242,0.0,0.0,0.0,0.0,0.0,-2.3829,-2.3764,0.0,0.0,0.0,0.0,0.0,0.0,0.0,0.0,0.0,0.0,0.0,0.0,0.0,0.0,0.0,0.0,0.0,-2.1902,-2.1659,-2.1153,-2.054,-1.9915,-1.927,-1.9228,-1.9109,-1.8908,-1.9543,-2.0054,-2.041,-2.099,-2.1293,-2.1325,-2.1779,-2.2013,-2.2027,-2.2494,-2.2699,-2.2699,-2.2854,-2.2905,-2.2923,-2.3078,-2.3957,-2.5212,-2.5212,-2.5316,-2.5523,-2.6126,-2.6318,-2.6437,-2.9241,-2.9811,-3.0236,-3.0664,-3.0383,-3.0072,-3.0017,-3.0027,-3.0003,-2.9868,-2.9794,-2.9959,-3.0485,-3.0165,-2.9894,-2.989,-2.9996,-2.9515,-2.8226,-2.777,-2.7171,-2.6348,-2.5915,-2.5692,-2.5694,-2.6543,-2.6567,-2.5707,-2.7015,-2.6944,-2.558,-2.5126,-2.4843,-2.4691,-2.3342,-2.3374,-2.4444,0.0,-2.4917,-2.5855,-2.6563,0.0,-2.8452,-2.7982,-2.8121,-2.8461,-2.775,-2.7723,-2.8013,-2.816,-2.7688,0.0,0.0,-2.7457,-2.7153,0.0,-2.6132,-2.6188,-2.5162,0.0,0.0,-2.4218,0.0,0.0,0.0,0.0,-2.3732,0.0,0.0,0.0,0.0,0.0,0.0,0.0,0.0,0.0,0.0,0.0,0.0,0.0,0.0,0.0,0.0,-2.2347,-2.2024,-2.1358,-2.1012,-2.0569,-1.9929,-1.9578,-1.9438,-1.9493,-1.9758,-2.0091,-2.0496,-2.1023,-2.1293,-2.1325,-2.1779,-2.2013,-2.2027,-2.2494,-2.2699,-2.2699,-2.2699,-2.2699,-2.2699,-2.2699,-2.3164,-2.3888,-2.425,-2.466,-2.504,-2.5419,-2.5557,-2.5609,-2.9206,-2.9634,-2.9964,-3.0684,-3.0801,-3.0772,-3.0706,-3.0697,-3.0639,-3.0519,-3.0697,-3.0742,-3.0482,-3.0603,-3.0429,-2.9723,-3.0229,-3.0012,-2.8663,-2.8482,-2.8045,-2.7197,-2.6378,-2.5941,-2.5942,-2.6795,-2.6741,-2.5707,-2.7444,-2.7297,-2.5375,-2.5454,-2.5286,-2.4865,-2.3698,-2.3828,-2.4853,0.0,0.0,-2.5885,0.0,-2.7039,-2.7566,-2.6862,-2.6998,-2.7489,-2.6858,-2.6722,-2.6934,-2.7684,0.0,-2.7113,-2.7103,-2.7539,0.0,0.0,0.0,0.0,0.0,0.0,0.0,0.0,0.0,-2.419,0.0,0.0,0.0,-2.3806,0.0,0.0,0.0,0.0,0.0,0.0,0.0,0.0,0.0,0.0,0.0,0.0,0.0,0.0,0.0,-2.2317,-2.2022,-2.1513,-2.1364,-2.1082,-2.0597,-1.9943,-1.9748,-2.005,-1.9937,-2.0089,-2.0563,-2.1023,-2.1262,-2.1325,-2.1779,-2.2013,-2.2027,-2.2494,-2.2699,-2.2699,-2.2699,-2.2699,-2.2699,-2.2699,-2.2699,-2.275,-2.3371,-2.3991,-2.4574,-2.4729,-2.4781,-2.4784,-2.9304,-3.0123,-3.0684,-3.0782,-3.0801,-3.0772,-3.0706,-3.0659,-3.0571,-3.0515,-3.1635,-3.1907,-3.0487,-3.0999,-3.1447,-3.1345,-3.0819,0.0,-3.0319,0.0,-2.8899,-2.8091,-2.7285,-2.6848,-2.6858,-2.7707,-2.7342,-2.5707,-2.7444,-2.7011,-2.4544,-2.5206,-2.4668,-2.3223,-2.4408,-2.491,-2.4898,0.0,-2.539,0.0,-2.587,-2.6038,0.0,-2.6649,-2.6667,-2.6652,-2.5995,-2.5308,-2.4789,0.0,-2.5111,-2.5156,0.0,-2.6012,-2.6032,0.0,0.0,0.0,0.0,0.0,0.0,0.0,-2.419,0.0,0.0,0.0,-2.4084,-2.3837,0.0,0.0,0.0,0.0,0.0,0.0,0.0,0.0,0.0,0.0,0.0,0.0,0.0,0.0,0.0,0.0,-2.1744,-2.2067,-2.1589,-2.1274,-2.1195,-2.0632,-2.0168,-1.9944,-1.9779,-1.996,-2.0427,-2.0893,-2.1183,-2.1325,-2.1779,-2.2013,-2.2027,-2.2494,-2.2699,-2.2699,-2.2699,-2.2699,-2.2699,-2.2699,-2.2699,-2.2699,-2.2785,-2.2888,-2.3043,-2.3698,-2.3939,-2.4043,-2.934,-3.0206,-3.0801,-3.0801,-3.0801,-3.0767,-3.0662,-3.0946,-3.1172,-3.1144,-3.1648,-3.1754,-3.1064,0.0,0.0,0.0,0.0,-3.1176,0.0,0.0,-2.9262,-2.8968,-2.7694,-2.7004,-2.6994,-2.7857,-2.7686,-2.6443,-2.8664,-2.8173,-2.5186,-2.6396,-2.6296,-2.5124,-2.566,-2.6287,-2.689,0.0,-2.6058,0.0,0.0,0.0,0.0,-2.5731,-2.5603,-2.5172,-2.4892,-2.4626,-2.449,0.0,-2.503,0.0,0.0,0.0,0.0,0.0,0.0,0.0,0.0,0.0,0.0,0.0,0.0,0.0,-2.419,0.0,-2.417,0.0,0.0,0.0,0.0,0.0,0.0,0.0,0.0,0.0,0.0,0.0,0.0,0.0,0.0,0.0,0.0,0.0,0.0,0.0,0.0,-2.1434,-2.18,-2.0928,-2.0535,-2.0812,-2.0065,-2.0017,-2.0811,-2.099,-2.1183,-2.1325,-2.1779,-2.2013,-2.2027,-2.2494,-2.2699,-2.2699,-2.2699,-2.2699,-2.2699,-2.2699,-2.2699,-2.2699,-2.2699,-2.2699,-2.2733,-2.3043,-2.3164,-2.3216,-2.9028,-3.0041,-3.0801,-3.0801,-3.0769,-3.0694,-3.054,-3.1132,-3.1507,-3.1245,-3.1567,0.0,-3.1503,-3.163,0.0,0.0,-3.2342,-3.1955,0.0,0.0,-2.9935,-2.9777,-2.8403,-2.7546,-2.7305,-2.8177,-2.809,-2.7001,-2.9301,-2.8829,0.0,0.0,-2.728,-2.6017,-2.6698,-2.7399,-2.802,0.0,-2.699,-2.6421,-2.6778,-2.6098,-2.4869,-2.5026,-2.4713,-2.419,-2.419,-2.4247,-2.443,-2.5087,-2.4973,0.0,-2.5142,0.0,0.0,0.0,0.0,0.0,-2.4355,0.0,0.0,0.0,0.0,0.0,0.0,0.0,0.0,0.0,0.0,0.0,0.0,0.0,0.0,0.0,0.0,0.0,0.0,0.0,0.0,0.0,0.0,0.0,0.0,0.0,0.0,0.0,0.0,0.0,-2.2165,-2.1121,-2.0788,-2.1401,-2.0262,-2.007,-2.0925,-2.0925,-2.1071,-2.1324,-2.1749,-2.1998,-2.213,-2.2521,-2.2699,-2.2699,-2.2699,-2.2699,-2.2699,-2.2632,-2.2646,-2.2699,-2.2632,-2.2646,-2.2699,-2.2699,-2.2699,-2.2699,-2.8249,-2.9613,-3.0801,-3.0801,-3.0697,-3.0544,-3.0334,-3.1044,-3.1264,-3.0366,0.0,0.0,0.0,0.0,0.0,0.0,0.0,-3.2709,-3.2853,0.0,-3.1204,-3.0506,-2.9738,-2.8929,0.0,0.0,-2.8654,-2.6996,-2.8718,-2.8226,0.0,0.0,-2.6629,-2.4304,-2.7223,-2.8005,-2.7173,-2.7792,-2.8389,-2.8822,-2.8062,-2.7255,-2.6355,0.0,-2.4226,-2.419,-2.419,0.0,0.0,-2.4236,-2.4227,0.0,0.0,0.0,0.0,0.0,0.0,0.0,0.0,0.0,0.0,-2.419,0.0,0.0,0.0,0.0,-2.419,0.0,0.0,0.0,0.0,0.0,0.0,0.0,0.0,0.0,0.0,0.0,0.0,0.0,0.0,0.0,0.0,0.0,0.0,0.0,0.0,0.0,-2.2137,-2.1297,-2.0926,-2.1204,-2.0296,-2.0032,-2.051,-2.0527,-2.0811,-2.1402,-2.1693,-2.2003,-2.2391,-2.2592,-2.2699,-2.2699,-2.2699,-2.2699,-2.2685,-2.2487,-2.2511,-2.2672,-2.2487,-2.2542,-2.2699,-2.2699,-2.2699,-2.2699,-2.9067,-2.9936,-3.0668,-3.0668,0.0,-3.073,-3.1093,-3.1367,-3.1407,0.0,0.0,0.0,0.0,-3.1706,-3.2477,0.0,0.0,-3.2988,-3.3647,-3.2378,0.0,0.0,0.0,-2.9484,0.0,0.0,0.0,0.0,0.0,0.0,0.0,0.0,-2.6908,-2.5077,-2.765,-2.8457,0.0,0.0,0.0,0.0,0.0,-2.6851,-2.6484,0.0,0.0,-2.419,-2.419,-2.419,0.0,-2.419,-2.419,-2.419,-2.419,-2.419,-2.419,-2.419,-2.419,0.0,0.0,0.0,-2.419,-2.419,0.0,0.0,0.0,0.0,0.0,0.0,0.0,0.0,0.0,0.0,0.0,0.0,0.0,0.0,0.0,0.0,0.0,0.0,0.0,0.0,0.0,0.0,0.0,0.0,0.0,0.0,0.0,-2.1726,-2.1388,-2.1219,-2.0714,-2.0475,-2.0494,-2.051,-2.0811,-2.1402,-2.1661,-2.2003,-2.2422,-2.2605,-2.2699,-2.2699,-2.2699,-2.2699,-2.2685,-2.2487,-2.2528,-2.2672,-2.2487,-2.2511,-2.2699,-2.2699,-2.2699,-2.2699,-2.9471,-3.0079,0.0,0.0,0.0,-3.0622,-3.1046,0.0,0.0,0.0,-3.1006,0.0,-3.1362,0.0,-3.2057,0.0,-3.3318,-3.3165,-3.3175,-3.2729,0.0,-3.2466,-3.1308,0.0,0.0,0.0,0.0,0.0,0.0,-2.8916,0.0,0.0,0.0,0.0,0.0,-2.8191,-2.793,0.0,-2.8996,0.0,0.0,-2.6869,0.0,0.0,-2.4897,-2.419,0.0,-2.419,-2.419,-2.419,-2.419,-2.419,-2.419,-2.419,-2.419,-2.419,-2.419,-2.419,-2.419,-2.419,0.0,-2.419,-2.419,0.0,-2.419,0.0,0.0,0.0,0.0,0.0,0.0,0.0,0.0,0.0,0.0,0.0,0.0,0.0,0.0,0.0,0.0,0.0,0.0,0.0,-2.1505,-2.2229,0.0,0.0,0.0,0.0,-2.1873,-2.1219,-2.1053,-2.0791,-2.0441,-2.0426,-2.0762,-2.1402,-2.157,-2.193,-2.2432,-2.2582,-2.2619,-2.2619,-2.2646,-2.2659,-2.2646,-2.2374,-2.2429,-2.2632,-2.2357,-2.2429,-2.2659,-2.2685,-2.2699,-2.2699,-2.9473,0.0,0.0,0.0,-3.0448,0.0,0.0,0.0,-3.0211,0.0,-3.0211,-3.0491,-3.1248,-3.1408,-3.1771,-3.2565,-3.3394,-3.3242,-3.1713,-3.307,0.0,0.0,-3.246,-3.2135,-3.0528,0.0,0.0,0.0,0.0,0.0,0.0,0.0,0.0,0.0,-2.6804,0.0,-2.721,-2.8686,-2.9166,-2.8877,-2.8117,-2.7291,-2.6465,-2.5686,0.0,-2.419,-2.419,-2.419,-2.419,-2.4208,-2.4208,-2.419,-2.419,-2.419,-2.419,-2.419,-2.418,-2.418,-2.418,-2.418,-2.418,-2.418,0.0,0.0,0.0,0.0,-2.417,0.0,0.0,0.0,0.0,0.0,0.0,0.0,0.0,0.0,0.0,0.0,0.0,0.0,0.0,0.0,0.0,-2.145,-2.1343,-2.2289,-2.1736,0.0,0.0,0.0,-2.2353,-2.1274,-2.1322,-2.1011,-2.032,-2.0321,-2.0695,-2.1402,-2.1417,-2.1796,-2.2501,-2.2501,-2.2501,-2.2501,-2.2569,-2.2609,-2.2565,-2.2169,-2.2243,-2.2565,-2.2172,-2.2257,-2.2605,-2.2672,-2.2699,-2.2699,-3.0225,-3.082,-3.1314,0.0,-3.065,-3.0437,0.0,0.0,0.0,0.0,-3.0211,-3.028,-3.0491,-3.051,-3.0854,-3.1668,-3.1981,0.0,0.0,0.0,0.0,-3.4216,-3.3374,-3.2941,-3.3046,-3.2254,0.0,-3.0771,0.0,0.0,-2.7784,0.0,0.0,0.0,0.0,0.0,-2.7219,-2.8839,-2.8989,-2.8081,-2.789,-2.6972,0.0,0.0,-2.4897,-2.419,-2.419,-2.419,-2.419,-2.4151,-2.4161,-2.418,-2.4084,-2.4084,-2.4132,-2.4074,-2.4054,-2.4054,-2.4054,-2.4054,-2.4054,-2.4054,-2.4054,-2.4054,0.0,0.0,0.0,0.0,0.0,0.0,0.0,0.0,0.0,0.0,0.0,0.0,0.0,0.0,0.0,0.0,0.0,0.0,0.0,0.0,-2.2748,-2.1864,0.0,0.0,0.0,0.0,0.0,-2.168,-2.1892,-2.1488,-2.032,-2.0544,-2.0925,-2.1402,-2.1661,-2.203,-2.2501,-2.2501,-2.2501,-2.2501,-2.2528,-2.2538,-2.2565,-2.2226,-2.2281,-2.2565,-2.2329,-2.2412,-2.2672,-2.2699,-2.2699,-2.2699,-3.0911,0.0,0.0,-3.2473,0.0,0.0,-3.1427,0.0,0.0,-3.0249,-3.0211,0.0,-3.0211,-3.0211,-3.0376,-3.0835,-3.1255,0.0,-3.2294,0.0,0.0,-3.3501,-3.3432,-3.3228,-3.2905,-3.2494,0.0,-3.0565,0.0,0.0,-2.7477,0.0,0.0,0.0,0.0,-2.7478,-2.721,-2.8696,-2.8743,-2.778,-2.742,0.0,0.0,-2.4987,-2.4546,-2.4151,-2.4113,-2.4123,-2.4151,-2.4084,-2.4084,-2.4094,-2.4016,-2.4026,-2.4054,-2.4006,-2.3996,-2.3996,-2.3996,-2.3996,-2.3976,-2.3847,-2.3827,-2.3827,-2.3827,-2.3827,-2.3847,0.0,0.0,0.0,0.0,0.0,0.0,0.0,0.0,0.0,0.0,0.0,0.0,0.0,0.0,0.0,0.0,0.0,0.0,0.0,0.0,0.0,0.0,0.0,0.0,-2.1411,-2.198,-2.1658,-2.032,-2.0628,-2.099,-2.1354,-2.1706,-2.2046,-2.2405,-2.2405,-2.2405,-2.2405,-2.229,-2.2329,-2.247,-2.2056,-2.2127,-2.2501,-2.2388,-2.247,-2.2659,-2.2659,-2.2672,-2.2699,-3.1615,0.0,0.0,0.0,0.0,0.0,0.0,-3.1465,0.0,-3.0307,0.0,-3.0211,-3.0211,-3.0211,-3.0211,-3.0211,0.0,-3.1064,-3.0414,-3.1725,-3.226,-3.1591,-3.3127,-3.3318,-3.1866,-3.2504,0.0,0.0,0.0,0.0,0.0,0.0,0.0,0.0,0.0,0.0,0.0,-2.8499,-2.8528,-2.7732,-2.7034,-2.6209,-2.5309,-2.4544,-2.4185,-2.4084,-2.4006,-2.4026,-2.4084,-2.4006,-2.3996,-2.3996,-2.3986,-2.3986,-2.3986,-2.3986,-2.3976,-2.3976,-2.3976,-2.3955,-2.3876,-2.3639,-2.3562,-2.3522,-2.3522,-2.3555,-2.3628,-2.3764,-2.3896,-2.3966,0.0,0.0,0.0,0.0,0.0,0.0,0.0,0.0,0.0,0.0,0.0,0.0,0.0,0.0,0.0,0.0,0.0,0.0,0.0,0.0,0.0,-2.0929,-2.18,0.0,-2.0388,0.0,-2.1039,-2.137,-2.1706,-2.202,-2.2296,-2.2296,-2.2296,-2.2282,-2.2046,-2.2118,-2.2363,-2.1882,-2.1972,-2.2391,-2.2391,-2.2474,-2.2579,-2.2609,-2.2632,-2.2685,0.0,0.0,0.0,0.0,0.0,-3.4093,-3.2699,-3.1331,-3.0376,-3.023,-3.0211,-3.0211,-3.0211,-3.0211,-3.0211,-3.0211,-3.0338,0.0,0.0,0.0,0.0,-3.2451,-3.3452,-3.3861,-3.3574,-3.3016,-3.2565,0.0,0.0,0.0,0.0,0.0,0.0,0.0,0.0,0.0,-2.7967,-2.8695,0.0,-2.7787,-2.764,-2.6683,-2.5295,-2.5157,-2.4641,-2.4006,-2.3937,-2.3966,-2.4006,-2.3937,-2.3947,-2.3986,-2.3876,-2.3876,-2.3907,-2.3847,-2.3845,-2.3845,-2.3845,-2.3718,-2.3582,-2.352,-2.3342,-2.3188,-2.3188,-2.3353,-2.3463,-2.3271,-2.3602,-2.3855,-2.361,0.0,0.0,0.0,0.0,0.0,0.0,0.0,0.0,0.0,0.0,0.0,0.0,0.0,0.0,0.0,0.0,0.0,0.0,0.0,0.0,0.0,-2.1913,0.0,0.0,0.0,-2.1385,-2.1721,-2.2049,-2.2237,-2.2296,-2.2296,-2.2296,-2.2296,-2.2237,-2.2293,-2.2377,-2.2237,-2.2265,-2.2391,-2.2391,-2.2446,-2.2511,-2.2565,-2.2623,-2.2636,0.0,0.0,0.0,0.0,0.0,0.0,0.0,-3.163,0.0,-3.0242,-3.0211,-3.0211,-3.0211,-3.0211,-3.0211,-3.0211,-3.0211,-3.0376,-3.0796,-3.0835,-3.1006,-3.1389,-3.2649,0.0,-3.2707,-3.3146,-3.2966,-3.2119,0.0,0.0,0.0,0.0,0.0,0.0,0.0,-2.7727,0.0,0.0,0.0,-2.775,-2.775,-2.6739,-2.5241,-2.521,-2.4678,-2.3937,-2.3876,-2.3876,-2.3896,-2.3865,-2.3876,-2.3886,-2.3816,-2.3816,-2.3837,-2.3806,-2.3806,-2.3774,-2.3667,-2.3576,-2.3417,-2.3145,-2.299,-2.278,-2.2404,-2.2427,-2.2511,-2.2476,-2.2679,-2.2994,-2.341,-2.3753,0.0,0.0,0.0,0.0,0.0,0.0,0.0,0.0,0.0,0.0,0.0,0.0,0.0,0.0,0.0,0.0,0.0,0.0,0.0,0.0,0.0,0.0,0.0,0.0,0.0,-2.1796,-2.2152,-2.2296,-2.2296,-2.2296,-2.2296,-2.2296,-2.2123,-2.2166,-2.2352,-2.231,-2.2324,-2.2352,-2.2352,-2.2377,-2.2446,-2.2487,-2.2528,-2.2555,0.0,-3.477,0.0,0.0,-3.4522,0.0,-3.2833,-3.1973,-3.114,-3.03,-3.0211,-3.0211,-3.0211,-3.0211,-3.0211,-3.0211,-3.0211,-3.0211,-3.0211,-3.0211,-3.0211,-3.0211,-3.163,-3.2145,-3.1484,-3.2947,-3.294,0.0,0.0,0.0,0.0,0.0,0.0,0.0,0.0,0.0,0.0,0.0,-2.8604,-2.7942,-2.7759,-2.6794,-2.5415,-2.5179,-2.4595,-2.3876,-2.3816,-2.3806,-2.3795,-2.3742,-2.3764,-2.3806,-2.3806,-2.3774,-2.3732,-2.3732,-2.37,-2.3624,-2.3463,-2.3371,-2.3235,-2.2816,-2.2538,-2.2237,-2.1648,-2.1423,-2.1423,-2.169,-2.1919,-2.2359,-2.3325,-2.3635,0.0,0.0,0.0,0.0,0.0,0.0,0.0,0.0,0.0,0.0,0.0,0.0,0.0,0.0,0.0,0.0,-2.1372,-2.1627,0.0,0.0,0.0,-2.181,-2.1804,0.0,-2.1842,0.0,-2.2166,-2.2296,-2.2296,-2.2296,-2.2296,-2.2282,-2.202,-2.2049,-2.2296,-2.2296,-2.2296,-2.2296,-2.2296,-2.2338,-2.2394,-2.2391,-2.2432,-2.246,0.0,0.0,0.0,0.0,0.0,0.0,0.0,-3.2012,-3.1178,-3.03,-3.0211,-3.0211,-3.0211,-3.0211,-3.0211,-3.0211,-3.0211,-3.0211,-3.0211,-3.0211,-3.0211,-3.0211,-3.1102,-3.156,-3.14,-3.2279,-3.2283,0.0,0.0,0.0,0.0,0.0,0.0,0.0,0.0,0.0,0.0,-2.8682,-2.8915,-2.8722,-2.7983,-2.7104,-2.6118,-2.5368,-2.4555,-2.3806,-2.3806,-2.3806,-2.3774,-2.3587,-2.3653,-2.3806,-2.3806,-2.3667,-2.3538,-2.3538,-2.3359,-2.3164,-2.314,-2.296,-2.2764,-2.2712,-2.2012,-2.1315,-2.1247,-2.0861,-2.0658,-2.1169,-2.1996,-2.2802,-2.3388,-2.3324,-2.3164,0.0,0.0,0.0,0.0,0.0,0.0,0.0,0.0,0.0,0.0,0.0,0.0,0.0,0.0,0.0,-2.1323,-2.1627,-2.1503,-2.0872,0.0,-2.1807,-2.1807,-2.1799,0.0,-2.2254,-2.2282,-2.2296,-2.2296,-2.2296,-2.2296,-2.2296,-2.2268,-2.2268,-2.2296,-2.2296,-2.2296,-2.2296,-2.2296,-2.231,-2.2324,-2.2394,-2.2391,-2.2363,0.0,0.0,0.0,0.0,0.0,0.0,0.0,-3.1668,-3.114,-3.03,-3.0211,-3.0211,-3.0211,-3.0211,-3.0211,-3.0211,-3.0211,-3.0178,-3.013,-3.015,-3.0142,-3.0147,-3.094,-3.1607,-3.2114,-3.2918,-3.3157,0.0,0.0,0.0,0.0,0.0,0.0,0.0,0.0,-2.8503,-2.8448,-2.88,-2.8881,-2.8761,-2.8433,-2.7475,-2.6202,-2.5876,-2.494,-2.3806,-2.3806,-2.3806,-2.3764,-2.3565,-2.3542,-2.3598,-2.3434,-2.3318,-2.3265,-2.3265,-2.3176,-2.3054,-2.2897,-2.2773,-2.2659,-2.2501,-2.2156,-2.1735,-2.1292,-2.0658,-2.022,-2.0429,-2.131,-2.2237,-2.2903,-2.3194,-2.3289,0.0,0.0,0.0,0.0,0.0,0.0,0.0,0.0,0.0,0.0,0.0,0.0,0.0,0.0,0.0,0.0,-2.1741,0.0,-2.1696,0.0,-2.1984,-2.2413,-2.2208,-2.2166,-2.2296,-2.2296,-2.2296,-2.2296,-2.2296,-2.2296,-2.2296,-2.2296,-2.2296,-2.2296,-2.2296,-2.2296,-2.2296,-2.2296,-2.2296,-2.231,-2.2338,-2.2338,-2.2293,-3.5209,0.0,-3.5018,0.0,-3.3949,-3.3223,-3.2038,-3.1389,-3.0835,-3.0261,-3.0211,-3.0211,-3.0211,-3.0178,-3.0171,-3.0171,-3.0101,-3.003,-3.0,-2.9934,-2.9894,-2.9888,-3.0438,0.0,-3.1659,-3.2455,-3.273,-3.2484,-3.2185,0.0,0.0,0.0,0.0,0.0,-2.8654,-2.887,-2.8839,-2.887,-2.8791,-2.8676,-2.8439,-2.7622,-2.65,-2.6041,-2.5135,-2.4121,-2.3822,-2.371,-2.3675,-2.3371,-2.3253,-2.3259,-2.3128,-2.306,-2.2985,-2.2985,-2.2922,-2.282,-2.2632,-2.2565,-2.2542,-2.2352,-2.2127,-2.1786,-2.1025,-2.0247,-1.9676,-1.9676,-2.0632,-2.167,-2.2268,-2.2795,-2.3109,-2.2998,0.0,0.0,0.0,0.0,0.0,0.0,-2.3922,-2.3733,-2.3122,0.0,0.0,0.0,0.0,0.0,0.0,0.0,0.0,0.0,0.0,0.0,0.0,-2.2418,-2.2296,-2.2296,-2.2296,-2.2296,-2.2296,-2.2296,-2.2296,-2.2296,-2.2296,-2.2296,-2.2296,-2.2296,-2.2296,-2.2296,-2.2296,-2.2296,-2.2296,-2.2296,-2.224,-2.212,-3.5209,-3.5209,-3.5209,-3.519,-3.3826,-3.2718,-3.2699,-3.1274,-3.0211,-3.0211,-3.0211,-3.0211,-3.0211,-3.013,-3.0101,-3.0101,-2.9859,-2.9705,-2.9705,-2.9514,-2.9409,0.0,0.0,-2.9427,-2.9446,-3.0217,-3.0224,-2.9346,0.0,0.0,-2.9299,0.0,-2.8948,-2.8688,-2.8773,-2.8761,-2.8724,-2.8773,-2.8761,-2.8621,-2.7834,-2.7459,-2.7206,-2.5624,-2.5009,-2.486,-2.3862,-2.3504,-2.3417,-2.2889,-2.2712,-2.2764,-2.3022,-2.291,-2.2699,-2.2699,-2.2528,-2.231,-2.231,-2.231,-2.231,-2.2296,-2.1752,-2.1004,-2.02,-1.9439,-1.891,-1.891,-2.0141,-2.1283,-2.1548,-2.2002,-2.2391,-2.2659,0.0,0.0,0.0,0.0,0.0,0.0,-2.2559,-2.2613,-2.2341,0.0,0.0,0.0,0.0,0.0,0.0,0.0,0.0,-2.1814,-2.1797,0.0,-2.2313,-2.2296,-2.2296,-2.2296,-2.2296,-2.2296,-2.2296,-2.2296,-2.2296,-2.2296,-2.2296,-2.2296,-2.2296,-2.2296,-2.2296,-2.2296,-2.2296,-2.2296,-2.2296,-2.2296,-2.2092,-2.1766,-3.5209,-3.5209,-3.5037,-3.4483,-3.3929,-3.3203,-3.2057,-3.1299,-3.0649,-3.001,-2.9845,-2.9967,-3.0424,-3.0133,-2.9886,0.0,-2.9615,-2.9476,0.0,-2.9369,-2.9338,-2.9326,-2.9326,-2.9597,-3.0147,-3.0397,-3.0964,-3.1827,0.0,0.0,0.0,-2.9041,-2.8743,-2.8694,-2.8706,-2.8706,-2.8694,-2.8718,-2.87,-2.8619,-2.8347,-2.7918,-2.7333,-2.6826,-2.5968,-2.4921,-2.4425,-2.3932,-2.3424,-2.2876,-2.2699,-2.2685,-2.2592,-2.2501,-2.2419,-2.2419,-2.2366,-2.2296,-2.2296,-2.2296,-2.2296,-2.2296,-2.211,-2.1887,-2.1637,-2.0572,-1.9811,-2.0361,-2.0416,-2.0729,-2.1874,-2.2344,-2.2592,-2.2628,-2.2668,0.0,0.0,0.0,0.0,0.0,0.0,-2.3138,0.0,-2.3345,0.0,0.0,0.0,0.0,0.0,0.0,0.0,0.0,-2.2152,0.0,-2.2296,-2.2296,-2.2296,-2.2296,-2.2296,-2.2296,-2.2296,-2.2296,-2.2296,-2.2296,-2.2296,-2.2296,-2.2296,-2.2296,-2.2296,-2.2296,-2.2296,-2.2166,-2.1961,-2.1961,-2.1751,-2.1447,-3.5209,-3.5209,-3.5037,-3.4541,-3.4129,-3.3394,-3.2041,-3.1381,-3.0721,-2.98,-2.9607,-2.9701,-3.0058,-2.9746,0.0,-2.9974,-2.9536,-2.9225,-2.9201,-2.9086,-2.9038,-2.9034,-2.9034,-2.9273,-2.9775,0.0,0.0,-3.1353,-3.0668,-3.0165,-2.9784,-2.898,-2.8625,-2.8657,-2.8657,-2.8657,-2.8657,-2.8657,-2.8637,-2.86,-2.86,-2.8292,-2.7821,-2.7514,-2.6525,-2.5229,-2.467,-2.3927,-2.3121,-2.2699,-2.2555,-2.2528,-2.2349,-2.2296,-2.2296,-2.2296,-2.2296,-2.2296,-2.2296,-2.2296,-2.2296,-2.2296,-2.2296,-2.2243,-2.1955,-2.091,-2.0149,-2.0653,-2.0602,-2.0741,-2.1718,-2.2245,-2.2525,-2.247,-2.2561,-2.2602,-2.2467,0.0,0.0,0.0,0.0,0.0,0.0,-2.3304,0.0,0.0,0.0,0.0,0.0,0.0,0.0,-2.2296,-2.2296,0.0,-2.2296,-2.2296,-2.2296,-2.2296,-2.2296,-2.2296,-2.2296,-2.2296,-2.2296,-2.2296,-2.2296,-2.2296,-2.2296,-2.2296,-2.224,-2.2106,-2.2106,-2.1901,-2.16,-2.16,-2.1401,-2.1103,-3.5185,-3.5185,0.0,0.0,-3.4305,0.0,-3.2501,-3.1525,-3.0526,-2.9598,-2.9504,-2.9482,-2.9361,-2.9123,-2.9385,-3.036,0.0,0.0,0.0,-2.8749,-2.8618,-2.869,-2.869,-2.8708,-2.8763,-2.8763,-2.8763,-2.8763,-2.8763,-2.9119,-2.9784,-2.898,-2.86,-2.86,-2.86,-2.86,-2.86,-2.86,-2.8587,-2.8574,-2.8574,-2.8562,-2.8446,-2.7705,-2.677,-2.5709,-2.4706,-2.3672,-2.2728,-2.2411,-2.2296,-2.2296,-2.2296,-2.2296,-2.2296,-2.2296,-2.2296,-2.2296,-2.2296,-2.2296,-2.2296,-2.2296,-2.2296,-2.211,-2.1431,-2.064,-2.0086,-2.0124,-2.0707,-2.1194,-2.1245,-2.1823,-2.2268,-2.2183,-2.2385,-2.248,-2.2211,0.0,0.0,0.0,0.0,0.0,0.0,-2.3154,-2.3232,0.0,0.0,0.0,0.0,0.0,-2.2296,-2.2296,-2.2296,-2.2296,-2.2296,-2.2296,-2.2282,-2.2268,-2.2282,-2.2282,-2.224,-2.2237,-2.2254,-2.224,-2.224,-2.224,-2.224,-2.224,-2.2049,-2.1783,-2.1783,-2.157,-2.1276,-2.1276,-2.1039,-2.0761,0.0,0.0,-3.4973,-3.4973,-3.4244,-3.3336,-3.2326,-3.1784,-3.0939,-2.9408,-2.9602,-2.9825,-2.9691,-2.9138,-2.9083,-2.9898,-2.9186,-2.87,-2.87,-2.8637,-2.8871,-2.9481,-2.9518,-2.9789,-3.0423,-3.0423,-3.0423,-3.0423,-3.0423,-3.0219,-2.9784,-2.898,-2.86,-2.86,-2.86,-2.86,-2.86,-2.86,-2.8448,-2.8215,-2.8215,-2.811,-2.7883,-2.7706,-2.7084,-2.6194,-2.5195,-2.4278,-2.3416,-2.2578,-2.2296,-2.2296,-2.2296,-2.2296,-2.2296,-2.2296,-2.2296,-2.2296,-2.2296,-2.2296,-2.2296,-2.2296,-2.2296,-2.2231,-2.2006,-2.1424,-2.1032,-2.1432,-2.1275,-2.1204,-2.1717,-2.1938,-2.2044,-2.1988,-2.2073,-2.2099,-2.2003,-2.2041,0.0,0.0,-2.2549,-2.2984,-2.3169,-2.3185,-2.3217,0.0,0.0,0.0,0.0,-2.2268,-2.2296,-2.2296,-2.2296,-2.2296,-2.2296,-2.2296,-2.2166,-2.1915,-2.218,-2.2034,-2.1555,-2.1812,-2.1766,-2.1539,-2.1539,-2.1539,-2.1539,-2.1539,-2.1493,-2.1416,-2.1416,-2.1214,-2.0909,-2.0909,-2.0712,-2.0424,-3.487,-3.4908,-3.486,-3.4743,-3.4275,-3.3596,-3.263,-3.224,-3.1434,-2.9702,-2.974,-2.9761,-2.9295,-2.8891,-2.8958,-2.973,-2.9065,-2.86,-2.86,-2.86,-2.8962,-2.9766,-2.9802,-3.0183,-3.098,-3.0998,-3.0998,-3.0998,-3.0998,-3.06,-2.9784,-2.9355,-2.8944,-2.86,-2.86,-2.86,-2.8587,-2.8435,-2.8268,-2.8088,-2.7982,-2.7844,-2.7701,-2.7701,-2.7122,-2.6208,-2.5317,-2.4399,-2.3474,-2.259,-2.2296,-2.2296,-2.2296,-2.2296,-2.2296,-2.2296,-2.2296,-2.2296,-2.2296,-2.2296,-2.2296,-2.2296,-2.2268,-2.224,-2.2214,-2.186,-2.1658,-2.1943,-2.1709,-2.1572,-2.1929,-2.2013,-2.1984,-2.1897,-2.1926,-2.194,-2.1913,-2.1897,0.0,-2.1955,-2.2175,-2.2527,-2.3015,-2.2624,-2.2543,-2.3076,0.0,0.0,-2.22,-2.2254,-2.2296,-2.2296,-2.2296,-2.2296,-2.2296,-2.2152,-2.1991,-2.1812,-2.1827,-2.1646,-2.1308,-2.1478,-2.1462,-2.1308,-2.1308,-2.1308,-2.1308,-2.1308,-2.1214,-2.1071,-2.1071,-2.0877,-2.0561,-2.0561,-2.0458,-2.0304,-3.4792,-3.4792,-3.4723,-3.4486,-3.4197,-3.374,-3.2958,-3.264,-3.1886,-3.0288,-3.0189,-2.9914,-2.9065,-2.8962,-2.9246,-2.9929,-2.9355,-2.8907,-2.8781,-2.8781,-2.9137,-2.9947,-2.9984,-3.0418,-3.1342,-3.1361,-3.1292,-3.1166,-3.1166,-3.0708,-2.9802,-2.9802,-2.9373,-2.86,-2.86,-2.8574,-2.8505,-2.8228,-2.8047,-2.795,-2.7728,-2.758,-2.755,-2.755,-2.6983,-2.6098,-2.5358,-2.4511,-2.3596,-2.275,-2.2465,-2.2448,-2.233,-2.2296,-2.2296,-2.2296,-2.2296,-2.2296,-2.2296,-2.2296,-2.2282,-2.2282,-2.2225,-2.2168,-2.2154,-2.2075,-2.1982,-2.1969,-2.1984,-2.1984,-2.1969,-2.1969,-2.1955,-2.1882,-2.184,-2.1811,-2.1811,0.0,-2.1676,-2.172,-2.1433,-2.1583,-2.2487,-2.176,-2.1631,-2.2597,-2.2142,-2.1868,0.0,-2.208,-2.2106,-2.2092,-2.218,-2.2194,-2.2152,-2.1871,-2.1691,-2.1646,-2.1416,-2.1261,-2.115,-2.1214,-2.1198,-2.115,-2.115,-2.115,-2.115,-2.115,-2.0974,-2.0712,-2.0712,-2.0544,-2.0304,-2.0304,-2.0304,-2.0304,-3.4262,-3.4316,-3.4305,-3.425,-3.3609,-3.2982,-3.2619,-3.2434,-3.1983,-3.1043,-3.1474,-3.1524,-3.0726,-3.0622,-3.0677,-3.0799,-3.0708,-3.0333,-2.9658,-2.9621,-2.9965,-3.0781,-3.0817,-3.1524,-3.2995,-3.3031,-3.2687,-3.1999,-3.1999,-3.1238,-2.9802,-2.9802,-2.9373,-2.86,-2.86,-2.8435,-2.817,-2.8129,-2.7808,-2.7336,-2.7289,-2.7117,-2.6858,-2.6858,-2.674,-2.6503,-2.5774,-2.5403,-2.505,-2.3697,-2.3224,-2.3122,-2.2499,-2.2296,-2.2296,-2.2296,-2.2296,-2.2296,-2.2296,-2.2254,-2.2228,-2.2228,-2.212,-2.203,-2.1957,-2.1969,-2.1969,-2.1855,-2.1884,-2.1913,-2.184,-2.1825,-2.1825,-2.1827,-2.1587,-2.1402,-2.1402,0.0,-2.0958,-2.0958,-2.0925,-2.094,-2.1101,-2.0973,-2.0957,-2.1134,-2.1103,-2.1087,-2.1103,-2.1229,-2.126,-2.1197,-2.1646,-2.1736,-2.1462,-2.1401,-2.1229,-2.0958,-2.1182,-2.1007,-2.046,-2.0761,-2.0712,-2.046,-2.046,-2.046,-2.046,-2.046,-2.0409,-2.039,-2.039,-2.0339,-2.0304,-2.0304,-2.0304,-2.0304,-3.4173,-3.4233,-3.4179,-3.3972,-3.36,-3.3256,-3.3072,-3.2993,-3.2645,-3.1787,-3.1976,-3.1727,-3.0491,-3.0745,-3.0998,-3.0998,-3.1401,-3.1487,-3.1125,-3.069,-3.0817,-3.1614,-3.1636,-3.2198,-3.3375,-3.3393,-3.3212,-3.285,-3.285,-3.2234,-3.1089,-3.0654,-2.9909,-2.8955,-2.8523,-2.8161,-2.7869,-2.7678,-2.7441,-2.7181,-2.7005,-2.6841,-2.6691,-2.6691,-2.6691,-2.659,-2.5862,-2.5592,-2.5439,-2.4372,-2.4,-2.3864,-2.3122,-2.2873,-2.276,-2.2415,-2.2296,-2.2282,-2.2271,-2.2211,-2.2183,-2.2106,-2.2015,-2.194,-2.1913,-2.1899,-2.1884,-2.1811,-2.1825,-2.184,-2.1812,-2.1945,-2.1952,-2.1591,-2.152,0.0,0.0,-2.0893,-2.0794,-2.0794,-2.0613,-2.0562,-2.0778,-2.0613,-2.0579,-2.0778,-2.086,-2.0893,-2.0893,-2.0991,-2.0959,-2.0747,-2.1181,-2.1354,-2.1197,-2.1023,-2.0877,-2.0794,-2.0663,-2.0495,-2.0304,-2.0392,-2.0375,-2.0304,-2.0304,-2.0304,-2.0304,-2.0304,-2.0304,-2.0304,-2.0304,-2.0304,-2.0304,-2.0304,-2.0304,-2.0304,-3.4061,-3.4105,-3.4055,-3.3739,-3.3661,-3.3623,-3.3524,-3.3495,-3.3248,-3.2574,-3.2488,-3.1999,-3.0781,-3.1197,-3.156,-3.156,-3.2125,-3.2488,-3.2488,-3.189,-3.1745,-3.218,-3.2379,-3.2777,-3.3393,-3.3393,-3.3393,-3.3393,-3.3319,-3.2766,-3.1791,-3.1088,-3.0119,-2.8909,-2.8273,-2.7855,-2.7567,-2.7307,-2.7149,-2.7053,-2.6808,-2.6691,-2.6691,-2.6691,-2.6691,-2.6623,-2.6065,-2.5862,-2.5744,-2.5,-2.4762,-2.4626,-2.3898,-2.3498,-2.3218,-2.269,-2.2386,-2.2223,-2.2166,-2.2137,-2.2109,-2.1998,-2.1943,-2.1884,-2.1884,-2.184,-2.1812,-2.1812,-2.1753,-2.1708,-2.1797,-2.1889,-2.181,-2.1374,0.0,0.0,0.0,-2.0579,-2.0529,-2.0529,-2.0275,-2.0206,-2.0512,-2.0258,-2.0206,-2.0512,-2.058,-2.063,-2.063,-2.0681,-2.0614,-2.0345,-2.0665,-2.0845,-2.0845,-2.0581,-2.0512,-2.0611,-2.02,-2.0078,-2.0218,-2.0115,-2.0133,-2.0235,-2.0252,-2.0252,-2.027,-2.0287,-2.0304,-2.0304,-2.027,-2.027,-2.0304,-2.027,-2.027,-2.0304,-3.3675,-3.3698,-3.3712,-3.3615,-3.3549,-3.3506,-3.3509,-3.3452,-3.3375,-3.3321,-3.3302,-3.3266,-3.3158,-3.3194,-3.323,-3.323,-3.3284,-3.3302,-3.3302,-3.3266,-3.2922,-3.2234,-3.2904,-3.3339,-3.3393,-3.3393,-3.3393,-3.3393,-3.3019,-3.2074,-3.0624,-3.0254,-2.927,-2.7815,-2.7763,-2.7552,-2.7228,-2.7213,-2.7021,-2.6725,-2.6708,-2.6691,-2.6691,-2.6691,-2.6691,-2.6691,-2.664,-2.6623,-2.6505,-2.5778,-2.5524,-2.5389,-2.466,-2.3949,-2.3378,-2.3253,-2.2656,-2.2027,-2.2013,-2.1969,-2.1928,-2.1897,-2.1855,-2.1812,-2.1812,-2.1796,-2.1812,-2.1812,-2.1556,-2.1433,-2.1736,-2.131,-2.1005,-2.1262,0.0,0.0,-2.0243,-1.998,-1.978,-1.978,-1.9747,-1.9747,-1.978,-1.9747,-1.9747,-1.978,-1.9797,-1.9782,-1.9782,-1.9836,-1.9887,-1.9851,-1.9993,-2.0078,-2.0078,-2.0061,-2.0058,-2.0058,-2.0023,-2.0005,-2.0023,-2.0023,-2.0023,-2.0041,-2.008,-2.01,-2.0133,-2.0252,-2.0304,-2.0287,-2.0168,-2.0185,-2.0287,-2.0168,-2.0185,-2.0304,-3.3619,-3.3587,-3.3559,-3.3534,-3.3495,-3.3437,-3.3437,-3.3408,-3.3393,-3.3393,-3.3393,-3.3212,-3.2705,-3.3103,-3.3194,-3.2705,-3.3103,-3.3393,-3.3393,-3.3393,-3.3266,-3.2958,-3.3248,-3.3393,-3.3393,-3.3393,-3.3286,-3.3019,-3.2876,-3.2147,-3.091,-3.0291,-2.9343,-2.8107,-2.7606,-2.7195,-2.6891,-2.6891,-2.6825,-2.6691,-2.6691,-2.6691,-2.6691,-2.6691,-2.6691,-2.6691,-2.6691,-2.6691,-2.6657,-2.637,-2.6285,-2.615,-2.5374,-2.4905,-2.4422,-2.336,-2.2512,-2.1926,-2.1899,-2.1899,-2.1899,-2.1855,-2.1811,-2.1812,-2.1812,-2.1648,-2.1495,-2.1495,-2.123,-2.1039,-2.1151,-2.111,-2.0945,-2.066,0.0,-2.0355,-1.995,-1.9782,-1.9708,-1.9708,-1.9708,-1.9708,-1.9708,-1.9708,-1.9708,-1.9708,-1.9708,-1.9708,-1.9708,-1.9726,-1.9744,-1.9744,-1.978,-1.983,-1.9884,-1.9884,-1.9919,-2.0005,-1.9866,-1.9884,-2.0005,-1.9902,-1.9919,-2.0005,-2.0025,-2.0043,-2.0043,-2.0133,-2.015,-2.0113,-2.0098,-2.0098,-2.0113,-2.0061,-2.0061,-2.0113,-3.3589,-3.352,-3.3506,-3.3481,-3.3422,-3.3393,-3.3393,-3.3393,-3.3393,-3.3393,-3.3393,-3.3194,-3.2632,-3.3067,-3.3176,-3.2614,-3.3085,-3.3349,-3.3208,-3.3208,-3.3271,-3.3393,-3.3393,-3.3393,-3.3393,-3.3271,-3.3083,-3.2795,-3.2568,-3.1963,-3.0991,-3.0089,-2.9158,-2.8183,-2.7379,-2.6923,-2.6708,-2.6945,-2.7046,-2.7063,-2.7317,-2.7266,-2.7046,-2.7046,-2.6894,-2.6691,-2.6691,-2.6691,-2.6674,-2.6674,-2.6657,-2.6539,-2.5984,-2.5598,-2.5063,-2.3683,-2.277,-2.2204,-2.2159,-2.1933,-2.1721,-2.1797,-2.1812,-2.1812,-2.1812,-2.1541,-2.1293,-2.1293,-2.0926,-2.0646,-2.0778,-2.0765,-2.062,-2.0268,-2.03,-2.0228,-1.9768,-1.9708,-1.9708,-1.9708,-1.9708,-1.9708,-1.9708,-1.9708,-1.9708,-1.9708,-1.9708,-1.9708,-1.9708,-1.9708,-1.9708,-1.9708,-1.9708,-1.9726,-1.9762,-1.9762,-1.9797,-1.9902,-1.9762,-1.9762,-1.9902,-1.9797,-1.9815,-1.9902,-1.9919,-1.9937,-1.9937,-2.0028,-2.0043,-2.0005,-1.9993,-1.9993,-1.9988,-1.9937,-1.9955,-2.0005,-3.3589,-3.3452,-3.3481,-3.3408,-3.3393,-3.3393,-3.3393,-3.3393,-3.3393,-3.3393,-3.3393,-3.3393,-3.3393,-3.3393,-3.3393,-3.3411,-3.3411,-3.3223,-3.2811,-3.2795,-3.2972,-3.3364,-3.3411,-3.3393,-3.3393,-3.3003,-3.2795,-3.2795,-3.2056,-3.1317,-3.0576,-2.9497,-2.8569,-2.7773,-2.7029,-2.6708,-2.6759,-2.7486,-2.7807,-2.7874,-2.867,-2.8518,-2.7807,-2.7807,-2.7351,-2.6708,-2.6691,-2.6657,-2.6589,-2.6589,-2.6554,-2.6502,-2.6502,-2.5898,-2.5063,-2.433,-2.3534,-2.2907,-2.2891,-2.2113,-2.1388,-2.1706,-2.1781,-2.1781,-2.1781,-2.1541,-2.1293,-2.1293,-2.0713,-2.0311,-2.0728,-2.0187,-1.98,-2.0139,-1.9925,-1.9708,-1.9708,-1.9708,-1.9708,-1.9708,-1.9708,-1.9708,-1.9708,-1.9708,-1.9708,-1.9708,-1.9708,-1.9708,-1.9708,-1.9708,-1.9708,-1.9708,-1.9708,-1.9708,-1.9708,-1.9708,-1.9708,-1.9708,-1.9708,-1.9708,-1.9708,-1.9708,-1.9708,-1.9708,-1.9762,-1.9797,-1.9797,-1.9937,-2.0005,-1.9988,-1.9848,-1.9884,-1.9988,-1.9848,-1.9884,-2.0005,-3.4298,-3.3806,-3.3422,-3.3393,-3.3393,-3.3393,-3.3393,-3.3393,-3.3393,-3.3393,-3.3393,-3.3393,-3.3393,-3.3393,-3.3286,-3.3003,-3.2988,-3.2829,-3.2468,-3.2435,-3.2503,-3.2619,-3.3117,-3.3241,-3.2912,-3.2829,-3.2517,-3.1968,-3.1732,-3.1095,-3.01,-2.9783,-2.895,-2.7719,-2.7553,-2.7469,-2.7486,-2.7705,-2.8146,-2.8653,-2.8908,-2.8857,-2.8569,-2.801,-2.7655,-2.7401,-2.6894,-2.6657,-2.6589,-2.6589,-2.6554,-2.6485,-2.6382,-2.5795,-2.5078,-2.4879,-2.4265,-2.3553,-2.304,-2.2489,-2.1972,-2.1547,-2.1261,-2.1103,-2.1103,-2.0795,-2.0531,-2.0531,-2.0172,-1.9889,-2.0013,-1.9836,-1.9729,-1.9836,-1.9764,-1.9708,-1.9708,-1.9708,-1.9708,-1.9708,-1.9708,-1.9708,-1.9708,-1.9708,-1.9708,-1.9708,-1.9708,-1.9708,-1.9708,-1.9708,-1.9708,-1.9708,-1.9708,-1.9708,-1.9708,-1.9708,-1.9708,-1.9708,-1.9708,-1.9708,-1.9708,-1.9708,-1.9708,-1.9708,-1.9726,-1.9726,-1.9744,-1.9815,-1.983,-1.978,-1.9797,-1.9797,-1.978,-1.9744,-1.9762,-1.978,-3.5062,-3.4443,-3.3882,-3.3882,-3.3882,-3.3773,-3.3447,-3.3665,-3.3755,-3.3447,-3.3393,-3.3349,-3.3178,-3.3162,-3.3003,-3.2651,-3.2417,-3.2299,-3.2231,-3.2056,-3.2021,-3.2162,-3.262,-3.2734,-3.2468,-3.2316,-3.2021,-3.1528,-3.1393,-3.0978,-3.0303,-2.9964,-2.9208,-2.8101,-2.8103,-2.797,-2.7788,-2.8378,-2.8938,-2.9448,-2.9698,-2.9612,-2.9274,-2.846,-2.797,-2.7582,-2.6893,-2.6555,-2.6469,-2.6469,-2.6434,-2.6363,-2.6293,-2.5924,-2.554,-2.554,-2.5011,-2.4249,-2.3375,-2.285,-2.2289,-2.1148,-2.0828,-2.0794,-2.0794,-2.0479,-2.0191,-2.0191,-1.9927,-1.9708,-1.9708,-1.9708,-1.9708,-1.9708,-1.9708,-1.9708,-1.9708,-1.9708,-1.9708,-1.9708,-1.9708,-1.9708,-1.9708,-1.9708,-1.9636,-1.9457,-1.9328,-1.9277,-1.9453,-1.9472,-1.9545,-1.969,-1.9708,-1.9708,-1.9708,-1.9708,-1.9708,-1.9708,-1.9708,-1.9708,-1.9708,-1.9708,-1.9708,-1.9708,-1.9708,-1.9708,-1.9708,-1.9744,-1.9744,-1.9708,-1.9744,-1.9744,-1.9708,-1.9708,-1.9708,-1.9708,-3.5912,-3.5261,-3.4715,-3.4715,-3.4715,-3.4443,-3.3628,-3.4135,-3.4301,-3.3457,-3.3403,-3.3301,-3.2904,-3.2854,-3.2724,-3.2388,-3.1875,-3.1677,-3.1986,-3.1604,-3.1511,-3.1896,-3.1896,-3.1914,-3.1969,-3.1587,-3.1378,-3.1338,-3.1038,-3.0892,-3.0875,-3.0132,-2.9429,-2.8779,-2.8707,-2.8395,-2.7969,-2.9297,-2.9993,-3.0222,-3.0783,-3.0592,-2.9902,-2.9103,-2.8343,-2.7587,-2.6853,-2.6516,-2.6378,-2.6329,-2.6258,-2.6202,-2.6202,-2.6202,-2.6202,-2.6202,-2.5722,-2.4975,-2.3928,-2.3268,-2.2506,-2.0856,-2.0603,-2.0774,-2.0727,-2.0412,-2.0156,-2.0156,-1.9909,-1.9708,-1.9708,-1.9708,-1.9708,-1.9708,-1.9708,-1.9708,-1.9708,-1.9708,-1.969,-1.9654,-1.9654,-1.9654,-1.9654,-1.9654,-1.9475,-1.9082,-1.8707,-1.8688,-1.9082,-1.9101,-1.9273,-1.969,-1.9708,-1.9708,-1.9708,-1.9708,-1.9708,-1.9708,-1.9708,-1.9708,-1.9708,-1.9708,-1.9708,-1.9708,-1.9708,-1.9708,-1.9708,-1.9708,-1.9708,-1.9708,-1.9708,-1.9708,-1.9708,-1.9708,-1.9708,-1.9708,-3.6741,-3.6091,-3.5532,-3.5532,-3.5532,-3.5261,-3.4461,-3.4498,-3.4207,-3.308,-3.3482,-3.3728,-3.3301,-3.3266,-3.3142,-3.2814,-3.1752,-3.1157,-3.1237,-3.1098,-3.1038,-3.1137,-3.1058,-3.0982,-3.1004,-3.1261,-3.1223,-3.0858,-3.0773,-3.0733,-3.0733,-3.0566,-3.0096,-2.9412,-2.944,-2.9379,-2.93,-2.9618,-3.0124,-3.0734,-3.0865,-3.0831,-3.0596,-2.9783,-2.9362,-2.9042,-2.7756,-2.7234,-2.706,-2.6439,-2.6203,-2.6202,-2.6202,-2.6202,-2.6202,-2.6202,-2.6086,-2.5771,-2.4975,-2.422,-2.3433,-2.2472,-2.1479,-2.0588,-2.0046,-1.9871,-1.98,-1.98,-1.9747,-1.9708,-1.9708,-1.9708,-1.9708,-1.9708,-1.9708,-1.9708,-1.9708,-1.9708,-1.9581,-1.9269,-1.9232,-1.9232,-1.9232,-1.9232,-1.9049,-1.8669,-1.8553,-1.8688,-1.9082,-1.9101,-1.9273,-1.969,-1.9708,-1.9708,-1.9708,-1.9708,-1.9708,-1.9708,-1.9708,-1.9708,-1.9708,-1.9708,-1.9708,-1.9708,-1.9708,-1.9708,-1.9708,-1.9708,-1.9708,-1.9708,-1.9708,-1.9708,-1.9708,-1.9708,-1.9708,-1.9708,-3.7451,-3.6906,-3.6363,-3.6363,-3.6363,-3.6027,-3.5002,-3.515,-3.4981,-3.3756,-3.397,-3.4093,-3.3726,-3.3633,-3.3285,-3.2528,-3.1813,-3.124,-3.0871,-3.0753,-3.0712,-3.0712,-3.0651,-3.0609,-3.0609,-3.0861,-3.0845,-3.0609,-3.0609,-3.0609,-3.0609,-3.0609,-3.0211,-2.951,-2.9919,-2.9912,-2.9688,-3.0039,-3.0463,-3.0892,-3.0831,-3.0794,-3.0727,-2.9879,-2.9556,-2.9376,-2.7927,-2.7158,-2.6755,-2.6336,-2.6202,-2.6202,-2.6202,-2.6202,-2.6202,-2.6202,-2.6202,-2.6001,-2.5101,-2.4616,-2.4074,-2.2864,-2.2106,-2.1395,-2.0408,-1.9929,-1.9708,-1.9708,-1.9708,-1.9708,-1.9708,-1.9708,-1.9708,-1.9708,-1.9708,-1.9636,-1.9453,-1.9402,-1.9254,-1.886,-1.8803,-1.8803,-1.8803,-1.8611,-1.8383,-1.8187,-1.7988,-1.8147,-1.8784,-1.8803,-1.9087,-1.969,-1.9708,-1.9708,-1.9708,-1.9708,-1.9708,-1.9708,-1.9708,-1.9708,-1.9708,-1.9708,-1.9708,-1.9708,-1.9708,-1.9708,-1.9708,-1.9708,-1.9708,-1.9708,-1.9708,-1.9708,-1.9708,-1.9708,-1.9708,-1.9708,-3.7772,-3.7444,-3.6994,-3.6994,-3.6994,-3.6569,-3.5384,-3.5759,-3.5757,-3.4576,-3.4501,-3.4453,-3.4091,-3.3949,-3.3345,-3.2102,-3.1871,-3.1491,-3.0742,-3.0568,-3.0506,-3.0506,-3.0506,-3.0506,-3.0506,-3.0506,-3.0506,-3.0506,-3.0506,-3.0506,-3.0506,-3.0506,-3.0174,-2.9612,-3.0224,-3.022,-2.9789,-3.0323,-3.0651,-3.0794,-3.063,-3.0593,-3.0584,-2.9851,-2.9579,-2.9413,-2.8127,-2.7181,-2.6584,-2.6584,-2.6501,-2.6402,-2.6402,-2.6301,-2.6202,-2.6202,-2.6202,-2.5999,-2.5124,-2.4949,-2.4638,-2.3125,-2.2771,-2.2505,-2.131,-2.0423,-1.9872,-1.9872,-1.9783,-1.9708,-1.9708,-1.9708,-1.9708,-1.9708,-1.9654,-1.949,-1.9139,-1.9045,-1.8841,-1.8422,-1.8383,-1.8383,-1.8383,-1.8028,-1.7787,-1.7787,-1.7496,-1.7659,-1.8461,-1.8572,-1.894,-1.969,-1.9708,-1.9708,-1.9708,-1.9708,-1.9708,-1.9708,-1.9708,-1.9708,-1.9708,-1.9708,-1.9708,-1.9708,-1.9708,-1.9708,-1.969,-1.9636,-1.9654,-1.969,-1.9636,-1.9654,-1.9708,-1.9708,-1.9708,-1.9708,-3.7038,-3.7004,-3.6916,-3.6916,-3.6916,-3.6613,-3.5745,-3.5709,-3.5365,-3.4226,-3.4516,-3.4706,-3.4298,-3.4196,-3.3565,-3.2131,-3.1871,-3.1491,-3.0742,-3.0568,-3.0506,-3.0506,-3.0506,-3.0506,-3.0506,-3.0506,-3.0506,-3.0506,-3.0506,-3.0506,-3.0506,-3.0506,-3.0456,-3.0357,-3.0456,-3.046,-3.0357,-3.0043,-3.0156,-3.0526,-3.0092,-3.0156,-3.051,-3.039,-3.0357,-3.0241,-2.9397,-2.8671,-2.8094,-2.8094,-2.768,-2.7149,-2.7149,-2.67,-2.6202,-2.6202,-2.6202,-2.6169,-2.6016,-2.5709,-2.5284,-2.4685,-2.3869,-2.3085,-2.2545,-2.1455,-2.0554,-2.0554,-2.0094,-1.9708,-1.9708,-1.9708,-1.9708,-1.9708,-1.9417,-1.9157,-1.9101,-1.8803,-1.8403,-1.7948,-1.7888,-1.7888,-1.7888,-1.7828,-1.7787,-1.7787,-1.776,-1.7948,-1.8461,-1.8822,-1.9232,-1.969,-1.9708,-1.9708,-1.9708,-1.9708,-1.9708,-1.9708,-1.9708,-1.9708,-1.9708,-1.9708,-1.9708,-1.9708,-1.9708,-1.9708,-1.9672,-1.9325,-1.9398,-1.9672,-1.9325,-1.9398,-1.9708,-1.9708,-1.9708,-1.9708,-3.686,-3.69,-3.69,-3.69,-3.69,-3.6698,-3.6125,-3.6032,-3.5745,-3.493,-3.5077,-3.5131,-3.4886,-3.4783,-3.4234,-3.3084,-3.2957,-3.2414,-3.1286,-3.116,-3.0936,-3.0522,-3.0506,-3.0506,-3.0506,-3.0506,-3.0506,-3.0506,-3.0506,-3.0506,-3.0506,-3.0506,-3.0506,-3.0506,-3.0506,-3.0506,-3.0506,-3.0279,-3.0321,-3.0468,-3.0262,-3.0074,-2.9926,-3.034,-3.0241,-2.9827,-2.9512,-2.8969,-2.8392,-2.8392,-2.8177,-2.7845,-2.7415,-2.7083,-2.6717,-2.6318,-2.6202,-2.6202,-2.6202,-2.5682,-2.5121,-2.4942,-2.4168,-2.3413,-2.3254,-2.2473,-2.171,-2.1335,-2.0737,-2.0258,-2.0258,-1.9944,-1.9708,-1.9708,-1.9347,-1.9026,-1.8803,-1.8383,-1.7948,-1.7516,-1.7455,-1.7455,-1.7455,-1.7679,-1.7787,-1.7787,-1.8028,-1.8383,-1.8803,-1.9007,-1.9273,-1.969,-1.9708,-1.9708,-1.9708,-1.9708,-1.9708,-1.9708,-1.9472,-1.9475,-1.9708,-1.9708,-1.9708,-1.9708,-1.9708,-1.9581,-1.9362,-1.9176,-1.9213,-1.9362,-1.9176,-1.9362,-1.9708,-1.9708,-1.9708,-1.9708]},{"header":{"parameterUnit":"m.s-1","parameterCategory":1,"la1":30.6,"la2":28.766,"lo1":-90.7593,"lo2":-88.6598,"dy":0.0162,"dx":0.0183,"nx":116,"ny":114,"refTime":"2024-06-01T06:00:00:Z","depth":0,"parameterNumber":3,"parameterNumberName":"V-component_of_WINDS"},"data":[0.0,0.0,0.0,0.0,0.0,0.0,0.0,0.0,0.0,0.0,0.0,0.0,0.0,0.0,0.0,0.0,0.0,0.0,0.0,0.0,0.0,0.0,0.0,0.0,0.0,0.0,0.0,0.0,0.0,0.0,0.0,0.0,0.0,0.0,0.0,0.0,0.0,0.0,0.0,0.0,0.0,0.0,0.0,0.0,0.0,0.0,0.0,0.0,0.0,0.0,0.0,0.0,0.0,0.0,0.0,0.0,0.0,0.0,0.0,0.0,0.0,0.0,0.0,0.0,0.0,0.0,0.0,0.0,0.0,0.0,0.0,0.0,0.0,0.0,0.0,0.0,0.0,0.0,0.0,0.0,0.0,0.0,0.0,0.0,0.0,0.0,0.0,0.0,0.0,0.0,0.0,0.0,0.0,0.0,0.0,0.0,0.0,0.0,0.0,0.0,0.0,0.0,0.0,0.0,0.0,0.0,0.0,0.0,0.0,0.0,0.0,0.0,0.0,0.0,0.0,0.0,0.0,0.0,0.0,0.0,0.0,0.0,0.0,0.0,0.0,0.0,0.0,0.0,0.0,0.0,0.0,0.0,0.0,0.0,0.0,0.0,0.0,0.0,0.0,0.0,0.0,0.0,0.0,0.0,0.0,0.0,0.0,0.0,0.0,0.0,0.0,0.0,0.0,0.0,0.0,0.0,0.0,0.0,0.0,0.0,0.0,0.0,0.0,0.0,0.0,0.0,0.0,0.0,0.0,0.0,0.0,0.0,0.0,0.0,0.0,0.0,0.0,0.0,0.0,0.0,0.0,0.0,0.0,0.0,0.0,0.0,0.0,0.0,0.0,0.0,0.0,0.0,0.0,0.0,0.0,0.0,0.0,0.0,0.0,0.0,0.0,0.0,0.0,0.0,0.0,0.0,0.0,0.0,0.0,0.0,0.0,0.0,0.0,0.0,0.0,0.0,0.0,0.0,0.0,0.0,0.0,0.0,0.0,0.0,0.0,0.0,0.0,0.0,0.0,0.0,0.0,0.0,0.0,0.0,0.0,0.0,0.0,0.0,0.0,0.0,0.0,0.0,0.0,0.0,0.0,0.0,0.0,0.0,0.0,0.0,0.0,0.0,0.0,0.0,0.0,0.0,0.0,0.0,0.0,0.0,0.0,0.0,0.0,0.0,0.0,0.0,0.0,0.0,0.0,0.0,0.0,0.0,0.0,0.0,0.0,0.0,0.0,0.0,0.0,0.0,0.0,0.0,0.0,0.0,0.0,0.0,0.0,0.0,0.0,0.0,0.0,0.0,0.0,0.0,0.0,0.0,0.0,0.0,0.0,0.0,0.0,0.0,0.0,0.0,0.0,0.0,0.0,0.0,0.0,0.0,0.0,0.0,0.0,0.0,0.0,0.0,0.0,0.0,0.0,0.0,0.0,0.0,0.0,0.0,0.0,0.0,0.0,0.0,0.0,0.0,0.0,0.0,0.0,0.0,0.0,0.0,0.0,0.0,0.0,0.0,0.0,0.0,0.0,0.0,0.0,0.0,0.0,0.0,0.0,0.0,0.0,0.0,0.0,0.0,0.0,0.0,0.0,0.0,0.0,0.0,0.0,0.0,0.0,0.0,0.0,0.0,0.0,0.0,0.0,0.0,0.0,0.0,0.0,0.0,0.0,0.0,0.0,0.0,0.0,0.0,0.0,0.0,0.0,0.0,0.0,0.0,0.0,0.0,0.0,0.0,0.0,0.0,0.0,0.0,0.0,0.0,0.0,0.0,0.0,0.0,0.0,0.0,0.0,0.0,0.0,0.0,0.0,0.0,0.0,0.0,0.0,0.0,0.0,0.0,0.0,0.0,0.0,0.0,0.0,0.0,0.0,0.0,0.0,0.0,0.0,0.0,0.0,0.0,0.0,0.0,0.0,0.0,0.0,0.0,0.0,0.0,0.0,0.0,0.0,0.0,0.0,0.0,0.0,0.0,0.0,0.0,0.0,0.0,0.0,0.0,0.0,0.0,0.0,0.0,0.0,0.0,0.0,0.0,0.0,0.0,0.0,0.0,0.0,0.0,0.0,0.0,0.0,0.0,0.0,0.0,0.0,0.0,0.0,0.0,0.0,0.0,0.0,0.0,0.0,0.0,0.0,0.0,0.0,0.0,0.0,0.0,0.0,0.0,0.0,0.0,0.0,0.0,0.0,0.0,0.0,0.0,0.0,0.0,0.0,0.0,0.0,0.0,0.0,0.0,0.0,0.0,0.0,0.0,0.0,0.0,0.0,0.0,0.0,0.0,0.0,0.0,0.0,0.0,0.0,0.0,0.0,0.0,0.0,0.0,0.0,0.0,0.0,0.0,0.0,0.0,0.0,0.0,0.0,0.0,0.0,0.0,0.0,0.0,0.0,0.0,0.0,0.0,0.0,0.0,0.0,0.0,0.0,0.0,0.0,0.0,0.0,0.0,0.0,0.0,0.0,0.0,0.0,0.0,0.0,0.0,0.0,0.0,0.0,0.0,0.0,0.0,0.0,0.0,0.0,0.0,0.0,0.0,0.0,0.0,0.0,0.0,0.0,0.0,0.0,0.0,0.0,0.0,0.0,0.0,0.0,0.0,0.0,0.0,0.0,0.0,0.0,0.0,0.0,0.0,0.0,0.0,0.0,0.0,0.0,0.0,0.0,0.0,0.0,0.0,0.0,0.0,0.0,0.0,0.0,0.0,0.0,0.0,0.0,0.0,0.0,0.0,0.0,0.0,0.0,0.0,0.0,0.0,0.0,0.0,0.0,0.0,0.0,0.0,0.0,0.0,0.0,0.0,0.0,0.0,0.0,0.0,0.0,0.0,0.0,0.0,0.0,0.0,0.0,0.0,0.0,0.0,0.0,0.0,0.0,0.0,0.0,0.0,0.0,0.0,0.0,0.0,0.0,0.0,0.0,0.0,0.0,0.0,0.0,0.0,0.0,0.0,0.0,0.0,0.0,0.0,0.0,0.0,0.0,0.0,0.0,0.0,0.0,0.0,0.0,0.0,0.0,0.0,0.0,0.0,0.0,0.0,0.0,0.0,0.0,0.0,0.0,0.0,0.0,0.0,0.0,0.0,0.0,0.0,0.0,0.0,0.0,0.0,0.0,0.0,0.0,0.0,0.0,0.0,0.0,0.0,0.0,0.0,0.0,0.0,0.0,0.0,0.0,0.0,0.0,0.0,0.0,0.0,0.0,0.0,0.0,0.0,0.0,0.0,0.0,0.0,0.0,0.0,0.0,0.0,0.0,0.0,0.0,0.0,0.0,0.0,0.0,0.0,0.0,0.0,0.0,0.0,0.0,0.0,0.0,0.0,0.0,0.0,0.0,0.0,0.0,0.0,0.0,0.0,0.0,0.0,0.0,0.0,0.0,0.0,0.0,0.0,0.0,0.0,0.0,0.0,0.0,0.0,0.0,0.0,0.0,0.0,0.0,0.0,0.0,0.0,0.0,0.0,0.0,0.0,0.0,0.0,0.0,0.0,0.0,0.0,0.0,0.0,0.0,0.0,0.0,0.0,0.0,0.0,0.0,0.0,0.0,0.0,0.0,0.0,0.0,0.0,0.0,0.0,0.0,0.0,0.0,0.0,0.0,0.0,0.0,0.0,0.0,0.0,0.0,0.0,0.0,0.0,0.0,0.0,0.0,0.0,0.0,0.0,0.0,0.0,0.0,0.0,0.0,0.0,0.0,0.0,0.0,0.0,0.0,0.0,0.0,0.0,0.0,0.0,0.0,0.0,0.0,0.0,0.0,0.0,0.0,0.0,0.0,0.0,0.0,0.0,0.0,0.0,0.0,0.0,0.0,0.0,0.0,0.0,0.0,0.0,0.0,0.0,0.0,0.0,0.0,0.0,0.0,0.0,0.0,0.0,0.0,0.0,0.0,0.0,0.0,0.0,0.0,0.0,0.0,0.0,0.0,0.0,0.0,0.0,0.0,0.0,0.0,0.0,0.0,0.0,0.0,0.0,0.0,0.0,0.0,0.0,0.0,0.0,0.0,0.0,0.0,0.0,0.0,0.0,0.0,0.0,0.0,0.0,0.0,0.0,0.0,0.0,0.0,0.0,0.0,0.0,0.0,0.0,0.0,0.0,0.0,0.0,0.0,0.0,0.0,0.0,0.0,0.0,0.0,0.0,0.0,0.0,0.0,0.0,0.0,0.0,0.0,0.0,0.0,0.0,0.0,0.0,0.0,0.0,0.0,0.0,0.0,0.0,0.0,0.0,0.0,0.0,0.0,0.0,0.0,0.0,0.0,0.0,0.0,0.0,0.0,0.0,0.0,0.0,0.0,0.0,0.0,0.0,0.0,0.0,0.0,0.0,0.0,0.0,0.0,0.0,0.0,0.0,0.0,0.0,0.0,0.0,0.0,0.0,0.0,0.0,0.0,0.0,0.0,0.0,0.0,0.0,0.0,0.0,0.0,0.0,0.0,0.0,0.0,0.0,0.0,0.0,0.0,0.0,0.0,0.0,0.0,0.0,0.0,0.0,0.0,0.0,0.0,0.0,0.0,0.0,0.0,0.0,0.0,0.0,0.0,0.0,0.0,0.0,0.0,0.0,0.0,0.0,0.0,0.0,0.0,0.0,0.0,0.0,0.0,0.0,0.0,0.0,0.0,0.0,0.0,0.0,0.0,0.0,0.0,0.0,0.0,0.0,0.0,0.0,0.0,0.0,0.0,0.0,0.0,0.0,0.0,0.0,0.0,0.0,0.0,0.0,0.0,0.0,0.0,0.0,0.0,0.0,0.0,0.0,0.0,0.0,0.0,0.0,0.0,0.0,0.0,0.0,0.0,0.0,0.0,0.0,0.0,0.0,0.0,0.0,0.0,0.0,0.0,0.0,0.0,0.0,0.0,0.0,0.0,0.0,0.0,0.0,0.0,0.0,0.0,0.0,0.0,0.0,0.0,0.0,0.0,0.0,0.0,0.0,0.0,0.0,0.0,0.0,0.0,0.0,0.0,0.0,0.0,0.0,0.0,0.0,0.0,0.0,0.0,0.0,0.0,0.0,0.0,0.0,0.0,0.0,0.0,0.0,0.0,0.0,0.0,0.0,0.0,0.0,0.0,0.0,0.0,0.0,0.0,0.0,0.0,0.0,0.0,0.0,0.0,0.0,0.0,0.0,0.0,0.0,0.0,0.0,0.0,0.0,0.0,0.0,0.0,0.0,0.0,0.0,0.0,0.0,0.0,0.0,0.0,0.0,0.0,0.0,0.0,0.0,0.0,0.0,0.0,0.0,0.0,0.0,0.0,0.0,0.0,0.0,0.0,0.0,0.0,0.0,0.0,0.0,0.0,0.0,0.0,0.0,0.0,0.0,0.0,0.0,0.0,0.0,0.0,0.0,0.0,0.0,0.0,0.0,0.0,0.0,0.0,0.0,0.0,0.0,0.0,0.0,0.0,0.0,0.0,0.0,0.0,0.0,0.0,0.0,0.0,0.0,0.0,0.0,0.0,0.0,0.0,0.0,0.0,0.0,0.0,0.0,0.0,0.0,0.0,0.0,0.0,0.0,0.0,0.0,0.0,0.0,0.0,0.0,0.0,0.0,0.0,0.0,0.0,0.0,0.0,0.0,0.0,0.0,0.0,0.0,0.0,0.0,0.0,0.0,0.0,0.0,0.0,0.0,0.0,0.0,0.0,0.0,0.0,0.0,0.0,0.0,0.0,0.0,0.0,0.0,0.0,0.0,0.0,0.0,0.0,0.0,0.0,0.0,0.0,0.0,0.0,0.0,0.0,0.0,0.0,0.0,0.0,0.0,0.0,0.0,0.0,0.0,0.0,0.0,0.0,0.0,0.0,0.0,0.0,0.0,0.0,0.0,0.0,0.0,0.0,0.0,0.0,0.0,0.0,0.0,0.0,0.0,0.0,0.0,0.0,0.0,0.0,0.0,0.0,0.0,0.0,0.0,0.0,0.0,0.0,0.0,0.0,0.0,0.0,0.0,0.0,0.0,0.0,0.0,0.0,0.0,0.0,0.0,0.0,0.0,0.0,0.0,0.0,0.0,0.0,0.0,0.0,0.0,0.0,0.0,0.0,0.0,0.0,0.0,0.0,0.0,0.0,0.0,0.0,0.0,0.0,0.0,0.0,0.0,0.432,0.0,0.0,0.0,0.0,0.0,0.0,0.0,0.0,0.0,0.0,0.0,0.0,0.0,0.0,0.0,0.0,0.0,0.0,0.0,0.0,0.0,0.0,0.0,0.0,0.0164,0.0205,0.002,0.0585,0.0865,0.061,0.0,0.0,0.0,0.0,0.0,-0.0742,-0.065,-0.0425,-0.002,0.0611,0.1198,0.171,0.1126,0.0278,-0.0763,0.0,0.0,0.0,0.0,0.0,0.0,0.0,0.0,0.0,0.0,0.0,0.0,0.0,0.0,0.0,0.0,0.0,0.0,0.0,0.0,0.0,0.0,0.0,0.0,0.0,0.0,0.0,0.0,0.0,0.0,0.0,0.0,0.0,0.0,0.0,0.0,0.0,0.0,0.0,0.0,0.0,0.0,0.0,0.0,0.0,0.0,0.0,0.0,0.0,0.0,0.0,0.0,0.0,0.0,0.0,0.0,0.0,0.0,0.0,0.0,0.0,0.0,0.0,0.0,0.0,0.0,0.0,0.0,0.0,0.0,0.0,0.442,0.0,0.0,0.0,0.0,0.0,0.0,0.0,0.0,0.0,0.0,0.0,0.0,0.0,0.0,0.0,0.0,0.0,0.0,0.0,0.0,0.0,0.0138,0.0241,0.0598,0.0692,0.0348,0.1254,0.1666,0.1238,0.1624,0.0,0.0,0.0,0.0331,-0.0233,-0.0164,0.0251,0.099,0.145,0.2009,0.265,0.2551,0.1642,0.0081,-0.01,0.0,0.0,0.0,0.0,0.0,0.0,0.0,0.0,0.0,0.0,0.0,0.0,0.0,0.0,0.0,0.0,0.0,0.0,0.0,0.0,0.0,0.0,0.0,0.0,0.0,0.0,0.0,0.0,0.0,0.0,0.0,0.0,0.0,0.0,0.0,0.0,0.0,0.0,0.0,0.0,0.0,0.0,0.0,0.0,0.0,0.0,0.0,0.0,0.0,0.0,0.0,0.0,0.0,0.0,0.0,0.0,0.0,0.0,0.0,0.0,0.0,0.0,0.0,0.5593,0.5586,0.5481,0.5691,0.5725,0.5583,0.5491,0.5095,0.452,0.0,0.0,0.0,0.0,0.0,0.0,0.0,0.0,0.0,0.0,0.0,0.0,0.0,0.0,0.0,0.0,0.0,0.0,0.0,0.0,0.1015,0.12,0.1278,0.1386,0.1548,0.1824,0.1999,0.2029,0.212,0.0,0.0,0.1481,0.135,0.115,0.1102,0.1441,0.2168,0.2863,0.3208,0.32,0.3307,0.2879,0.1991,0.1054,0.0244,-0.0413,0.0,0.0,0.0,0.0,0.0,0.0,0.0,0.0,0.0,0.0,0.0,0.0,0.0,0.0,0.0,0.0,0.0,0.0,0.0,0.0,0.0,0.0,0.0,0.0,0.0,0.0,0.0,0.0,0.0,0.0,0.0,0.0,0.0,0.0,0.0,0.0,0.0,0.0,0.0,0.0,0.0,0.6592,0.6744,0.0,0.0,0.0,0.0,0.0,0.0,0.0,0.0,0.0,0.0,0.0,0.0,0.0,0.0,0.6005,0.6514,0.6443,0.5745,0.5898,0.5891,0.5745,0.5783,0.5725,0.5589,0.5569,0.0,0.5421,0.5421,0.0,0.0,0.0,0.0,0.0,0.0,0.0,0.0,0.0,0.0,0.0,0.0,0.0,0.0,0.0,0.0,0.0,0.0,0.0,0.0,0.0,0.2023,0.2308,0.2363,0.2973,0.3185,0.2836,0.3028,0.2923,0.2406,0.2383,0.2246,0.192,0.2213,0.2706,0.3402,0.3851,0.4032,0.3976,0.3852,0.3463,0.2891,0.2343,0.1573,0.0659,0.0588,0.0,0.0,0.0,0.0,0.0,0.0,0.0,0.0,0.0,0.0,0.0,0.0,0.0,0.0,0.0,0.0,0.0,0.0,0.0,0.0,0.0,0.0,0.0,0.0,0.0,0.0,0.0,0.0,0.0,0.0,0.0,0.0,0.0,0.0,0.0,0.0,0.0,0.0,0.0,0.7427,0.7369,0.7497,0.724,0.7121,0.0,0.0,0.0,0.0,0.0,0.0,0.0,0.0,0.0,0.7279,0.7541,0.7551,0.7277,0.7526,0.75,0.7145,0.7338,0.7329,0.7153,0.689,0.662,0.6381,0.6106,0.5904,0.5701,0.5623,0.5535,0.5395,0.0,0.0,0.0,0.0,0.0,0.4186,0.0,0.0,0.0,0.0,0.0,0.0,0.0,0.0,0.0,0.0,0.0,0.0,0.2528,0.3108,0.3474,0.3516,0.425,0.4451,0.3829,0.4112,0.4031,0.3441,0.3354,0.3207,0.3029,0.3456,0.3939,0.4424,0.4425,0.4433,0.4429,0.4141,0.3801,0.3421,0.3388,0.2783,0.1758,0.1556,0.1206,0.0775,0.0,0.0,0.0,0.0,0.0,0.0,0.0,0.0,0.0,0.0,0.0,0.0,0.0,0.0,0.0,0.0,0.0,0.0,0.0,0.0,0.0,0.0,0.0,0.0,0.0,0.0,0.0,0.0,0.0,0.0,0.0,0.0,0.0,0.0,0.0,0.0,0.0,0.8346,0.83,0.83,0.8093,0.8016,0.0,0.0,0.0,0.0,0.0,0.0,0.7469,0.7792,0.8053,0.8141,0.8389,0.8454,0.8395,0.861,0.8495,0.801,0.8167,0.8052,0.7694,0.7309,0.6966,0.6733,0.6362,0.6047,0.5793,0.5688,0.5555,0.545,0.5409,0.5395,0.5395,0.5395,0.5022,0.449,0.0,0.0,0.0,0.0,0.0,0.0,0.0,0.0,0.0,0.0,0.0,0.3864,0.4561,0.4686,0.4907,0.5423,0.5508,0.5424,0.512,0.5301,0.514,0.4536,0.4284,0.439,0.4959,0.4997,0.5014,0.506,0.4482,0.4207,0.4204,0.4068,0.3917,0.3792,0.4031,0.3559,0.2517,0.2068,0.1893,0.1868,0.1343,0.0,0.0,0.0,0.0,0.0,0.0,0.0,0.0,0.0,0.0,0.0,0.0,0.0,0.0,0.0,0.0,0.0,0.0,0.0,0.0,0.0,0.0,0.0,0.0,0.0,0.0,0.0,0.0,0.0,0.0,0.0,0.0,0.0,0.0,0.0,0.0,0.0,0.0,0.941,0.939,0.0,0.0,0.0,0.0,0.7979,0.9299,0.9713,0.8669,0.9597,1.0002,0.9712,1.0482,1.0285,0.8963,0.9796,0.9285,0.7532,0.754,0.7161,0.6384,0.6173,0.6067,0.6054,0.6034,0.5949,0.58,0.5793,0.5705,0.5562,0.545,0.5395,0.5395,0.5395,0.5388,0.5249,0.0,0.0,0.0,0.0,0.0,-0.0235,0.0783,0.1708,0.2485,0.3012,0.4127,0.5024,0.5462,0.6084,0.6647,0.704,0.6838,0.6597,0.6363,0.602,0.5659,0.5259,0.5153,0.5448,0.6188,0.5644,0.5603,0.6134,0.5056,0.4523,0.452,0.4063,0.3894,0.3943,0.4031,0.3966,0.3731,0.3346,0.2983,0.2596,0.2154,0.1862,0.0,0.0,0.0,0.0,0.0,0.0,0.0,0.0,0.0,0.0,0.0,0.0,0.0,0.0,0.0,0.0,0.0,0.0,0.0,0.0,0.0,0.0,0.0,0.0,0.0,0.0,0.0,0.0,0.0,0.0,0.0,0.0,0.0,0.0,0.0,0.0,0.0,0.9763,1.0208,0.0,0.9907,0.9873,0.9645,0.9105,0.9604,0.9698,0.9247,0.9977,1.0435,1.0527,1.1138,1.1207,1.06,1.1087,1.0807,0.9825,0.9306,0.8894,0.8585,0.7453,0.6908,0.6734,0.6359,0.6091,0.5939,0.584,0.5718,0.5586,0.5532,0.5481,0.5395,0.5395,0.5395,0.5292,0.0,0.0,0.0,0.0,-0.047,0.01,0.1381,0.2317,0.3147,0.3911,0.5246,0.6321,0.6758,0.7506,0.8114,0.8448,0.8118,0.7757,0.7461,0.7091,0.6715,0.6395,0.63,0.6477,0.6901,0.6135,0.6018,0.6561,0.5438,0.4783,0.4614,0.4206,0.397,0.3905,0.3985,0.417,0.4396,0.421,0.385,0.3326,0.2846,0.2554,0.2378,0.0,0.0,0.0,0.0,0.0,0.0,0.0,0.0,0.0,0.0,0.0,0.0,0.0,0.0,0.0,0.0,0.0,0.0,0.0,0.0,0.0,0.0,0.0,0.0,0.0,0.0,0.0,0.0,0.0,0.0,0.0,0.0,0.0,0.0,0.0,1.0003,0.9913,1.0521,1.0846,1.046,1.0449,1.0314,1.0003,1.026,1.0359,1.011,1.0726,1.1245,1.1502,1.1846,1.1905,1.1627,1.1796,1.1492,1.07,0.9873,0.9349,0.9041,0.771,0.7038,0.6859,0.6482,0.6242,0.6098,0.6,0.5871,0.5725,0.5572,0.5518,0.5467,0.5416,0.5395,0.5292,0.0,0.0,0.0,-0.0622,-0.0201,0.0516,0.1916,0.2992,0.4087,0.53,0.6618,0.777,0.8569,0.8955,0.9291,0.9605,0.9264,0.8841,0.8371,0.8527,0.8419,0.7946,0.774,0.7479,0.7135,0.6549,0.6273,0.6328,0.5579,0.4973,0.4536,0.4447,0.4162,0.3748,0.3977,0.4213,0.4404,0.4529,0.4398,0.4062,0.3402,0.3089,0.3054,0.0,0.0,0.0,0.0,0.0,0.0,0.0,0.0,0.0,0.0,0.0,0.0,0.0,0.0,0.0,0.0,0.0,0.0,0.0,0.0,0.0,0.0,0.0,0.0,0.0,0.0,0.0,0.0,0.0,0.0,0.0,0.0,0.0,0.9119,0.9799,1.0202,0.9995,1.0423,1.0743,1.0743,1.0979,1.0948,1.0541,1.1351,1.1726,1.1335,1.194,1.2445,1.2711,1.2735,1.2487,1.191,1.1916,1.1252,0.9943,0.9132,0.8331,0.7565,0.6721,0.6338,0.6338,0.63,0.63,0.63,0.6293,0.6169,0.5956,0.5586,0.5501,0.5572,0.5457,0.5399,0.5292,0.0,0.0,-0.1007,-0.0268,0.0383,0.1278,0.2692,0.3837,0.5052,0.645,0.7926,0.9147,0.9901,1.0154,1.0307,1.0386,0.9976,0.9543,0.9113,0.9243,0.9081,0.851,0.8331,0.8166,0.7966,0.7385,0.7091,0.7096,0.6063,0.5514,0.5426,0.4736,0.4381,0.4334,0.4177,0.4174,0.4327,0.4379,0.438,0.4371,0.4039,0.3762,0.3569,0.0,0.0,0.0,0.0,0.0,0.0,0.0,0.0,0.0,0.0,0.0,0.0,0.0,0.0,0.0,0.0,0.0,0.0,0.0,0.0,0.0,0.0,0.0,0.0,0.0,0.0,0.0,0.0,0.0,0.0,0.0,0.0,0.9468,0.9654,1.0033,1.0514,1.1058,1.1236,1.1456,1.1891,1.1534,1.1191,1.1072,1.1324,1.1485,1.1582,1.2248,1.2723,1.3,1.3375,1.3224,1.2493,1.265,1.2302,1.1343,1.0334,0.9743,0.9466,0.7885,0.7176,0.7138,0.6567,0.63,0.6289,0.6139,0.6135,0.6173,0.5939,0.5742,0.5586,0.5542,0.5491,0.5362,0.0,-0.1795,-0.1208,-0.0352,0.0516,0.1603,0.3098,0.4363,0.5755,0.7432,0.8688,0.9777,1.0659,1.0754,1.0738,1.0738,1.0485,1.0123,0.9634,0.968,0.9657,0.95,0.9039,0.87,0.8516,0.7813,0.7433,0.739,0.6529,0.605,0.5867,0.5188,0.4797,0.4666,0.4342,0.4236,0.4294,0.4294,0.4333,0.4413,0.4345,0.4277,0.4221,0.4196,0.418,0.4177,0.418,0.4155,0.4179,0.4624,0.0,0.0,0.0,0.0,0.0,0.0,0.0,0.0,0.0,0.0,0.0,0.0,0.0,0.0,0.0,0.0,0.0,0.0,0.0,0.0,0.0,0.0,0.0,0.0,0.9885,1.0098,1.088,1.0921,1.1045,1.153,1.165,1.1935,1.2518,1.1949,1.1606,1.1712,1.1817,1.1998,1.2256,1.2768,1.3218,1.3604,1.3803,1.3574,1.2886,1.2922,1.256,1.188,1.0819,1.0305,1.0261,0.8721,0.7825,0.0,0.7026,0.6606,0.6293,0.6162,0.6179,0.0,0.0,0.0,0.0,0.0,0.547,0.5395,0.0,-0.2178,-0.1644,-0.0655,0.0449,0.1742,0.33,0.4752,0.6347,0.8223,0.9156,1.0043,1.1103,1.1003,1.0866,1.0866,1.0857,1.0647,1.0184,1.0067,1.0197,1.0581,0.9765,0.9168,0.8861,0.8067,0.7586,0.7475,0.7005,0.6547,0.6103,0.568,0.5275,0.4867,0.4469,0.4294,0.4294,0.4294,0.4294,0.431,0.4428,0.4597,0.4796,0.4978,0.509,0.5126,0.524,0.5203,0.5137,0.5272,0.0,0.0,0.0,0.0,0.0,0.0,0.0,0.0,0.0,0.0,0.0,0.0,0.0,0.0,0.0,0.0,0.0,0.0,0.0,0.0,0.0,0.0,0.0,0.0,1.0675,1.1026,1.2346,1.2131,1.1846,1.1846,1.2025,1.2339,1.2864,1.2384,1.217,1.2379,1.262,1.2886,1.3149,0.0,0.0,0.0,0.0,1.3652,1.3133,1.2874,1.2499,1.1964,1.0948,1.0466,1.0455,0.9346,0.8432,0.7748,0.7676,0.7215,0.6567,0.6493,0.6377,0.6269,0.5922,0.58,0.5766,0.5504,0.5395,0.0,0.0,-0.2109,-0.1355,-0.0552,0.0877,0.2335,0.3623,0.5518,0.7292,0.8704,0.9903,1.0955,1.1812,1.1481,1.1209,1.1209,1.1243,1.1402,1.1662,1.1117,1.0718,1.0621,1.0176,0.9696,0.9211,0.878,0.8341,0.7876,0.7475,0.7083,0.6717,0.5879,0.5448,0.534,0.4622,0.4294,0.4294,0.4294,0.4294,0.4298,0.4335,0.4434,0.4593,0.4792,0.495,0.511,0.5121,0.5206,0.528,0.5285,0.5277,0.5358,0.5878,0.5913,0.0,0.0,0.0,0.0,0.0,0.0,0.0,0.0,0.0,0.0,0.0,0.0,0.0,0.0,0.0,0.0,0.0,0.0,0.0,1.1789,1.1964,1.2246,1.2731,1.3129,1.3375,1.3375,1.3246,1.3237,1.35,1.3226,1.301,1.2928,1.2969,1.3254,1.3731,1.3803,0.0,1.3978,1.393,1.3652,1.3133,1.3067,1.288,1.2548,0.0,0.0,1.1545,1.0269,0.9576,0.9387,0.8742,0.8399,0.8169,0.7522,0.6872,0.6269,0.5922,0.58,0.5766,0.5504,0.5395,0.5395,-0.3047,-0.2441,-0.1738,-0.107,0.0463,0.2098,0.3581,0.5529,0.7456,0.9174,1.004,1.0793,1.1568,1.1176,1.0859,1.0859,1.0935,1.148,1.2577,1.1552,1.0906,1.0905,1.039,0.9912,0.9516,0.8878,0.8411,0.8144,0.751,0.7112,0.6929,0.6023,0.5593,0.5572,0.4688,0.4294,0.4294,0.4052,0.4096,0.428,0.4122,0.4233,0.4517,0.4715,0.4974,0.5191,0.5191,0.5248,0.5352,0.5645,0.5755,0.5864,0.6458,0.6572,0.6512,0.0,0.0,0.0,0.0,0.0,0.0,0.0,0.0,0.0,0.0,0.0,0.0,0.0,0.0,1.2084,0.0,0.0,1.2666,1.2836,1.2777,1.2942,1.3637,1.391,1.4044,1.4044,1.3925,1.4021,1.4428,1.3865,1.3522,1.3611,1.342,1.3495,1.3888,1.3906,1.3966,1.4099,1.3972,1.3719,1.3276,1.3188,1.2982,1.2699,1.2306,1.2047,1.1868,1.1078,1.0416,0.9884,0.9463,0.9084,0.8627,0.7825,0.7253,0.6839,0.6101,0.58,0.5766,0.5504,0.5395,0.5395,-0.3224,-0.2775,-0.2225,-0.1673,-0.0099,0.1684,0.3425,0.5403,0.7448,0.9488,1.0079,1.0531,1.1175,1.0828,1.0591,1.0715,1.0942,1.1678,1.309,1.189,1.1153,1.1196,1.0553,1.0049,0.9703,0.8874,0.8398,0.8296,0.7433,0.7,0.6979,0.6017,0.561,0.5653,0.4727,0.4248,0.4169,0.3787,0.3782,0.4025,0.3762,0.3972,0.4446,0.4631,0.491,0.5276,0.5276,0.5351,0.554,0.6046,0.629,0.648,0.7079,0.7268,0.7268,0.7402,0.7709,0.0,0.0,0.0,0.0,0.0,0.0,0.0,0.0,0.0,1.2343,1.2448,1.2923,1.3216,1.2992,1.3413,1.3783,1.3905,1.3648,1.3755,1.46,1.4578,1.4509,1.4569,1.4638,1.4781,1.5051,1.4352,1.3959,1.4169,1.3746,1.3652,1.3966,1.393,1.3978,1.4141,1.3936,1.3676,1.3363,1.3155,1.2982,1.2699,1.2439,1.2204,1.1986,1.1633,1.1023,1.0214,1.0165,0.9685,0.8856,0.8055,0.7633,0.7375,0.6283,0.5844,0.5806,0.5515,0.5395,0.5395,0.0,-0.2775,-0.2289,-0.1918,-0.0215,0.167,0.3355,0.5613,0.7733,0.9402,1.0422,1.1087,1.1339,1.116,1.125,1.1862,1.2408,1.2832,1.3091,1.2607,1.199,1.1226,1.0783,1.0283,0.9723,0.9185,0.8712,0.8296,0.7419,0.7001,0.6979,0.5674,0.5308,0.5653,0.4727,0.4111,0.3761,0.3718,0.3482,0.315,0.3114,0.3559,0.4237,0.4251,0.4625,0.5113,0.5113,0.5557,0.61,0.6182,0.6561,0.7079,0.7631,0.7818,0.7925,0.8455,0.9058,0.9522,0.937,0.9787,1.0418,1.1049,1.1816,1.2541,0.0,0.0,1.5,1.5424,1.5477,1.5557,1.5936,1.5673,1.5351,1.5081,1.5235,1.5323,1.5163,1.512,1.5217,1.5502,1.5818,1.5677,1.4853,1.4636,1.4545,1.4449,1.3851,1.3731,1.4226,1.4032,1.3809,1.361,1.3574,1.3314,1.2801,1.3012,1.2982,1.2699,1.2439,1.2294,1.2252,1.1718,1.1438,1.1319,1.1069,1.0513,0.969,0.8894,0.8131,0.7387,0.6368,0.5966,0.5915,0.5552,0.5395,0.5395,0.0,-0.3023,-0.2583,-0.2448,-0.0696,0.1219,0.2785,0.5105,0.7258,0.8868,1.0021,1.0765,1.0977,1.1225,1.1788,1.277,1.294,1.3055,1.3152,1.2756,1.2066,1.1067,1.0755,1.0196,0.9306,0.8834,0.8378,0.7959,0.7043,0.6586,0.6571,0.5502,0.5113,0.5248,0.4351,0.3869,0.3654,0.311,0.2923,0.2996,0.2831,0.3143,0.372,0.4197,0.453,0.4827,0.5498,0.595,0.0,0.6956,0.7605,0.8196,0.8718,0.9098,0.9403,0.9644,1.0174,1.077,1.1258,1.1475,1.169,1.2261,1.3087,1.3821,1.404,1.4904,1.5709,1.5901,1.6287,1.6502,1.6155,1.6337,1.6373,0.0,1.6024,1.6127,1.6234,1.6192,1.6175,1.6101,1.6196,1.6084,1.5622,1.5001,1.4697,1.4825,1.4152,1.3839,1.4057,1.4111,1.4014,1.3749,1.3592,1.3332,1.2952,1.2904,1.2819,1.2699,1.2439,1.2234,1.203,1.1663,1.1405,1.1242,1.1166,1.0925,1.0556,0.9728,0.8927,0.8109,0.7094,0.6399,0.5949,0.5627,0.5528,0.5515,0.0,-0.3118,-0.2768,-0.2673,-0.1082,0.0678,0.2181,0.4468,0.6641,0.8371,0.9456,1.0263,1.0811,1.1601,1.2455,1.3322,1.3371,1.3339,1.3289,1.2766,1.2025,1.1029,1.0659,1.0059,0.9205,0.861,0.8152,0.7869,0.6747,0.6251,0.6359,0.5393,0.5024,0.5096,0.4174,0.3705,0.3532,0.2677,0.2468,0.2652,0.2458,0.2671,0.3187,0.3786,0.4211,0.4653,0.58,0.6317,0.6615,0.7765,0.8534,0.9112,0.9658,1.009,1.044,1.0601,1.115,1.1828,1.2529,1.2647,1.2716,1.3088,1.3993,1.4767,1.4767,1.5543,1.6316,1.644,1.6867,1.7019,1.6475,1.6746,1.695,1.6594,1.6614,1.6822,1.708,1.7016,1.6816,1.6579,1.64,1.6302,1.6227,1.5356,1.4846,1.5074,1.4404,1.3903,1.3791,1.3912,1.3888,1.3701,1.3507,1.3278,1.3012,1.288,1.2783,1.2699,1.2512,1.2282,1.2023,1.1645,1.1339,1.1111,1.1111,1.1111,1.1037,1.0218,0.9539,0.8912,0.7743,0.6911,0.636,0.5878,0.5684,0.5627,0.0,0.0,-0.2702,-0.2367,-0.1238,0.0149,0.1683,0.3863,0.6046,0.8049,0.8855,0.9767,1.1136,1.2516,1.3362,1.3403,1.3934,1.4046,1.3514,1.2817,1.2044,1.1236,1.0495,0.9971,0.9683,0.8773,0.8296,0.8275,0.6701,0.614,0.6554,0.5376,0.5053,0.544,0.4373,0.3685,0.3282,0.2654,0.2169,0.1847,0.1822,0.2181,0.2732,0.2736,0.3486,0.4653,0.58,0.6566,0.7241,0.8375,0.9119,0.9658,1.0218,1.0389,1.0525,1.1108,1.1927,1.2652,1.27,1.2924,1.3194,1.3194,1.4208,1.5174,1.5174,1.6262,1.7381,1.785,1.7528,1.7305,1.7662,1.7344,1.699,1.6893,1.7209,1.7485,1.7476,1.7141,1.6918,1.691,1.6584,1.6368,0.0,1.5622,1.5148,1.5097,1.4472,1.3913,1.3513,1.3252,1.3113,1.3101,1.3139,1.3,1.2717,1.2976,1.2976,1.2705,1.2699,1.2554,1.2282,1.1724,1.1339,1.1111,1.1111,1.1111,1.1037,1.0218,0.9879,0.969,0.8122,0.7472,0.7337,0.6334,0.5922,0.5776,0.0,0.0,0.0,-0.2242,-0.1037,0.0183,0.1104,0.321,0.5556,0.7915,0.9915,0.0,0.0,0.0,0.0,0.0,1.403,1.3828,1.3331,1.2784,1.2025,1.1048,1.064,0.9913,0.8785,0.8672,0.8343,0.7773,0.7082,0.6659,0.644,0.5727,0.505,0.4412,0.3786,0.3203,0.2662,0.2211,0.1917,0.1797,0.1797,0.1936,0.2156,0.2543,0.2959,0.3566,0.0,0.6811,0.7806,0.8948,0.995,1.0753,1.093,1.1225,1.161,1.2092,1.2608,1.3094,1.3368,1.3945,1.4456,1.4456,1.526,1.6062,1.6062,1.6428,1.6918,1.742,1.7394,1.727,1.7335,1.7439,1.7494,1.7322,1.7633,1.7993,1.8267,1.8174,1.8094,1.8094,1.7501,0.0,0.0,0.0,0.0,1.4839,1.4166,1.3609,1.3242,1.3338,1.3258,1.3133,1.3083,1.2988,1.2705,1.2795,1.2795,1.2699,1.2355,1.195,1.151,1.1335,1.1202,1.1111,1.1111,1.1111,1.1074,1.0812,1.0368,0.9841,0.9311,0.8437,0.7476,0.711,0.6639,0.6108,0.0,0.0,0.0,0.0,0.0,0.0,0.0,0.0,0.0,0.0,0.0,0.0,0.0,0.0,0.0,0.0,0.0,1.3564,1.3015,1.2401,1.1671,1.0764,1.0448,0.979,0.8707,0.877,0.8505,0.7902,0.7494,0.7015,0.6473,0.6056,0.5251,0.4101,0.3611,0.3084,0.2468,0.2001,0.1797,0.1797,0.1628,0.1543,0.16,0.1987,0.2263,0.0,0.5058,0.6597,0.7823,0.9351,1.0379,1.1057,1.1469,1.1828,1.2175,1.2578,1.2949,1.329,1.3692,1.4446,1.5105,1.5105,1.5815,1.6454,1.6291,1.6378,1.6612,1.694,1.7005,1.709,1.7349,1.7475,1.7616,1.7755,1.7953,1.8228,1.866,1.8715,1.8715,1.8715,1.8239,1.7872,0.0,0.0,0.0,1.4775,1.4019,1.3425,1.2964,1.3133,1.3151,1.2976,1.2976,1.2886,1.2705,1.2705,1.2705,1.2699,1.227,1.183,1.1395,1.1304,1.1208,1.1111,1.1111,1.1111,1.1111,1.1111,1.0812,1.0293,0.9992,0.9273,0.8284,0.771,0.7176,0.6643,0.0,0.0,0.0,0.0,0.0,0.0,0.0,0.0,0.0,0.0,0.0,0.0,0.0,0.0,0.0,0.0,0.0,0.0,1.266,1.1784,1.1027,1.0457,0.996,0.9611,0.9371,0.9,0.8746,0.8582,0.7877,0.7226,0.6622,0.6333,0.5578,0.4436,0.3849,0.3236,0.2625,0.2046,0.1797,0.1741,0.1319,0.1122,0.1094,0.1122,0.1483,0.2284,0.4474,0.5959,0.7264,0.9607,1.044,1.0669,1.1785,1.2126,1.22,1.2627,1.2973,1.3314,1.3716,1.4468,1.5148,1.5148,1.5847,1.6411,1.5942,1.6182,1.6487,1.6487,1.6487,1.6758,0.0,0.0,1.7345,1.8091,1.8163,1.8255,1.8687,1.8779,1.8806,0.0,0.0,0.0,0.0,0.0,0.0,1.4956,0.0,1.3421,1.279,1.2705,1.2705,1.2705,1.2705,1.2705,1.2705,1.2705,1.2699,1.2681,1.2433,1.2168,1.185,1.1609,1.1339,1.1111,1.1111,1.1111,1.1111,1.1111,1.1111,1.1037,1.0255,0.9922,0.9728,0.8169,0.7599,0.7417,0.0,0.0,0.0,0.0,0.0,0.0,0.0,0.0,0.0,0.0,0.0,0.0,0.0,0.0,0.0,0.0,0.0,0.0,1.2975,1.1923,1.1151,1.0783,1.0185,0.9567,0.8968,0.8958,0.8779,0.8454,0.8017,0.7512,0.6967,0.6455,0.5359,0.3821,0.368,0.3016,0.2018,0.1853,0.16,0.1291,0.1515,0.1403,0.115,0.1487,0.1712,0.2099,0.3972,0.5109,0.6201,0.9341,1.0956,1.176,1.2348,1.2554,1.2676,1.332,1.3573,1.3739,1.414,1.4923,1.5625,1.5625,1.6372,1.695,1.6432,1.6411,1.6487,1.6487,1.6487,1.6579,0.0,0.0,0.0,1.7245,1.7972,0.0,1.91,1.9677,0.0,2.0053,0.0,1.9461,1.9048,1.8193,0.0,0.0,1.4962,1.3876,1.3464,1.296,1.2705,1.2705,1.2705,1.2705,1.2705,1.2705,1.2608,1.2409,1.2343,1.203,1.1591,1.1519,1.1339,1.1111,1.1111,1.1111,1.1111,1.1111,1.1111,1.1074,1.085,1.0438,0.9841,0.9425,0.8894,0.8351,0.0,0.0,0.0,0.0,0.0,0.0,0.0,0.0,0.0,0.0,0.0,0.0,0.0,0.0,0.0,0.0,0.0,0.0,0.0,1.1752,1.0941,1.0815,1.0084,0.9544,0.9235,0.9076,0.8876,0.8564,0.8128,0.7605,0.6993,0.6113,0.4882,0.3378,0.3209,0.2488,0.1431,0.1685,0.1403,0.0,0.0,0.1206,0.0842,0.1319,0.1487,0.1738,0.3699,0.5594,0.7509,0.9666,1.1267,1.2406,1.2627,1.2788,1.3045,1.3621,1.3797,1.3934,1.454,1.5247,1.5811,1.5811,1.6367,1.6765,1.6055,1.604,1.6193,1.6193,1.6356,1.6563,1.6801,1.7002,1.7143,0.0,0.0,0.0,1.9219,1.9696,2.0118,0.0,2.0008,0.0,1.9579,1.8693,1.8014,0.0,1.6029,1.473,1.4168,1.3711,1.3288,1.2875,1.2747,1.2705,1.2705,1.2705,1.2626,1.2487,1.2487,1.227,1.1832,1.1718,1.1513,1.1248,0.0,1.1111,1.1111,1.1111,1.1111,1.1111,1.1111,1.0812,1.0368,1.003,0.9614,0.9236,0.0,0.0,0.0,0.0,0.0,0.0,0.0,0.0,0.0,0.0,0.0,0.0,0.0,0.0,0.0,0.0,0.0,0.0,0.0,0.0,1.0695,1.0755,0.9906,0.9563,0.9793,0.9257,0.8901,0.8778,0.809,0.7471,0.6826,0.5557,0.4302,0.3074,0.2625,0.1845,0.0926,0.1403,0.1122,0.0364,0.0814,0.0757,0.0449,0.0,0.115,0.1484,0.3724,0.6662,0.957,1.0202,1.1409,1.27,1.2749,1.2997,1.3362,1.3763,1.3892,1.4058,1.4877,1.544,1.5811,1.5811,1.6149,1.6236,1.5323,1.5506,1.5887,1.5822,1.6225,1.6737,1.7119,1.7144,1.7238,1.7605,0.0,1.8476,1.9274,1.943,1.9742,2.0512,1.9879,1.9549,1.993,1.9232,1.8772,1.8772,1.7342,1.597,1.4907,1.4573,1.3993,1.3094,1.2833,1.2705,1.2705,1.2705,1.2705,1.2705,1.2705,1.2566,1.23,1.2,1.1742,1.1477,0.0,0.0,1.1111,1.1111,1.1111,1.1111,1.1111,1.1111,1.1037,1.0331,1.0067,1.0067,0.0,0.0,0.0,0.0,0.0,0.0,0.0,0.0,0.0,0.0,1.0845,1.2181,0.0,0.0,0.0,0.0,0.0,0.0,0.0,0.0,0.0,1.1104,1.0166,0.9694,0.9801,0.918,0.8777,0.8633,0.7578,0.6934,0.6615,0.4964,0.3788,0.3074,0.2265,0.154,0.0898,0.0729,0.0364,-0.0056,0.0364,0.0477,0.0449,0.0926,0.0,0.0,0.4316,0.6732,0.9023,1.0041,1.1409,1.2749,1.3035,1.3372,1.3763,1.4186,1.4314,1.4412,1.4949,1.544,1.5811,1.5811,1.6149,1.6236,1.5323,1.5745,0.0,1.5887,1.6535,1.7079,1.6779,1.693,1.7206,1.7547,1.8191,1.8889,1.9664,2.0058,2.0484,0.0,2.031,1.9939,2.0383,1.9661,0.0,0.0,0.0,1.7779,1.5655,1.4824,1.3909,1.279,1.2705,1.2705,1.2705,1.2705,1.2705,1.2705,1.2705,1.2566,1.23,1.2,1.1742,1.1477,1.1232,0.0,1.1111,1.1111,1.1111,1.1111,1.1111,1.1111,1.1074,1.0925,1.0887,1.0887,0.0,0.0,0.0,0.0,0.0,0.0,0.0,0.6356,0.8242,0.9763,1.2016,1.3654,1.4137,1.4411,1.45,0.0,0.0,0.0,0.0,0.0,0.0,0.0,1.0357,0.9832,1.0111,0.9172,0.0,0.0,0.0,0.6502,0.5982,0.0,0.0,0.0,0.1734,0.084,0.0224,0.0336,-0.0056,-0.0673,0.0336,0.0617,0.0,0.0,0.0,0.0,0.0,0.6759,0.8886,1.0008,1.1409,1.2774,1.3098,1.3634,1.415,1.4326,1.4396,1.456,1.5255,1.5636,1.5811,1.5811,1.5974,1.5887,1.4952,0.0,0.0,1.5854,1.6601,1.7155,1.6694,1.6694,1.6911,1.7244,1.7565,1.8201,1.943,1.9586,1.9879,2.0704,2.009,1.9769,0.0,1.9659,0.0,0.0,0.0,1.8607,1.6968,1.553,1.4413,1.3747,1.3747,1.3951,1.4399,1.386,1.3578,1.3578,1.2997,1.2638,1.2499,1.2107,1.1814,1.167,1.1292,0.0,1.1111,1.1111,1.1111,1.1111,1.1111,1.1111,1.1111,1.1111,1.1111,1.1111,0.0,0.0,0.0,0.0,0.0,0.0,0.0,0.7539,0.9212,1.051,1.3404,1.5358,1.5408,1.5405,1.5252,0.0,0.0,0.0,0.0,0.0,0.0,0.0,0.0,1.0248,1.0475,0.0,0.0,0.0,0.0,0.0,0.0,0.0,0.0,0.0,0.0,0.0,0.0,-0.0028,-0.0393,0.0,0.0,0.0,0.0,0.0,0.0,0.0,0.0,0.6965,0.8857,1.0096,1.1437,1.2642,1.2987,1.3586,1.4163,1.4257,1.4267,1.4473,1.5387,1.5646,1.5646,1.5646,1.5646,1.5455,1.471,1.5203,1.5833,1.5931,1.6677,1.7188,1.6792,1.6611,1.6634,0.0,1.707,1.7532,1.8971,1.9063,1.9356,0.0,1.9952,0.0,1.9985,1.9677,0.0,0.0,0.0,0.0,1.7997,1.6273,1.5199,1.4991,1.4983,1.5316,1.6003,1.4976,1.4448,1.4406,1.3288,1.2717,1.2602,1.2137,1.185,1.1772,1.1323,0.0,0.0,1.1111,1.1111,1.1111,1.1111,1.1111,1.1111,1.1111,1.1111,1.1111,0.0,0.0,0.0,0.0,0.0,0.0,0.0,0.8621,1.0296,1.2283,1.4462,1.6218,1.7218,1.6816,1.6239,0.0,0.0,0.0,0.0,0.0,0.0,0.0,0.0,0.0,0.0,0.0,0.0,0.0,0.0,0.0,0.0,0.0,0.0,0.0,0.0,0.0,0.0,0.0,0.0,0.0,0.0,0.0,0.0,0.0,0.0,0.0,0.0,0.7542,0.8823,1.034,1.1464,1.2314,1.2642,1.2997,1.3386,1.3739,0.0,0.0,1.4944,1.5159,1.5159,1.5159,1.5159,1.5136,1.5061,0.0,1.5931,1.6345,1.6896,1.7257,1.7174,1.6786,1.6733,1.7432,1.749,1.7752,1.8641,1.9335,1.9948,2.0424,0.0,0.0,2.0457,0.0,0.0,0.0,0.0,0.0,1.7779,1.6805,1.6142,1.588,1.588,1.5921,1.6003,1.5108,1.4573,1.4406,1.3506,1.2795,1.2337,1.2012,1.1754,1.1513,1.1244,0.0,0.0,1.1111,1.1111,1.1111,1.1111,1.1111,1.1111,1.1111,1.1111,1.1111,0.0,0.0,0.0,0.0,0.0,0.0,0.797,0.9638,1.1379,1.2908,1.501,1.6826,1.8016,1.7828,1.7172,1.603,0.0,0.0,0.0,0.0,0.0,0.0,0.0,0.0,0.0,0.0,0.0,0.0,0.0,0.0,0.0,0.0,0.0,0.0,0.0,0.0,0.0,0.0,0.0,0.0,0.0,0.0,0.0,0.0,0.0,0.0,0.0,0.0,0.0,1.0974,1.1954,1.2471,1.2372,1.2593,1.3021,1.3631,1.3621,1.3625,1.4501,1.4562,1.4456,1.4721,1.4976,1.5158,1.5107,1.567,1.6269,1.6454,1.6929,1.7364,1.7629,1.7036,1.6787,1.7573,1.7181,1.6971,1.7479,1.8287,1.8876,1.8965,1.9453,0.0,0.0,0.0,0.0,0.0,0.0,0.0,1.8687,1.7827,1.7293,1.7212,1.7204,1.7447,1.798,1.647,1.5696,1.5564,1.3874,1.2879,1.2513,1.2037,1.1708,1.1477,1.1232,0.0,0.0,1.1111,1.1111,1.1111,1.1111,1.1111,1.1111,1.1111,1.1111,1.1111,0.0,0.0,0.0,0.0,0.0,0.7231,0.8301,1.0011,1.1756,1.3322,1.5248,1.6984,1.8357,1.8422,1.7918,1.6775,1.5717,0.0,0.0,0.0,0.0,0.0,0.0,0.0,0.0,0.0,0.0,0.6784,0.0,0.0,0.0,0.0,0.0,0.0,0.0,0.0,0.0,0.0,0.0,0.0,0.0,0.0,0.0,0.0,0.0,0.0,0.0,0.0,0.0,0.0,0.0,1.2382,1.215,1.2298,1.2652,1.3296,1.3262,1.3197,1.396,1.3932,1.3824,1.4288,1.4599,1.4892,1.5221,1.5813,1.6369,1.6683,1.7147,1.761,1.7903,1.7189,1.6757,1.7476,1.6973,1.6618,1.6972,1.797,1.8629,0.0,0.0,0.0,0.0,0.0,0.0,0.0,0.0,0.0,0.0,1.862,1.8201,1.8201,1.8201,1.8426,1.8953,1.7168,1.6296,1.6207,1.4083,1.294,1.2641,1.2132,1.1755,1.1471,0.0,0.0,0.0,1.1111,1.1111,1.1105,1.1027,1.1045,1.1099,1.1021,1.1045,1.1111,0.0,0.0,0.0,0.0,0.0,0.0,0.8327,0.9517,1.1144,1.3745,1.5164,1.6577,1.8315,1.85,1.8389,1.8098,1.6671,0.0,0.0,0.0,0.0,0.0,0.0,0.0,0.0,0.0,0.95,0.7694,0.6686,0.5124,0.0,0.0,0.0,0.0,0.0,0.0,0.0,0.0,0.0,0.0,0.0,0.0,0.0,0.0,0.0,0.0,0.0,0.0,0.0,0.0,0.0,0.0,0.0,1.2101,1.2175,1.2603,1.27,1.2797,1.3211,1.3317,1.3397,1.3811,1.3907,1.4228,1.5515,1.5808,1.6092,1.7075,1.766,1.7965,1.7922,1.7205,1.6707,1.7044,1.6973,1.7037,1.744,1.885,1.9875,0.0,0.0,0.0,0.0,0.0,0.0,0.0,0.0,0.0,0.0,1.8926,1.8676,1.8676,1.8676,1.8493,1.81,1.6766,1.5991,1.5785,1.4109,1.3041,1.2605,1.224,1.1834,0.0,0.0,0.0,0.0,1.1111,1.1111,1.1087,1.0828,1.0882,1.1081,1.0785,1.0851,1.1111,0.0,0.0,0.0,0.0,0.0,0.0,0.0,0.9015,1.0735,1.334,1.4486,1.5763,1.7552,1.7875,1.774,1.725,1.6477,0.0,0.0,0.0,0.0,0.0,0.0,0.0,0.0,0.0,0.9422,0.7694,0.6543,0.5163,0.3528,0.1417,0.0,0.0,0.0,0.0,0.0,0.0,0.0,0.0,0.0,0.0,0.0,0.0,0.0,0.0,0.0,0.0,0.0,0.0,0.0,0.0,0.0,0.0,0.0,1.1183,1.1676,1.2385,1.279,1.2903,1.2999,1.3401,1.3947,1.4567,1.524,1.5879,1.6448,1.6747,1.7449,1.8082,1.8389,1.7921,1.7626,1.7992,1.7697,1.7084,1.6258,0.0,0.0,1.7826,0.0,0.0,0.0,0.0,0.0,0.0,0.0,0.0,0.0,1.8779,1.8715,1.8715,1.8411,1.8219,1.8091,1.7347,1.6815,1.6451,1.5444,1.4647,1.4077,1.3748,0.0,0.0,0.0,0.0,0.0,1.1111,1.1111,1.1087,1.0785,1.0845,1.1057,1.0581,1.0695,1.1087,0.0,0.0,0.0,0.0,0.0,0.0,0.0,0.7947,0.9776,1.2387,1.3622,1.4863,1.6517,1.7027,1.7073,1.6646,1.6267,0.0,0.0,0.0,0.0,0.0,0.0,0.0,0.0,1.0644,0.9514,0.8263,0.6763,0.5381,0.4158,0.1971,0.0393,-0.0654,0.0,0.0,0.0,0.0,0.0,0.0,0.0,0.0,0.0,0.0,0.0,0.0,0.0,0.0,0.0,0.0,0.0,0.0,0.0,0.0,0.0,0.0,1.097,1.1895,1.2291,1.2403,1.259,1.3351,1.3923,1.4497,1.508,1.5787,1.6452,1.6801,1.7602,1.8403,1.8884,1.8399,1.803,1.8272,1.7898,0.0,0.0,0.0,0.0,0.0,0.0,0.0,0.0,0.0,0.0,0.0,0.0,0.0,0.0,1.8485,1.8421,1.8256,1.8018,1.7816,1.766,1.7179,1.6826,1.6567,1.5816,1.5273,1.4887,1.4579,0.0,0.0,0.0,0.0,0.0,1.1186,1.1223,1.1378,1.0894,1.0992,1.1354,1.0706,1.0749,1.1087,0.0,0.0,0.0,0.0,0.0,0.0,0.0,0.6498,0.8447,1.1015,1.2557,1.393,1.5262,1.6035,1.6402,1.6247,0.0,0.0,0.0,0.0,0.0,0.0,0.0,0.0,1.1376,1.0431,0.9658,0.9099,0.7171,0.5783,0.4863,0.3254,0.1475,-0.0351,-0.0822,0.0,0.0,0.0,0.0,0.0,0.0,0.0,0.0,0.0,0.0,0.0,0.0,0.0,0.0,0.0,0.0,0.0,0.0,0.0,0.0,0.0,0.0,0.0,0.0,1.1839,1.2207,1.3465,1.3787,1.4011,1.4876,1.5429,0.0,1.7038,1.7978,1.8796,1.9383,1.8694,1.8047,1.8184,1.7908,0.0,0.0,1.8147,0.0,0.0,0.0,0.0,0.0,0.0,0.0,0.0,0.0,0.0,0.0,1.8082,1.7889,1.7468,1.7449,1.7275,1.6908,1.649,1.6265,1.624,1.5561,1.5266,1.5233,1.4897,0.0,0.0,0.0,0.0,0.0,1.1385,1.149,1.1944,1.1081,1.1203,1.1838,1.0978,1.0791,1.1051,0.0,0.0,0.0,0.0,0.0,0.0,0.0,0.0,0.0,0.0,1.1443,1.3064,1.4507,1.5392,1.5798,0.0,0.0,0.0,0.0,0.0,0.0,0.0,0.0,0.0,1.0973,0.9917,0.8955,0.8045,0.7111,0.6005,0.4721,0.3201,0.2074,0.1289,0.0,-0.0673,0.0,0.0,0.0,0.0,0.0,0.0,0.0,0.0,0.0,0.0,0.0,0.3498,0.0,0.0,0.0,0.0,0.0,0.0,0.0,0.0,0.8555,0.9424,1.0303,0.0,1.197,1.2277,1.2611,1.3022,0.0,1.4273,1.4971,1.6273,1.7289,1.8381,1.9901,1.9138,1.869,1.9814,0.0,0.0,0.0,0.0,0.0,0.0,0.0,0.0,0.0,0.0,0.0,0.0,0.0,0.0,0.0,1.7642,1.7458,1.7055,1.7046,1.7,1.6908,1.7116,1.7054,1.673,1.6875,1.6786,1.6466,1.6412,0.0,0.0,0.0,0.0,1.2622,1.1761,1.1742,1.2223,1.1364,1.1118,1.1213,1.0389,1.025,1.0448,0.0,0.0,0.0,0.0,0.0,0.0,0.0,0.0,0.0,0.0,0.0,0.0,0.0,0.0,0.0,0.0,0.0,0.0,0.0,0.0,0.0,0.0,0.0,1.1391,1.0542,0.9202,0.8119,0.7298,0.6234,0.532,0.4529,0.3345,0.2701,0.2492,0.115,0.0343,0.0,0.0,0.0,0.0,0.0,0.0,0.0,0.0,0.0,0.0,0.2015,0.2625,0.0,0.4525,0.516,0.5519,0.0,0.0,0.0,0.0,0.7928,0.9029,0.9594,1.0704,1.1829,1.2288,1.2553,1.2906,1.3543,1.4008,1.4666,1.5939,1.7074,1.8214,1.9403,1.9452,1.9599,0.0,2.004,0.0,0.0,0.0,0.0,0.0,0.0,0.0,0.0,0.0,0.0,0.0,0.0,0.0,0.0,1.7394,1.7312,1.6917,1.6908,1.6908,1.6908,1.7119,1.7119,1.6908,1.7119,1.711,1.6908,1.6908,1.6244,0.0,0.0,0.0,1.2999,1.2352,1.2452,1.2915,1.2005,1.1819,1.1927,1.0837,1.0542,1.0613,0.0,0.0,0.0,0.0,0.0,0.0,0.0,0.0,0.0,0.0,0.0,0.0,0.0,0.0,0.0,0.0,0.0,0.0,0.0,0.0,0.0,0.0,0.0,1.1241,0.9997,0.8396,0.7191,0.6421,0.5062,0.436,0.425,0.3569,0.3288,0.3314,0.2449,0.1716,0.0,0.0,0.0,0.0,0.0,0.0,0.0,0.0,0.0,0.0,0.0,0.0,0.0,0.3849,0.4349,0.446,0.5101,0.0,0.0,0.0,0.0,0.0,0.9163,1.0303,1.1701,1.2457,1.2773,1.302,1.3637,1.4074,1.4673,1.5849,1.6971,1.7955,1.8827,1.9651,0.0,0.0,0.0,0.0,0.0,0.0,0.0,0.0,0.0,0.0,0.0,0.0,0.0,0.0,0.0,0.0,0.0,1.722,1.7257,1.6917,1.6908,1.6908,1.6908,1.6908,1.6908,1.6908,1.6908,1.6908,1.6908,1.6844,1.6291,0.0,0.0,0.0,1.3373,1.2994,1.3171,1.3595,1.2695,1.2621,1.2849,1.1601,1.1051,1.0923,0.0,0.0,0.0,0.0,0.0,0.0,0.0,0.0,0.0,0.0,0.0,0.0,0.0,0.0,0.0,0.0,0.0,0.0,0.0,0.0,0.0,1.3857,1.2532,1.0889,0.8973,0.7626,0.6237,0.4765,0.4522,0.4171,0.3735,0.3824,0.3752,0.3554,0.3729,0.3505,0.2999,0.0,0.0,0.0,0.0,0.0,0.0,0.0,0.0,0.0,0.0,0.0,0.0,0.3209,0.3735,0.3932,0.4963,0.0,0.0,0.0,0.0,0.0,0.856,1.004,1.1453,1.1203,1.1745,1.2471,1.3003,1.3619,1.446,1.5809,1.6273,1.717,1.975,1.9818,2.0072,0.0,0.0,0.0,0.0,0.0,0.0,0.0,0.0,0.0,0.0,0.0,0.0,0.0,0.0,0.0,0.0,0.0,1.6972,1.6908,1.6908,1.6908,1.6908,1.6908,1.6908,1.6908,1.6908,1.6908,1.6899,1.656,1.6123,0.0,0.0,1.4405,1.4322,1.3493,1.3332,1.3542,1.2897,1.2383,1.195,1.1512,1.096,1.0374,0.0,0.0,0.0,0.0,0.0,0.0,0.0,0.0,0.0,0.0,0.0,0.0,0.0,0.0,0.0,0.0,0.0,0.0,0.0,0.0,0.0,1.3564,1.2425,1.0875,0.8959,0.7325,0.5801,0.4388,0.4116,0.3843,0.3627,0.432,0.454,0.4358,0.4546,0.4232,0.3581,0.3653,0.0,0.0,0.0,0.0,0.0,0.0,0.0,0.0,0.0,0.0,0.0,0.0,0.332,0.3738,0.4601,0.0,0.0,0.0,0.0,0.0,0.8229,0.9693,1.1237,1.1802,1.2462,1.3227,1.4217,1.4628,1.5102,1.6113,1.6628,1.7444,1.9188,0.0,2.081,2.2491,0.0,0.0,0.0,0.0,0.0,0.0,0.0,0.0,0.0,0.0,0.0,0.0,0.0,0.0,0.0,0.0,1.6908,1.6908,1.6908,1.6908,1.6908,1.6908,1.6908,1.6908,1.6908,1.6798,1.6578,1.6361,1.5867,1.5077,0.0,1.4553,1.4269,1.4018,1.3887,1.3775,1.3316,1.2834,1.2382,1.1809,1.1044,1.0315,0.0,0.0,0.0,0.0,0.0,0.0,0.0,0.0,0.0,0.0,0.0,0.0,0.0,0.0,0.0,0.0,0.0,0.0,0.0,0.0,1.4348,1.3375,1.2161,1.0706,0.8945,0.7084,0.5511,0.4226,0.3788,0.3697,0.3927,0.498,0.5332,0.515,0.5256,0.4928,0.4208,0.4204,0.4039,0.0,0.0,0.0,0.0,0.0,0.0,0.0,0.0,0.0,0.0,0.0,0.0,0.0,0.0,0.0,0.0,0.5352,0.6382,0.7594,0.8063,0.95,1.1236,1.272,1.3369,1.4006,1.5404,1.5678,1.5806,1.6414,1.7002,1.7647,0.0,1.9968,0.0,2.255,0.0,0.0,0.0,0.0,0.0,0.0,0.0,0.0,0.0,0.0,0.0,0.0,0.0,0.0,0.0,0.0,1.7107,1.7107,1.6978,1.6968,1.7107,1.6968,1.6908,1.6908,1.6908,1.6697,1.6312,1.6211,1.5642,1.472,1.4903,1.4633,1.4143,1.44,1.4267,1.3851,1.3592,1.3246,1.2828,1.2081,1.124,1.0493,0.0,0.0,0.0,0.0,0.0,0.0,0.0,0.0,0.0,0.0,0.0,0.0,0.0,0.0,0.0,0.0,0.0,0.0,0.0,0.0,1.3846,1.3761,1.1782,0.9945,0.8384,0.6753,0.5186,0.3652,0.3627,0.4026,0.4829,0.577,0.5976,0.5589,0.6069,0.61,0.5749,0.5741,0.5609,0.5348,0.0,0.0,0.0,0.0,0.0,0.0,0.0,0.0,0.0,0.0,0.0,0.0,0.0,0.0,0.5325,0.5513,0.649,0.7599,0.8068,0.9615,1.1481,1.321,1.3659,1.4071,1.5464,1.5939,1.62,1.6619,1.6728,1.71,0.0,1.9874,2.1296,2.1866,0.0,0.0,0.0,0.0,0.0,0.0,0.0,0.0,0.0,0.0,0.0,0.0,0.0,0.0,0.0,0.0,0.0,1.7638,1.7176,1.7141,1.7638,1.7141,1.6908,1.6908,1.6908,1.6697,1.6303,1.5909,1.5505,1.5043,1.4684,1.4519,1.4462,1.4492,1.4114,1.3515,1.3519,1.3155,1.256,1.1988,1.1428,1.0958,0.0,0.0,0.0,0.0,0.0,0.0,0.0,0.0,0.0,0.0,0.0,0.0,0.0,0.0,0.0,0.0,0.0,0.0,0.0,1.3932,1.3706,1.3441,1.1844,1.028,0.8841,0.7026,0.5401,0.3965,0.4523,0.5193,0.6024,0.6389,0.6568,0.6599,0.6453,0.6281,0.6091,0.5961,0.5785,0.555,0.5156,0.0,0.0,0.0,0.0,0.0,0.0,0.0,0.0,0.0,0.3544,0.4239,0.4656,0.5018,0.5407,0.5937,0.6691,0.7582,0.8466,0.9655,1.1158,1.3199,1.3644,1.4126,1.6307,1.6831,1.7012,1.7441,1.784,1.8441,0.0,0.0,2.1753,0.0,0.0,0.0,0.0,0.0,0.0,0.0,0.0,0.0,0.0,0.0,0.0,0.0,0.0,0.0,0.0,0.0,0.0,1.7317,1.7122,1.7122,1.7307,1.7122,1.6871,1.6576,1.6548,1.6331,1.5909,1.5505,1.5111,1.4726,1.4579,1.4515,1.4515,1.4515,1.41,1.345,1.3094,1.2797,1.259,1.2375,1.1965,1.149,0.0,0.0,0.0,0.0,0.0,0.0,0.0,0.0,0.0,0.0,0.0,0.0,0.0,0.0,0.0,0.0,0.0,0.0,1.3797,1.371,1.3511,1.3253,1.2025,1.0767,0.9552,0.7717,0.6032,0.4491,0.5181,0.5909,0.6607,0.6621,0.6791,0.7003,0.6453,0.6163,0.6075,0.5809,0.5661,0.5576,0.537,0.5023,0.0,0.0,0.0,0.0,0.0,0.0,0.0,0.0,0.3821,0.4519,0.4688,0.5046,0.554,0.6258,0.7009,0.7816,0.8828,0.9847,1.1077,1.2987,1.3477,1.4109,1.6475,1.708,1.7399,1.815,1.8742,1.9329,2.0111,0.0,0.0,0.0,0.0,0.0,0.0,0.0,0.0,0.0,0.0,0.0,0.0,0.0,0.0,0.0,0.0,0.0,0.0,0.0,0.0,0.0,1.7233,1.717,1.7357,1.717,1.6951,1.6636,1.6307,1.591,1.5496,1.5221,1.4882,1.4515,1.4515,1.4515,1.4515,1.4515,1.41,1.345,1.292,1.2683,1.259,1.259,1.2243,1.1833,0.0,0.0,0.0,0.0,0.0,0.0,0.0,0.0,0.0,0.0,0.0,0.0,0.0,0.0,0.0,0.0,0.0,0.0,1.3348,1.3317,1.3292,1.3292,1.2193,1.1217,1.0417,0.8871,0.7117,0.5109,0.5454,0.5871,0.6413,0.6478,0.6564,0.6658,0.5997,0.5764,0.5866,0.541,0.5363,0.5566,0.5221,0.5223,0.0,0.0,0.0,0.0,0.0,0.0,0.0,0.0,0.4491,0.4601,0.5132,0.5434,0.5732,0.6399,0.7367,0.8361,0.9101,1.0164,1.142,1.2676,1.3258,1.3969,1.5725,1.6416,1.7155,1.8693,1.9168,1.9465,1.9998,1.9775,0.0,0.0,0.0,0.0,0.0,0.0,0.0,0.0,0.0,0.0,0.0,0.0,0.0,0.0,0.0,0.0,0.0,0.0,0.0,0.0,1.7523,1.7347,1.7904,1.7378,1.7129,1.7171,1.6269,1.5555,1.5102,1.5093,1.4882,1.4515,1.4515,1.4515,1.4515,1.4515,1.41,1.348,1.3133,1.2836,1.259,1.259,1.2243,1.1864,0.0,0.0,0.0,0.0,0.0,0.0,0.0,0.0,0.0,0.0,0.0,0.0,0.0,0.0,0.0,0.0,0.0,0.0,1.1963,1.2156,1.2154,1.1978,1.1591,1.09,0.987,0.8042,0.658,0.5515,0.5706,0.5885,0.6057,0.6316,0.6358,0.6189,0.586,0.5636,0.5542,0.5288,0.5302,0.5424,0.5184,0.5223,0.0,0.0,0.0,0.0,0.0,0.0,0.0,0.0,0.0,0.0,0.5403,0.566,0.6023,0.7074,0.7702,0.8275,0.9253,1.0457,1.1646,1.2459,1.3632,1.4961,1.6239,1.6609,1.7161,1.886,1.9631,1.9981,1.9907,0.0,0.0,0.0,0.0,0.0,0.0,0.0,0.0,0.0,0.0,0.0,0.0,0.0,0.0,0.0,0.0,0.0,0.0,0.0,0.0,0.0,1.7453,1.7319,1.7492,1.7319,1.6921,1.6285,1.5988,1.5592,1.5093,1.4808,1.4625,1.4515,1.4515,1.4515,1.4485,1.4258,1.3881,1.348,1.3133,1.2836,1.259,1.259,1.2498,1.2406,0.0,0.0,0.0,0.0,0.0,0.0,0.0,0.0,0.0,0.0,0.4776,0.0,0.0,0.0,0.0,0.0,0.0,0.0,0.0,1.0814,1.0897,1.0628,1.0779,1.0365,0.9346,0.7711,0.6526,0.5811,0.5693,0.5713,0.5902,0.5771,0.579,0.5868,0.5426,0.5216,0.5181,0.4993,0.5037,0.5171,0.5013,0.5047,0.5137,0.0,0.0,0.0,0.0,0.0,0.0,0.0,0.0,0.0,0.543,0.5648,0.6126,0.7422,0.808,0.8638,0.9847,1.0886,1.186,1.2889,1.3916,1.5135,1.6705,0.0,0.0,0.0,1.9768,2.0094,2.0133,0.0,0.0,0.0,0.0,0.0,0.0,0.0,0.0,0.0,0.0,0.0,0.0,0.0,0.0,0.0,0.0,0.0,0.0,0.0,0.0,0.0,1.7601,1.7418,1.7306,1.7306,1.6931,1.6189,1.5989,1.5635,1.5139,1.4706,1.4515,1.4515,1.4515,1.4515,1.4485,1.4297,1.3911,1.348,1.3277,1.295,1.259,1.259,1.259,1.259,0.0,0.0,0.0,0.0,0.0,0.0,0.0,0.0,0.0,0.0,0.4205,0.4539,0.0,0.0,0.0,0.0,0.0,0.0,0.0,0.0,0.9526,0.9247,0.964,0.951,0.8732,0.7602,0.6628,0.5915,0.5385,0.5336,0.5713,0.5004,0.4997,0.5509,0.4822,0.4641,0.486,0.4607,0.4658,0.4887,0.4748,0.4782,0.4874,0.4791,0.0,0.0,0.0,0.0,0.0,0.0,0.0,0.0,0.5325,0.5557,0.6124,0.7561,0.8406,0.9187,1.0614,1.1328,1.2049,1.3599,1.4186,0.0,1.7133,1.8487,1.9278,1.9406,0.0,1.9925,2.0382,0.0,0.0,0.0,0.0,0.0,0.0,0.0,0.0,0.0,0.0,0.0,0.0,0.0,0.0,0.0,0.0,0.0,0.0,0.0,0.0,0.0,1.7877,1.7573,1.7334,1.7306,1.7071,0.0,1.6171,1.57,1.5167,1.4704,1.4515,1.4515,1.4515,1.4515,1.4515,1.4515,1.413,1.3541,1.3511,1.3155,1.2621,1.2598,1.259,1.259,0.0,0.0,0.0,0.0,0.0,0.0,0.0,0.0,0.0,0.0,0.0,0.0,0.0,0.0,0.0,0.0,0.0,0.0,0.0,0.0,0.8304,0.7939,0.7663,0.7486,0.7398,0.6641,0.59,0.5209,0.4884,0.4605,0.4327,0.4421,0.4428,0.4361,0.4564,0.464,0.4583,0.4518,0.4597,0.4735,0.4704,0.4782,0.4914,0.4994,0.497,0.0,0.0,0.0,0.0,0.0,0.0,0.0,0.5458,0.5752,0.6271,0.7438,0.8235,0.897,1.0045,1.1283,1.2472,1.308,1.4809,1.6617,1.7613,1.8379,1.8918,1.8931,1.9394,1.9724,0.0,0.0,0.0,0.0,0.0,0.0,0.0,0.0,0.0,0.0,0.0,0.0,0.0,0.0,0.0,0.0,0.0,0.0,0.0,0.0,0.0,1.8479,1.7975,1.7684,1.7601,1.7418,1.7071,0.0,1.6485,1.6017,1.5167,1.4704,1.4515,1.4515,1.4515,1.4515,1.4515,1.4515,1.4258,1.3881,1.3601,1.3246,1.2897,1.2683,1.259,1.259,0.0,0.0,0.0,0.0,0.0,0.0,0.0,0.0,0.0,0.0,0.0,0.0,0.0,0.0,0.0,0.0,0.0,0.0,0.0,0.7149,0.7417,0.6977,0.6606,0.6395,0.6332,0.5428,0.486,0.4668,0.3989,0.3637,0.361,0.3789,0.396,0.4096,0.4339,0.4503,0.4597,0.4522,0.4535,0.461,0.461,0.4658,0.473,0.4784,0.4765,0.4738,0.4901,0.0,0.0,0.0,0.0,0.0,0.0,0.0,0.6043,0.702,0.7971,0.8907,0.9812,1.1041,1.2305,1.3295,0.0,1.6797,1.7701,1.7977,1.8137,1.8441,1.8798,0.0,0.0,0.0,0.0,0.0,0.0,0.0,0.0,0.0,0.0,0.0,0.0,0.0,0.0,0.0,0.0,0.0,0.0,0.0,0.0,1.896,1.8721,1.8587,1.8139,1.7822,1.7711,1.7434,1.7183,1.692,1.6722,1.6104,1.5167,1.4704,1.4515,1.4515,1.4515,1.4515,1.4515,1.4515,1.4297,1.398,1.3631,1.3307,1.2958,1.2713,1.259,1.259,0.0,0.0,0.0,0.0,0.0,0.0,0.0,0.0,0.0,0.0,0.0,0.0,0.0,0.0,0.0,0.0,0.0,0.0,0.0,0.5959,0.6335,0.5783,0.5492,0.5244,0.4988,0.3952,0.3604,0.3898,0.297,0.2767,0.3257,0.3358,0.3712,0.423,0.4238,0.44,0.468,0.4556,0.4491,0.4491,0.4491,0.4491,0.4491,0.4519,0.4519,0.4494,0.4549,0.4681,0.4819,0.4794,0.0,0.0,0.0,0.0,0.5707,0.6575,0.7578,0.8633,0.9547,1.0779,1.2182,1.3666,1.5093,0.0,1.7397,1.7486,1.7482,1.7956,0.0,0.0,0.0,0.0,0.0,0.0,0.0,0.0,0.0,0.0,0.0,0.0,0.0,0.0,0.0,0.0,0.0,0.0,0.0,0.0,1.9442,1.9228,1.896,1.8667,1.8302,1.7975,1.7767,1.7385,1.7219,1.7306,1.6807,1.6132,1.5284,1.4813,1.4565,1.4515,1.4515,1.4515,1.4515,1.4515,1.4327,1.404,1.3731,1.3368,1.3042,1.2775,1.2652,1.259,0.0,0.0,0.0,0.0,0.0,0.0,0.0,0.0,0.0,0.0,0.4166,0.4166,0.4107,0.4107,0.0,0.0,0.0,0.0,0.5226,0.0,0.0,0.3231,0.2888,0.2648,0.2494,0.2155,0.21,0.2305,0.2268,0.2534,0.3058,0.3626,0.4077,0.4357,0.436,0.4484,0.468,0.4556,0.4491,0.4491,0.4491,0.4491,0.4519,0.4632,0.4605,0.4536,0.4759,0.4734,0.4615,0.4945,0.4926,0.0,0.0,0.0,0.0,0.6232,0.6862,0.7563,0.8661,1.0753,1.283,0.0,1.5014,1.6319,0.0,0.0,1.7863,0.0,0.0,0.0,0.0,0.0,0.0,0.0,0.0,0.0,0.0,0.0,0.0,0.0,0.0,0.0,0.0,0.0,0.0,0.0,0.0,0.0,1.8833,1.9253,1.9356,1.896,1.841,1.8084,1.8057,1.7075,1.6841,1.7306,1.6807,1.6314,1.5787,1.5323,1.4872,1.4515,1.4515,1.4515,1.4515,1.4515,1.4476,1.4387,1.407,1.3731,1.339,1.3072,1.2805,1.259,0.0,0.0,0.0,0.0,0.0,0.0,0.0,0.0,0.0,0.0,0.0,0.4353,0.4298,0.427,0.0,0.0,0.0,0.0,0.5277,0.4263,0.0,0.0,0.2449,0.2093,0.1888,0.1356,0.1268,0.16,0.1773,0.217,0.2799,0.3763,0.4363,0.4615,0.4741,0.4815,0.4809,0.4657,0.4569,0.4491,0.4491,0.4542,0.461,0.4581,0.4601,0.4617,0.4657,0.466,0.4627,0.4729,0.4773,0.4848,0.4971,0.0,0.0,0.0,0.6184,0.7195,0.8691,1.0229,1.1697,0.0,1.4055,1.5145,1.6079,0.0,1.7049,0.0,0.0,0.0,0.0,0.0,0.0,0.0,0.0,0.0,0.0,0.0,0.0,0.0,0.0,0.0,0.0,0.0,0.0,0.0,0.0,1.9053,1.8876,1.8744,1.8586,1.8386,1.765,1.7263,1.7263,1.6502,1.6345,1.6852,1.6365,1.6045,1.5864,1.5137,1.4685,1.4515,1.4515,1.4515,1.4515,1.4515,1.4515,1.4476,1.4139,1.392,1.3731,1.3194,1.2928,1.2805,0.0,0.0,0.0,0.0,0.0,0.0,0.0,0.0,0.0,0.0,0.0,0.0,0.4491,0.0,0.0,0.0,0.0,0.0,0.4924,0.0,0.0,0.0,0.0,0.1605,0.1344,0.0682,0.0597,0.1063,0.1414,0.1987,0.2739,0.3909,0.4649,0.4947,0.504,0.5125,0.5177,0.4987,0.4962,0.5044,0.5096,0.5063,0.497,0.5,0.4962,0.4845,0.4688,0.4706,0.4757,0.0,0.0,0.0,0.0,0.0,0.0,0.0,0.0,0.6794,0.8324,0.0,1.0425,1.2102,1.3127,1.4099,0.0,0.0,0.0,0.0,0.0,0.0,0.0,0.0,0.0,0.0,0.0,0.0,0.0,0.0,0.0,0.0,0.0,0.0,0.0,0.0,0.0,0.0,0.0,1.8891,1.8815,1.8395,1.8119,1.8024,1.7168,1.6736,1.6736,1.6106,1.592,1.6138,1.5903,1.5766,1.5703,1.4998,1.4601,1.4515,1.4515,1.4515,1.4515,1.4515,1.4515,1.4485,1.4228,1.407,1.392,1.3346,1.3072,1.2958,0.0,0.0,0.0,0.0,0.0,0.0,0.0,0.0,0.0,0.0,0.0,0.0,0.4491,0.4491,0.4491,0.4491,0.0,0.0,0.0,0.0,0.0,0.0,0.0,0.0,0.0112,-0.019,-0.0081,0.0449,0.1218,0.208,0.3019,0.4142,0.4898,0.5252,0.5148,0.541,0.592,0.5656,0.5916,0.6497,0.6691,0.6355,0.5789,0.6227,0.5976,0.5336,0.5078,0.4966,0.0,0.0,0.0,0.0,0.0,0.4719,0.4714,0.0,0.0,0.0,0.6945,0.8268,0.0,1.1356,1.2635,1.3732,0.0,0.0,0.0,0.0,0.0,0.0,0.0,0.0,0.0,0.0,0.0,0.0,0.0,0.0,0.0,0.0,0.0,0.0,0.0,0.0,0.0,0.0,0.0,1.8634,1.8271,1.8691,1.876,1.8376,1.7521,1.7059,1.7059,1.6235,1.5593,1.5192,1.56,1.5585,1.5225,1.5205,1.4925,1.4515,1.4515,1.4515,1.4515,1.4515,1.4515,1.4515,1.4485,1.4297,1.395,1.3601,1.3277,1.2958,0.0,0.0,0.0,0.0,0.0,0.0,0.0,0.0,0.0,0.0,0.0,0.0,0.0,0.4242,0.4187,0.4187,0.4245,0.0,0.0,0.0,0.0,0.0,0.0,0.0,0.0,0.0,-0.0055,0.014,0.1216,0.1992,0.2518,0.3927,0.4672,0.4874,0.5266,0.5698,0.6135,0.6127,0.6482,0.7013,0.6748,0.6527,0.6328,0.5957,0.5708,0.5565,0.534,0.0,0.0,0.0,0.0,0.0,0.4581,0.4484,0.4403,0.4474,0.4756,0.5297,0.6365,0.0,0.0,1.0151,1.1355,1.2343,1.3295,0.0,0.0,0.0,0.0,0.0,0.0,0.0,0.0,0.0,0.0,0.0,0.0,0.0,0.0,0.0,0.0,0.0,0.0,0.0,0.0,0.0,0.0,0.0,1.8022,1.7986,1.7907,1.7744,1.6873,1.6136,1.5565,1.5424,1.5279,1.5105,1.5255,1.515,1.4797,1.4453,1.4092,1.3745,1.3992,1.4258,1.4515,1.4515,1.4515,1.4515,1.4515,1.4417,1.4297,1.3941,1.361,1.3307,0.0,0.0,0.0,0.0,0.0,0.0,0.0,0.0,0.0,0.4408,0.0,0.0,0.0,0.0,0.3996,0.3996,0.4036,0.4057,0.3993,0.3487,0.0,0.0,0.0,0.0,0.0,0.0219,0.0137,0.014,0.1285,0.2031,0.2404,0.3773,0.4502,0.4711,0.5165,0.5795,0.6549,0.6612,0.7152,0.7993,0.7692,0.7354,0.7036,0.6604,0.6226,0.5894,0.0,0.0,0.0,0.0,0.0,0.0,0.4706,0.4488,0.4266,0.4284,0.4478,0.4911,0.6094,0.0,0.0,0.0,0.0,1.1125,1.2341,0.0,0.0,0.0,0.0,0.0,0.0,0.0,0.0,0.0,0.0,0.0,0.0,0.0,0.0,0.0,0.0,0.0,0.0,0.0,0.0,0.0,0.0,0.0,1.7902,1.7686,1.7413,1.711,1.6411,1.5601,1.4708,1.4819,1.4864,1.4864,1.4744,1.4538,1.4324,1.3854,1.3506,1.3314,1.3736,1.4038,1.4313,1.4451,1.4515,1.4515,1.4515,1.4515,1.4455,1.413,1.3851,1.3662,0.0,0.0,0.0,0.0,0.0,0.0,0.0,0.0,0.42,0.42,0.0,0.0,0.0,0.0,0.0,0.3978,0.3854,0.3833,0.3965,0.3204,0.0,0.0,0.0,0.0,0.0421,0.042,0.0393,0.0393,0.1464,0.2236,0.2724,0.3722,0.4441,0.4881,0.4881,0.5755,0.7157,0.714,0.8011,0.9407,0.0,0.8929,0.7902,0.0,0.7652,0.0,0.6061,0.5939,0.0,0.5532,0.0,0.0,0.4984,0.473,0.4358,0.4179,0.4349,0.487,0.0,0.0,0.0,0.0,0.0,0.0,0.0,0.0,0.0,0.0,0.0,0.0,0.0,0.0,0.0,0.0,0.0,0.0,0.0,0.0,0.0,0.0,0.0,0.0,0.0,0.0,0.0,0.0,0.0,1.7916,1.7902,1.7902,1.7455,1.6536,1.6244,1.5666,1.472,1.4489,1.4396,1.4396,1.3975,1.3786,1.3781,1.3426,1.3268,1.3277,1.37,1.3874,1.3911,1.4332,1.4515,1.4515,1.4515,1.4515,1.4455,1.4139,1.401,1.395,0.0,0.0,0.0,0.0,0.0,0.4226,0.4284,0.4224,0.4202,0.0,0.0,0.0,0.4007,0.365,0.3508,0.3706,0.3582,0.3561,0.3621,0.3375,0.2856,0.2099,0.1764,0.1344,0.0785,0.0661,0.055,0.0393,0.1128,0.185,0.2576,0.3288,0.4038,0.4755,0.4755,0.5337,0.6371,0.6999,0.0,0.9401,0.9315,0.9122,0.0,0.0,0.0,0.0,0.0,0.666,0.6103,0.0,0.5674,0.5224,0.0,0.4628,0.4483,0.4462,0.464,0.5047,0.6119,0.0,0.0,0.0,0.0,0.0,0.0,0.0,0.0,0.0,0.0,0.0,0.0,0.0,0.0,0.0,0.0,0.0,0.0,0.0,0.0,0.0,0.0,0.0,0.0,0.0,0.0,0.0,1.8541,1.835,1.7916,1.7902,1.7563,1.682,1.6343,1.5732,1.4994,1.4605,1.4396,1.4396,1.3975,1.3659,1.335,1.3012,1.2717,1.2459,1.2863,1.3029,1.3111,1.4093,1.4515,1.4515,1.4515,1.4515,1.4476,1.4387,1.4198,1.401,0.0,0.0,0.0,0.0,0.0,0.3769,0.3927,0.3949,0.4011,0.0,0.0,0.0,0.357,0.3264,0.312,0.3253,0.3214,0.3173,0.3177,0.3037,0.2669,0.2015,0.1736,0.1401,0.0982,0.0857,0.0719,0.0617,0.1134,0.1796,0.2595,0.313,0.3786,0.4507,0.456,0.4994,0.5733,0.6379,0.0,0.0,0.9153,0.0,0.0,0.9005,0.849,0.0,0.0,0.0,0.6704,0.6379,0.6036,0.0,0.0,0.0,0.0,0.5052,0.5242,0.5667,0.6659,0.7107,0.0,0.0,0.0,0.0,0.0,1.0507,0.0,0.0,0.0,0.0,0.0,0.0,0.0,0.0,0.0,0.0,0.0,0.0,0.0,0.0,0.0,0.0,0.0,0.0,0.0,1.9206,1.8934,1.8527,1.7929,1.7902,1.7666,1.7128,1.645,1.5842,1.53,1.4697,1.4396,1.4396,1.3823,1.342,1.3194,1.2681,1.2323,1.2119,1.2523,1.2689,1.2762,1.3635,1.4102,1.4249,1.4249,1.4359,1.4515,1.4515,1.4387,1.4228,0.0,0.0,0.2331,0.2878,0.2999,0.3126,0.3534,0.3551,0.3707,0.0,0.3986,0.3586,0.3043,0.2973,0.297,0.2928,0.2867,0.2807,0.2675,0.2438,0.2203,0.1962,0.1542,0.1234,0.1094,0.0956,0.0901,0.0898,0.1257,0.1828,0.2597,0.3093,0.3585,0.4138,0.4301,0.4692,0.5254,0.5588,0.0,0.8393,0.8986,0.9316,0.0,0.0,0.9198,0.8517,0.7914,0.758,0.7353,0.6555,0.6237,0.0,0.0,0.0,0.0,0.0,0.6077,0.6556,0.7514,0.7662,0.7737,0.0,0.0,0.0,0.9426,0.9969,0.0,0.0,0.0,0.0,0.0,0.0,0.0,0.0,0.0,0.0,0.0,0.0,0.0,0.0,0.0,0.0,0.0,1.9867,1.9863,1.9795,1.9247,1.8636,1.8024,1.7997,1.7814,1.7413,1.6544,1.5952,1.5591,1.48,1.4396,1.4384,1.3576,1.3194,1.317,1.2437,1.2101,1.2119,1.2468,1.2625,1.2652,1.3029,1.3415,1.3818,1.3818,1.4047,1.4378,1.4433,1.4442,1.4451,0.0,0.173,0.2631,0.273,0.2875,0.3147,0.3539,0.3314,0.3443,0.4396,0.4741,0.4559,0.372,0.3524,0.3498,0.3593,0.2968,0.2582,0.255,0.238,0.2118,0.1686,0.143,0.1234,0.1094,0.0973,0.0887,0.0898,0.0973,0.1343,0.1984,0.2449,0.3021,0.3653,0.4063,0.4412,0.4801,0.5605,0.0,0.7383,0.8475,0.0,1.0142,1.0301,0.9939,0.9265,0.8902,0.8137,0.711,0.6088,0.5743,0.5692,0.0,0.0,0.0,0.6635,0.6929,0.7404,0.808,0.0,0.0,0.0,0.0,0.0,0.9477,0.9692,0.0,0.0,0.0,0.0,0.0,0.0,0.0,0.0,0.0,0.0,0.0,0.0,0.0,0.0,0.0,0.0,0.0,2.1012,2.087,2.0382,1.9836,1.9274,1.8649,1.8608,1.8253,1.744,1.6544,1.5952,1.5591,1.48,1.4396,1.4384,1.3576,1.3194,1.317,1.2437,1.2101,1.2101,1.2183,1.2211,1.222,1.2303,1.2772,1.3406,1.3406,1.3461,1.3571,1.3892,1.403,1.4057,0.0989,0.1758,0.2413,0.2447,0.2525,0.273,0.3089,0.299,0.322,0.4297,0.4786,0.4745,0.4115,0.4005,0.3969,0.4001,0.3285,0.2809,0.2749,0.2369,0.2019,0.1756,0.1472,0.1262,0.1206,0.1014,0.0899,0.0898,0.0943,0.1235,0.1817,0.2336,0.2968,0.3663,0.4168,0.4729,0.5335,0.0,0.6618,0.7751,0.8439,0.0,1.011,1.015,0.9993,0.973,0.9084,0.8048,0.6887,0.6437,0.6043,0.0,0.0,0.6529,0.7022,0.0,0.771,0.8132,0.8511,0.0,0.0,0.8725,0.0,0.0,0.0,0.0,0.9769,0.0,0.0,0.0,0.0,0.0,0.0,0.0,0.0,0.0,0.0,0.0,0.0,0.0,0.0,0.0,0.0,2.1253,2.1083,2.0535,2.0247,1.9863,1.9288,1.8948,1.8446,1.7668,1.6653,1.5874,1.5445,1.4754,1.4396,1.4384,1.3576,1.3194,1.317,1.2437,1.2101,1.2101,1.2101,1.2101,1.2101,1.2101,1.2349,1.2735,1.2928,1.3112,1.3314,1.3516,1.3589,1.3616,0.1371,0.178,0.2128,0.2179,0.2188,0.2321,0.2653,0.2753,0.3153,0.4154,0.4828,0.5041,0.4556,0.4539,0.4514,0.4475,0.3812,0.332,0.3076,0.2523,0.2115,0.1932,0.1584,0.136,0.1331,0.1082,0.0934,0.0898,0.0958,0.1222,0.1663,0.2395,0.3049,0.3688,0.4392,0.5228,0.6081,0.0,0.0,0.8504,0.0,0.9179,0.9863,0.9744,0.9826,0.9903,0.8921,0.7852,0.6934,0.6999,0.0,0.6197,0.6663,0.709,0.0,0.0,0.0,0.0,0.0,0.0,0.0,0.0,0.0,0.8804,0.0,0.0,0.0,0.9588,0.0,0.0,0.0,0.0,0.0,0.0,0.0,0.0,0.0,0.0,0.0,0.0,0.0,0.0,0.0,2.1086,2.0944,2.0684,2.0586,2.0315,1.989,1.9301,1.8658,1.8013,1.6804,1.5908,1.5355,1.4754,1.4443,1.4384,1.3576,1.3194,1.317,1.2437,1.2101,1.2101,1.2101,1.2101,1.2101,1.2101,1.2101,1.2128,1.2459,1.279,1.3066,1.3149,1.3176,1.3213,0.1376,0.1776,0.2179,0.2186,0.2188,0.2321,0.2653,0.2952,0.3416,0.4187,0.5721,0.6383,0.5376,0.5396,0.5439,0.5456,0.4675,0.0,0.3387,0.0,0.2687,0.2026,0.1788,0.1583,0.1408,0.124,0.1074,0.0898,0.0958,0.1032,0.1125,0.2316,0.2947,0.3161,0.4524,0.5579,0.6381,0.0,0.7672,0.0,0.9034,0.938,0.0,0.9699,0.9706,0.9635,0.8729,0.8132,0.7697,0.0,0.7023,0.7006,0.0,0.7705,0.8302,0.0,0.0,0.0,0.0,0.0,0.0,0.0,0.8804,0.0,0.0,0.0,0.9035,0.951,0.0,0.0,0.0,0.0,0.0,0.0,0.0,0.0,0.0,0.0,0.0,0.0,0.0,0.0,0.0,0.0,2.0725,2.1263,2.0803,2.0454,2.0423,1.9881,1.918,1.8275,1.708,1.6163,1.5568,1.4971,1.4593,1.4384,1.3576,1.3194,1.317,1.2437,1.2101,1.2101,1.2101,1.2101,1.2101,1.2101,1.2101,1.2101,1.2147,1.2202,1.2285,1.2634,1.2762,1.2817,0.1794,0.2013,0.2188,0.2188,0.2188,0.2388,0.2919,0.3903,0.4693,0.5002,0.608,0.6641,0.6214,0.0,0.0,0.0,0.0,0.4798,0.0,0.0,0.2785,0.2089,0.1815,0.1592,0.1415,0.1369,0.1269,0.1068,0.1251,0.1292,0.121,0.26,0.3316,0.3531,0.4843,0.6129,0.7331,0.0,0.8091,0.0,0.0,0.0,0.0,0.9365,0.9319,0.9131,0.8754,0.8329,0.7869,0.0,0.7444,0.0,0.0,0.0,0.0,0.0,0.0,0.0,0.0,0.0,0.0,0.0,0.0,0.0,0.8804,0.0,0.8857,0.0,0.0,0.0,0.0,0.0,0.0,0.0,0.0,0.0,0.0,0.0,0.0,0.0,0.0,0.0,0.0,0.0,0.0,0.0,0.0,2.0654,2.1006,2.0166,1.9275,1.8332,1.7137,1.603,1.5085,1.4834,1.4593,1.4384,1.3576,1.3194,1.317,1.2437,1.2101,1.2101,1.2101,1.2101,1.2101,1.2101,1.2101,1.2101,1.2101,1.2101,1.2119,1.2285,1.2349,1.2376,0.2062,0.2134,0.2188,0.2188,0.2354,0.2787,0.3682,0.4826,0.5662,0.5791,0.6387,0.0,0.6696,0.6759,0.0,0.0,0.6397,0.5706,0.0,0.0,0.3477,0.2736,0.2298,0.1987,0.179,0.16,0.1411,0.1267,0.1439,0.1479,0.0,0.0,0.3622,0.3772,0.5341,0.6768,0.8002,0.0,0.8705,0.9584,0.9746,0.9499,0.9051,0.9078,0.8964,0.8804,0.8804,0.8527,0.8174,0.8303,0.8024,0.0,0.8199,0.0,0.0,0.0,0.0,0.0,0.8864,0.0,0.0,0.0,0.0,0.0,0.0,0.0,0.0,0.0,0.0,0.0,0.0,0.0,0.0,0.0,0.0,0.0,0.0,0.0,0.0,0.0,0.0,0.0,0.0,0.0,0.0,0.0,0.0,0.0,2.1358,2.0219,1.9175,1.8399,1.7115,1.5964,1.4926,1.4926,1.472,1.435,1.3624,1.3218,1.3035,1.2387,1.2101,1.2101,1.2101,1.2101,1.2101,1.2224,1.22,1.2101,1.2224,1.22,1.2101,1.2101,1.2101,1.2101,0.2006,0.2103,0.2188,0.2188,0.2753,0.3649,0.511,0.5474,0.5795,0.6316,0.0,0.0,0.0,0.0,0.0,0.0,0.0,0.6655,0.5904,0.0,0.5117,0.4253,0.3487,0.2977,0.0,0.0,0.147,0.1385,0.1348,0.1418,0.0,0.0,0.3624,0.3605,0.6066,0.7471,0.8049,0.8763,0.9637,1.0526,1.0214,0.992,0.9593,0.0,0.8818,0.8804,0.8804,0.0,0.0,0.8791,0.8758,0.0,0.0,0.0,0.0,0.0,0.0,0.0,0.0,0.0,0.0,0.8804,0.0,0.0,0.0,0.0,0.8804,0.0,0.0,0.0,0.0,0.0,0.0,0.0,0.0,0.0,0.0,0.0,0.0,0.0,0.0,0.0,0.0,0.0,0.0,0.0,0.0,0.0,2.1331,1.9947,1.8966,1.8596,1.7106,1.6042,1.5491,1.5468,1.5051,1.4199,1.3787,1.3286,1.27,1.2298,1.2101,1.2101,1.2101,1.2101,1.2126,1.2529,1.2446,1.215,1.2529,1.2431,1.2101,1.2101,1.2101,1.2101,0.2064,0.2487,0.2852,0.2852,0.0,0.3739,0.5308,0.5991,0.639,0.0,0.0,0.0,0.0,0.6775,0.6903,0.0,0.0,0.6749,0.6122,0.5782,0.0,0.0,0.0,0.3294,0.0,0.0,0.0,0.0,0.0,0.0,0.0,0.0,0.3752,0.372,0.5657,0.7128,0.0,0.0,0.0,0.0,0.0,0.9773,0.9639,0.0,0.0,0.8804,0.8804,0.8804,0.0,0.8804,0.8804,0.8804,0.8804,0.8804,0.8804,0.8804,0.8804,0.0,0.0,0.0,0.8804,0.8804,0.0,0.0,0.0,0.0,0.0,0.0,0.0,0.0,0.0,0.0,0.0,0.0,0.0,0.0,0.0,0.0,0.0,0.0,0.0,0.0,0.0,0.0,0.0,0.0,0.0,0.0,0.0,2.026,1.93,1.8608,1.7458,1.6396,1.5513,1.5491,1.5051,1.4199,1.38,1.3286,1.2686,1.2274,1.2101,1.2101,1.2101,1.2101,1.2126,1.2529,1.2455,1.215,1.2529,1.2446,1.2101,1.2101,1.2101,1.2101,0.2417,0.2863,0.0,0.0,0.0,0.4406,0.5684,0.0,0.0,0.0,0.6591,0.0,0.6702,0.0,0.6814,0.0,0.7082,0.6861,0.6411,0.6251,0.0,0.5506,0.4574,0.0,0.0,0.0,0.0,0.0,0.0,0.199,0.0,0.0,0.0,0.0,0.0,0.7062,0.8174,0.0,0.9421,0.0,0.0,0.978,0.0,0.0,0.9031,0.8804,0.0,0.8804,0.8804,0.8804,0.8804,0.8804,0.8804,0.8804,0.8804,0.8804,0.8804,0.8804,0.8804,0.8804,0.0,0.8804,0.8804,0.0,0.8804,0.0,0.0,0.0,0.0,0.0,0.0,0.0,0.0,0.0,0.0,0.0,0.0,0.0,0.0,0.0,0.0,0.0,0.0,0.0,1.8367,1.9323,0.0,0.0,0.0,0.0,1.9225,1.8608,1.751,1.6501,1.5614,1.5603,1.5119,1.4199,1.3941,1.3406,1.2627,1.2357,1.2249,1.2249,1.22,1.2175,1.22,1.2691,1.2593,1.2224,1.2681,1.2593,1.2175,1.2126,1.2101,1.2101,0.3033,0.0,0.0,0.0,0.4517,0.0,0.0,0.0,0.6387,0.0,0.6387,0.6481,0.6678,0.6676,0.6753,0.6959,0.7098,0.7066,0.6741,0.7029,0.0,0.0,0.6199,0.5811,0.5589,0.0,0.0,0.0,0.0,0.0,0.0,0.0,0.0,0.0,0.5881,0.0,0.806,0.9045,0.9901,1.0546,1.0234,0.9933,0.9633,0.9317,0.0,0.8804,0.8804,0.8804,0.8804,0.8811,0.8811,0.8804,0.8804,0.8804,0.8804,0.8804,0.8831,0.8831,0.8831,0.8831,0.8831,0.8831,0.0,0.0,0.0,0.0,0.8857,0.0,0.0,0.0,0.0,0.0,0.0,0.0,0.0,0.0,0.0,0.0,0.0,0.0,0.0,0.0,0.0,1.7177,1.7711,1.8953,1.8729,0.0,0.0,0.0,1.8756,1.8575,1.7305,1.6379,1.5804,1.577,1.5244,1.4199,1.4176,1.3586,1.2505,1.2505,1.2505,1.2505,1.2382,1.2308,1.2348,1.2929,1.2842,1.2348,1.2963,1.2817,1.2274,1.215,1.2101,1.2101,0.3845,0.4537,0.517,0.0,0.5992,0.6262,0.0,0.0,0.0,0.0,0.6387,0.6436,0.6481,0.6485,0.6558,0.6767,0.6798,0.0,0.0,0.0,0.0,0.7273,0.6412,0.618,0.6761,0.5109,0.0,0.4188,0.0,0.0,0.2645,0.0,0.0,0.0,0.0,0.0,0.803,0.8543,0.9314,1.0221,1.0117,0.9784,0.0,0.0,0.9031,0.8804,0.8804,0.8804,0.8804,0.891,0.8883,0.8831,0.9035,0.9035,0.8962,0.9061,0.9113,0.9113,0.9113,0.9113,0.9113,0.9113,0.9113,0.9113,0.0,0.0,0.0,0.0,0.0,0.0,0.0,0.0,0.0,0.0,0.0,0.0,0.0,0.0,0.0,0.0,0.0,0.0,0.0,0.0,1.7064,1.6777,0.0,0.0,0.0,0.0,0.0,1.8191,1.7531,1.6751,1.5804,1.5446,1.4926,1.4199,1.38,1.3204,1.2505,1.2505,1.2505,1.2505,1.2455,1.2397,1.2348,1.2832,1.2735,1.2348,1.273,1.2584,1.215,1.2101,1.2101,1.2101,0.4723,0.0,0.0,0.6828,0.0,0.0,0.668,0.0,0.0,0.6395,0.6387,0.0,0.6387,0.6387,0.6457,0.6554,0.6643,0.0,0.6827,0.0,0.0,0.7159,0.6726,0.6647,0.6957,0.5803,0.0,0.4909,0.0,0.0,0.3313,0.0,0.0,0.0,0.0,0.6692,0.806,0.9013,0.9687,1.0077,0.998,0.0,0.0,0.9126,0.9025,0.891,0.8956,0.8929,0.891,0.9035,0.9035,0.9008,0.9159,0.9133,0.9113,0.9185,0.9211,0.9211,0.9211,0.9211,0.9263,0.9484,0.9536,0.9536,0.9536,0.9536,0.9484,0.0,0.0,0.0,0.0,0.0,0.0,0.0,0.0,0.0,0.0,0.0,0.0,0.0,0.0,0.0,0.0,0.0,0.0,0.0,0.0,0.0,0.0,0.0,0.0,1.7689,1.7484,1.6883,1.5804,1.5334,1.48,1.4235,1.3729,1.3214,1.2676,1.2676,1.2676,1.2676,1.2837,1.273,1.252,1.3122,1.3001,1.2505,1.2666,1.252,1.2175,1.2175,1.215,1.2101,0.561,0.0,0.0,0.0,0.0,0.0,0.0,0.6688,0.0,0.6407,0.0,0.6387,0.6387,0.6387,0.6387,0.6387,0.0,0.6603,0.6465,0.678,0.6894,0.6751,0.7041,0.7082,0.6773,0.6281,0.0,0.0,0.0,0.0,0.0,0.0,0.0,0.0,0.0,0.0,0.0,0.9918,1.0419,1.0094,0.984,0.9539,0.9212,0.9085,0.9042,0.9035,0.9185,0.9133,0.9035,0.9185,0.9211,0.9211,0.9237,0.9237,0.9237,0.9237,0.9263,0.9263,0.9263,0.9316,0.9465,0.9943,1.0123,1.0167,1.0167,1.009,0.9969,0.9692,0.9413,0.929,0.0,0.0,0.0,0.0,0.0,0.0,0.0,0.0,0.0,0.0,0.0,0.0,0.0,0.0,0.0,0.0,0.0,0.0,0.0,0.0,0.0,1.7138,1.7302,0.0,1.5715,0.0,1.4731,1.4212,1.3729,1.3296,1.2905,1.2905,1.2905,1.2929,1.3214,1.3094,1.2749,1.3409,1.33,1.27,1.27,1.2554,1.2323,1.2308,1.2224,1.2126,0.0,0.0,0.0,0.0,0.0,0.7286,0.6988,0.666,0.6457,0.6391,0.6387,0.6387,0.6387,0.6387,0.6387,0.6387,0.6448,0.0,0.0,0.0,0.0,0.6935,0.711,0.7159,0.7098,0.6905,0.6478,0.0,0.0,0.0,0.0,0.0,0.0,0.0,0.0,0.0,0.8986,1.0126,0.0,1.0114,1.006,0.9778,0.9363,0.9343,0.9274,0.9185,0.9309,0.929,0.9185,0.9309,0.9283,0.9237,0.9465,0.9465,0.9387,0.9484,0.9543,0.9543,0.9543,0.9855,1.0223,1.0318,1.0668,1.0998,1.0998,1.0643,1.0446,1.0821,1.0079,0.9517,0.9961,0.0,0.0,0.0,0.0,0.0,0.0,0.0,0.0,0.0,0.0,0.0,0.0,0.0,0.0,0.0,0.0,0.0,0.0,0.0,0.0,0.0,1.7159,0.0,0.0,0.0,1.4188,1.3705,1.3248,1.2968,1.2905,1.2905,1.2905,1.2905,1.2968,1.2871,1.2725,1.2968,1.292,1.27,1.27,1.2603,1.2446,1.2348,1.2283,1.2258,0.0,0.0,0.0,0.0,0.0,0.0,0.0,0.6759,0.0,0.6428,0.6387,0.6387,0.6387,0.6387,0.6387,0.6387,0.6387,0.6457,0.6546,0.6554,0.6591,0.6672,0.694,0.0,0.6952,0.7045,0.6857,0.6316,0.0,0.0,0.0,0.0,0.0,0.0,0.0,0.8444,0.0,0.0,0.0,1.0272,1.0272,0.9964,0.9563,0.9646,0.9504,0.9309,0.9465,0.9465,0.9413,0.9491,0.9465,0.9439,0.9562,0.9562,0.951,0.9588,0.9588,0.9666,0.9925,1.019,1.0549,1.1133,1.1494,1.1607,1.1354,1.109,1.0919,1.0902,1.0425,1.0058,1.0179,0.9718,0.0,0.0,0.0,0.0,0.0,0.0,0.0,0.0,0.0,0.0,0.0,0.0,0.0,0.0,0.0,0.0,0.0,0.0,0.0,0.0,0.0,0.0,0.0,0.0,0.0,1.3586,1.3113,1.2905,1.2905,1.2905,1.2905,1.2905,1.3162,1.3089,1.2808,1.2881,1.2856,1.2808,1.2808,1.2725,1.2603,1.2529,1.2455,1.2406,0.0,0.7391,0.0,0.0,0.7338,0.0,0.7016,0.6833,0.6619,0.644,0.6387,0.6387,0.6387,0.6387,0.6387,0.6387,0.6387,0.6387,0.6387,0.6387,0.6387,0.6387,0.6759,0.6869,0.6692,0.7041,0.7077,0.0,0.0,0.0,0.0,0.0,0.0,0.0,0.0,0.0,0.0,0.0,1.0552,1.0482,1.0413,1.0151,0.982,0.9887,0.9719,0.9465,0.9562,0.9588,0.9614,0.9744,0.9692,0.9588,0.9588,0.9666,0.9769,0.9769,0.9847,1.0028,1.0446,1.0651,1.0989,1.1877,1.211,1.2011,1.1662,1.1421,1.1212,1.0992,1.0928,1.0785,1.0324,1.0002,0.0,0.0,0.0,0.0,0.0,0.0,0.0,0.0,0.0,0.0,0.0,0.0,0.0,0.0,0.0,0.0,1.4314,1.532,0.0,0.0,0.0,1.5737,1.5409,0.0,1.3549,0.0,1.3089,1.2905,1.2905,1.2905,1.2905,1.2929,1.3296,1.3248,1.2905,1.2905,1.2905,1.2905,1.2905,1.2832,1.2735,1.27,1.2627,1.2578,0.0,0.0,0.0,0.0,0.0,0.0,0.0,0.6841,0.6627,0.644,0.6387,0.6387,0.6387,0.6387,0.6387,0.6387,0.6387,0.6387,0.6387,0.6387,0.6387,0.6387,0.6611,0.6708,0.671,0.7082,0.7157,0.0,0.0,0.0,0.0,0.0,0.0,0.0,0.0,0.0,0.0,1.051,1.0667,1.0739,1.0428,1.0269,1.0222,0.9993,0.9765,0.9588,0.9588,0.9588,0.9666,1.0164,1.001,0.9588,0.9588,0.9925,1.0326,1.0326,1.0676,1.1049,1.1099,1.151,1.1977,1.2076,1.2139,1.2182,1.2144,1.1474,1.1071,1.1885,1.2005,1.1649,1.0566,1.0753,1.1049,0.0,0.0,0.0,0.0,0.0,0.0,0.0,0.0,0.0,0.0,0.0,0.0,0.0,0.0,0.0,1.4281,1.532,1.5694,1.5234,0.0,1.5234,1.3826,1.3655,0.0,1.2978,1.2929,1.2905,1.2905,1.2905,1.2905,1.2905,1.2954,1.2954,1.2905,1.2905,1.2905,1.2905,1.2905,1.2881,1.2856,1.2735,1.27,1.2749,0.0,0.0,0.0,0.0,0.0,0.0,0.0,0.6767,0.6619,0.644,0.6387,0.6387,0.6387,0.6387,0.6387,0.6387,0.6387,0.6449,0.6576,0.6581,0.6613,0.6683,0.6895,0.7043,0.7193,0.7449,0.7541,0.0,0.0,0.0,0.0,0.0,0.0,0.0,0.0,1.0374,1.0636,1.0696,1.087,1.1076,1.095,1.0719,1.0487,1.0356,1.0013,0.9588,0.9588,0.9588,0.9692,1.0216,1.0267,1.0138,1.0464,1.0719,1.088,1.088,1.1023,1.1276,1.1635,1.1918,1.2175,1.2505,1.2599,1.2549,1.2262,1.1718,1.1382,1.1765,1.1752,1.1637,1.145,1.1032,1.0829,0.0,0.0,0.0,0.0,0.0,0.0,0.0,0.0,0.0,0.0,0.0,0.0,0.0,0.0,0.0,0.0,1.4288,0.0,1.5086,0.0,1.4379,1.4073,1.3476,1.3089,1.2905,1.2905,1.2905,1.2905,1.2905,1.2905,1.2905,1.2905,1.2905,1.2905,1.2905,1.2905,1.2905,1.2905,1.2905,1.2881,1.2832,1.2832,1.2871,0.7484,0.0,0.7443,0.0,0.7216,0.7062,0.681,0.6672,0.6554,0.6432,0.6387,0.6387,0.6387,0.6449,0.6482,0.6482,0.6708,0.6933,0.7064,0.7256,0.7419,0.7521,0.766,0.0,0.793,0.8205,0.8312,0.825,0.8775,0.0,0.0,0.0,0.0,0.0,1.0642,1.0902,1.0926,1.0902,1.1052,1.1296,1.1203,1.0985,1.074,1.0521,1.0155,0.9746,0.9807,0.9821,0.9958,1.0651,1.0905,1.0939,1.1124,1.1309,1.146,1.146,1.1585,1.1785,1.2224,1.2348,1.2431,1.2808,1.2807,1.2578,1.2139,1.1689,1.1389,1.1389,1.1525,1.1705,1.1871,1.149,1.1209,1.1435,0.0,0.0,0.0,0.0,0.0,0.0,1.3603,1.3462,1.335,0.0,0.0,0.0,0.0,0.0,0.0,0.0,0.0,0.0,0.0,0.0,0.0,1.3238,1.2905,1.2905,1.2905,1.2905,1.2905,1.2905,1.2905,1.2905,1.2905,1.2905,1.2905,1.2905,1.2905,1.2905,1.2905,1.2905,1.2905,1.2905,1.3002,1.3128,0.7484,0.7484,0.7484,0.748,0.7229,0.6992,0.6988,0.6647,0.6387,0.6387,0.6387,0.6387,0.6387,0.6576,0.6708,0.6708,0.7479,0.7994,0.7994,0.8603,0.8956,0.0,0.0,0.8962,0.8967,0.9383,0.9493,0.9288,0.0,0.0,0.9308,0.0,1.0465,1.1264,1.1153,1.1185,1.1279,1.1153,1.1185,1.1274,1.0929,1.092,1.1026,1.0353,1.0104,1.0107,1.0314,1.0403,1.0549,1.1694,1.2076,1.1977,1.1385,1.161,1.2101,1.2101,1.2455,1.2881,1.2881,1.2881,1.2881,1.2905,1.2559,1.2096,1.1692,1.1252,1.0918,1.0918,1.1599,1.2041,1.1518,1.2196,1.27,1.2175,0.0,0.0,0.0,0.0,0.0,0.0,1.244,1.2342,1.2866,0.0,0.0,0.0,0.0,0.0,0.0,0.0,0.0,1.3631,1.3621,0.0,1.2915,1.2905,1.2905,1.2905,1.2905,1.2905,1.2905,1.2905,1.2905,1.2905,1.2905,1.2905,1.2905,1.2905,1.2905,1.2905,1.2905,1.2905,1.2905,1.2905,1.3176,1.3634,0.7484,0.7484,0.7447,0.733,0.7212,0.7058,0.6814,0.7082,0.7288,0.7274,0.7614,0.7995,0.8473,0.7828,0.7451,0.0,0.8248,0.8731,0.0,0.9084,0.925,0.9352,0.9352,0.9403,0.9542,0.9657,0.9874,1.0188,0.0,0.0,0.0,1.1111,1.1178,1.1303,1.1272,1.1272,1.1303,1.124,1.1341,1.149,1.1381,1.1244,1.1078,1.0872,1.0492,1.0164,1.0588,1.0593,1.0582,1.1719,1.2101,1.2126,1.2298,1.2505,1.2652,1.2652,1.2783,1.2905,1.2905,1.2905,1.2905,1.2905,1.2798,1.2637,1.2524,1.1907,1.1467,1.1726,1.1787,1.1908,1.2344,1.2385,1.2298,1.219,1.2116,0.0,0.0,0.0,0.0,0.0,0.0,1.3124,0.0,1.3275,0.0,0.0,0.0,0.0,0.0,0.0,0.0,0.0,1.3113,0.0,1.2905,1.2905,1.2905,1.2905,1.2905,1.2905,1.2905,1.2905,1.2905,1.2905,1.2905,1.2905,1.2905,1.2905,1.2905,1.2905,1.2905,1.3089,1.3392,1.3392,1.3658,1.4095,0.7484,0.7484,0.7447,0.7342,0.7488,0.7556,0.725,0.7751,0.8124,0.809,0.835,0.8798,0.9369,0.8988,0.0,0.863,0.9206,0.9602,0.9735,1.0015,1.0212,1.0281,1.0281,1.0366,1.0471,0.0,0.0,1.0987,1.1276,1.1617,1.1996,1.1745,1.1529,1.1397,1.1397,1.1397,1.1397,1.1397,1.1498,1.1591,1.1591,1.1467,1.1276,1.1151,1.0885,1.0644,1.1048,1.1125,1.1183,1.2101,1.2406,1.2455,1.2774,1.2905,1.2905,1.2905,1.2905,1.2905,1.2905,1.2905,1.2905,1.2905,1.2905,1.2842,1.2676,1.2103,1.1663,1.1924,1.1895,1.2005,1.2539,1.2522,1.2421,1.252,1.2314,1.224,1.2486,0.0,0.0,0.0,0.0,0.0,0.0,1.3659,0.0,0.0,0.0,0.0,0.0,0.0,0.0,1.2905,1.2905,0.0,1.2905,1.2905,1.2905,1.2905,1.2905,1.2905,1.2905,1.2905,1.2905,1.2905,1.2905,1.2905,1.2905,1.2905,1.3002,1.3152,1.3152,1.3454,1.386,1.386,1.4165,1.4605,0.7599,0.7599,0.0,0.0,0.8038,0.0,0.8103,0.8595,0.897,0.8802,0.8844,0.9049,0.9434,1.0028,1.0226,0.9901,0.0,0.0,0.0,1.1216,1.1599,1.1628,1.1628,1.1635,1.1657,1.1657,1.1657,1.1657,1.1657,1.1765,1.1996,1.1745,1.1591,1.1591,1.1591,1.1591,1.1591,1.1591,1.1622,1.1654,1.1654,1.1685,1.171,1.1405,1.1363,1.1547,1.1718,1.1964,1.2212,1.2744,1.2905,1.2905,1.2905,1.2905,1.2905,1.2905,1.2905,1.2905,1.2905,1.2905,1.2905,1.2905,1.2905,1.2798,1.2373,1.1946,1.1655,1.1707,1.1985,1.2236,1.2266,1.2631,1.2954,1.3099,1.2632,1.2461,1.3051,0.0,0.0,0.0,0.0,0.0,0.0,1.3912,1.3856,0.0,0.0,0.0,0.0,0.0,1.2905,1.2905,1.2905,1.2905,1.2905,1.2905,1.2929,1.2954,1.2929,1.2929,1.3002,1.2968,1.2978,1.3002,1.3002,1.3002,1.3002,1.3002,1.3248,1.3644,1.3644,1.3941,1.4351,1.4351,1.4697,1.5153,0.0,0.0,0.8437,0.8437,0.8379,0.8466,0.8851,0.9604,1.0015,0.9733,1.0374,1.0966,1.1323,1.1185,1.1164,1.1439,1.1386,1.1341,1.1341,1.1498,1.1701,1.1911,1.1926,1.2036,1.2292,1.2292,1.2292,1.2292,1.2292,1.2171,1.1996,1.1745,1.1591,1.1591,1.1591,1.1591,1.1591,1.1591,1.1856,1.2305,1.2305,1.2589,1.3039,1.2956,1.281,1.2635,1.2803,1.2706,1.2582,1.2806,1.2905,1.2905,1.2905,1.2905,1.2905,1.2905,1.2905,1.2905,1.2905,1.2905,1.2905,1.2905,1.2905,1.29,1.2898,1.2463,1.2204,1.2719,1.2563,1.249,1.2888,1.3052,1.318,1.331,1.3132,1.305,1.3286,1.3146,0.0,0.0,1.3515,1.3776,1.3887,1.3897,1.3882,0.0,0.0,0.0,0.0,1.2954,1.2905,1.2905,1.2905,1.2905,1.2905,1.2905,1.3089,1.343,1.3065,1.3272,1.3965,1.3597,1.3634,1.3954,1.3954,1.3954,1.3954,1.3954,1.4025,1.4142,1.4142,1.4444,1.4915,1.4915,1.5221,1.5637,0.8775,0.8703,0.8813,0.9188,0.9425,0.9673,0.9976,1.0748,1.117,1.0847,1.1305,1.1686,1.1799,1.16,1.159,1.1974,1.1743,1.1591,1.1591,1.1591,1.1738,1.1989,1.2003,1.2156,1.2477,1.2485,1.2485,1.2485,1.2485,1.2324,1.1996,1.186,1.1731,1.1591,1.1591,1.1591,1.1622,1.1888,1.2182,1.2543,1.2826,1.3169,1.3511,1.3511,1.3449,1.3354,1.3249,1.3145,1.3045,1.2944,1.2905,1.2905,1.2905,1.2905,1.2905,1.2905,1.2905,1.2905,1.2905,1.2905,1.2905,1.2905,1.2954,1.3002,1.3085,1.2877,1.2758,1.312,1.2979,1.2866,1.3144,1.3194,1.3242,1.3386,1.3338,1.3314,1.3396,1.3386,0.0,1.329,1.379,1.4111,1.4103,1.4103,1.4086,1.4003,0.0,0.0,1.3109,1.2978,1.2905,1.2905,1.2905,1.2905,1.2905,1.3113,1.3344,1.3597,1.3573,1.3823,1.4305,1.4048,1.4071,1.4305,1.4305,1.4305,1.4305,1.4305,1.4444,1.4686,1.4686,1.496,1.5424,1.5424,1.5592,1.5792,0.9079,0.9079,0.9263,0.997,1.0659,1.1126,1.1188,1.1799,1.22,1.1893,1.193,1.1935,1.1743,1.1738,1.1816,1.2054,1.186,1.1716,1.1665,1.1665,1.1772,1.2062,1.2076,1.2251,1.2623,1.2631,1.2643,1.2592,1.2592,1.2368,1.2003,1.2003,1.1867,1.1591,1.1591,1.1654,1.1771,1.2274,1.2634,1.2848,1.3411,1.3713,1.3773,1.3773,1.3897,1.3986,1.359,1.3552,1.3623,1.3135,1.3003,1.2993,1.2925,1.2905,1.2905,1.2905,1.2905,1.2905,1.2905,1.2905,1.2929,1.2929,1.3027,1.3123,1.3148,1.3166,1.3208,1.3266,1.3242,1.3242,1.3266,1.3266,1.329,1.3409,1.3515,1.3563,1.3563,0.0,1.3776,1.3671,1.4152,1.449,1.443,1.4471,1.4419,1.4257,1.3769,1.3433,0.0,1.3234,1.3152,1.3176,1.3065,1.3041,1.3113,1.3501,1.3752,1.3823,1.4142,1.4374,1.4536,1.4444,1.4467,1.4536,1.4536,1.4536,1.4536,1.4536,1.4789,1.5221,1.5221,1.5446,1.5792,1.5792,1.5792,1.5792,1.0844,1.0738,1.0775,1.0881,1.0961,1.1236,1.1913,1.2409,1.2598,1.2267,1.2557,1.2696,1.2375,1.2372,1.2394,1.2404,1.2368,1.2255,1.1945,1.193,1.2069,1.2397,1.2412,1.2696,1.3331,1.3345,1.3206,1.2928,1.2928,1.2621,1.2003,1.2003,1.1867,1.1591,1.1591,1.1888,1.2358,1.2451,1.3152,1.4192,1.4282,1.4647,1.5118,1.5118,1.5129,1.511,1.4694,1.4556,1.4463,1.3682,1.3408,1.335,1.3023,1.2905,1.2905,1.2905,1.2905,1.2905,1.2905,1.2978,1.3061,1.3061,1.3128,1.3204,1.3324,1.3266,1.3266,1.3491,1.3443,1.3396,1.3515,1.3539,1.3539,1.3573,1.3952,1.4233,1.4233,0.0,1.4846,1.4846,1.4926,1.5006,1.4982,1.4994,1.4983,1.4936,1.4742,1.4628,1.4605,1.4387,1.4306,1.4433,1.3823,1.3681,1.4071,1.4165,1.4421,1.4846,1.449,1.4743,1.5558,1.5153,1.5187,1.5558,1.5558,1.5558,1.5558,1.5558,1.5625,1.5681,1.5681,1.5748,1.5792,1.5792,1.5792,1.5792,1.1186,1.0999,1.1105,1.1781,1.1898,1.2104,1.2654,1.2913,1.2942,1.2722,1.2879,1.2819,1.228,1.2383,1.2485,1.2485,1.2687,1.2682,1.2536,1.2361,1.2412,1.2733,1.2782,1.3009,1.3484,1.3492,1.3418,1.3272,1.3272,1.3023,1.2521,1.2346,1.2312,1.2365,1.2181,1.2428,1.307,1.3425,1.3944,1.4529,1.4854,1.5147,1.541,1.541,1.541,1.5352,1.4932,1.4813,1.4687,1.4036,1.3821,1.3743,1.335,1.3273,1.3273,1.2974,1.2905,1.2929,1.2988,1.3051,1.3099,1.3152,1.3228,1.3314,1.3396,1.342,1.3443,1.3563,1.3539,1.3515,1.3597,1.4082,1.4358,1.4089,1.4687,0.0,0.0,1.4971,1.5108,1.5108,1.5322,1.539,1.5131,1.5322,1.5367,1.5131,1.4983,1.4903,1.4903,1.4698,1.4744,1.5073,1.4422,1.4201,1.4399,1.4686,1.4926,1.5108,1.5255,1.5479,1.5792,1.5647,1.5669,1.5792,1.5792,1.5792,1.5792,1.5792,1.5792,1.5792,1.5792,1.5792,1.5792,1.5792,1.5792,1.5792,1.1521,1.1329,1.1477,1.2489,1.2753,1.2907,1.3163,1.3236,1.3223,1.312,1.3126,1.2928,1.2397,1.2565,1.2711,1.2711,1.298,1.3126,1.3126,1.2884,1.2826,1.3001,1.3082,1.3243,1.3492,1.3492,1.3492,1.3492,1.3674,1.353,1.3128,1.3036,1.3018,1.3099,1.2847,1.31,1.3782,1.4291,1.4588,1.4765,1.5206,1.541,1.541,1.541,1.541,1.5371,1.5049,1.4932,1.4863,1.4434,1.426,1.4182,1.3763,1.3635,1.3574,1.3199,1.3023,1.2992,1.3089,1.3138,1.3186,1.3218,1.3348,1.3443,1.3443,1.3515,1.3597,1.3597,1.3692,1.3763,1.3621,1.4454,1.5025,1.4485,0.0,0.0,0.0,1.5367,1.5434,1.5434,1.5734,1.5822,1.5457,1.5756,1.5822,1.5457,1.5333,1.5266,1.5266,1.5164,1.5254,1.5611,1.5152,1.4903,1.4903,1.5299,1.5457,1.5356,1.5925,1.6078,1.5903,1.6001,1.5979,1.5881,1.5859,1.5859,1.5836,1.5814,1.5792,1.5792,1.5836,1.5836,1.5792,1.5836,1.5836,1.5792,1.2716,1.2599,1.2562,1.282,1.3046,1.3156,1.32,1.3346,1.3484,1.3462,1.3455,1.344,1.3397,1.3411,1.3426,1.3426,1.3448,1.3455,1.3455,1.344,1.3301,1.3023,1.3294,1.347,1.3492,1.3492,1.3492,1.3492,1.4186,1.4155,1.3475,1.4148,1.4079,1.3454,1.3428,1.3812,1.444,1.4469,1.4824,1.5352,1.5381,1.541,1.541,1.541,1.541,1.541,1.5381,1.5371,1.5303,1.4883,1.4736,1.4658,1.4202,1.3792,1.3531,1.3629,1.3412,1.317,1.3194,1.3266,1.3372,1.3386,1.3491,1.3597,1.3597,1.3586,1.3597,1.3597,1.3999,1.4186,1.3681,1.4441,1.4948,1.4477,0.0,0.0,1.5744,1.6107,1.6414,1.6414,1.6423,1.6423,1.6414,1.6423,1.6423,1.6414,1.6392,1.638,1.638,1.6315,1.6284,1.6328,1.6154,1.6078,1.6078,1.61,1.6134,1.6134,1.6178,1.62,1.6178,1.6178,1.6178,1.6156,1.6044,1.5988,1.5979,1.5859,1.5792,1.5814,1.5935,1.5913,1.5814,1.5935,1.5913,1.5792,1.2863,1.2893,1.2966,1.3083,1.3236,1.3382,1.3382,1.3455,1.3492,1.3492,1.3492,1.3418,1.3214,1.3375,1.3411,1.3214,1.3375,1.3492,1.3492,1.3492,1.344,1.3316,1.3433,1.3492,1.3492,1.3492,1.3702,1.4186,1.4466,1.4566,1.4496,1.457,1.451,1.436,1.418,1.446,1.5059,1.5059,1.5177,1.541,1.541,1.541,1.541,1.541,1.541,1.541,1.541,1.541,1.5391,1.5225,1.5176,1.5098,1.4761,1.4597,1.4493,1.4175,1.3728,1.3338,1.342,1.342,1.342,1.3491,1.3563,1.3597,1.3597,1.3858,1.4093,1.4093,1.4489,1.4766,1.457,1.5337,1.5855,1.5357,0.0,1.6668,1.63,1.638,1.65,1.65,1.65,1.65,1.65,1.65,1.65,1.65,1.65,1.65,1.65,1.6479,1.6457,1.6457,1.6414,1.6383,1.6318,1.6318,1.6275,1.62,1.634,1.6318,1.62,1.6297,1.6275,1.62,1.6144,1.6122,1.6122,1.5979,1.5957,1.6035,1.6022,1.6022,1.6035,1.61,1.61,1.6035,1.3104,1.3119,1.3156,1.3273,1.3419,1.3492,1.3492,1.3492,1.3492,1.3492,1.3492,1.3411,1.3184,1.336,1.3404,1.3177,1.3367,1.3601,1.384,1.384,1.3739,1.3492,1.3492,1.3492,1.3492,1.3739,1.4086,1.4601,1.51,1.5374,1.5451,1.5331,1.526,1.5263,1.4943,1.5001,1.542,1.5557,1.5615,1.5625,1.5771,1.5742,1.5615,1.5615,1.5527,1.541,1.541,1.5449,1.5478,1.5478,1.5507,1.5516,1.5344,1.5267,1.5171,1.462,1.4091,1.3707,1.3779,1.3772,1.3705,1.3621,1.3597,1.3597,1.3597,1.4022,1.4396,1.4396,1.4892,1.5277,1.5131,1.5898,1.6402,1.5871,1.6549,1.6974,1.655,1.65,1.65,1.65,1.65,1.65,1.65,1.65,1.65,1.65,1.65,1.65,1.65,1.65,1.65,1.65,1.65,1.6479,1.6436,1.6436,1.6392,1.6297,1.6436,1.6436,1.6297,1.6392,1.6371,1.6297,1.6275,1.6253,1.6253,1.611,1.6122,1.62,1.6154,1.6154,1.6222,1.6253,1.6231,1.62,1.3528,1.3346,1.3273,1.3455,1.3492,1.3492,1.3492,1.3492,1.3492,1.3492,1.3492,1.3492,1.3492,1.3492,1.3492,1.3499,1.3499,1.3804,1.4565,1.4601,1.4294,1.3564,1.3499,1.3492,1.3492,1.4222,1.4601,1.4601,1.6158,1.6652,1.6215,1.6561,1.6494,1.6075,1.5605,1.542,1.5449,1.5909,1.6095,1.6134,1.6553,1.6465,1.6095,1.6095,1.5791,1.542,1.541,1.5546,1.5701,1.5701,1.5798,1.5885,1.5885,1.5677,1.5321,1.491,1.4563,1.4314,1.4304,1.4361,1.4291,1.3729,1.361,1.361,1.361,1.4022,1.4396,1.4396,1.5153,1.5656,1.5198,1.5879,1.6358,1.5876,1.6207,1.65,1.65,1.65,1.65,1.65,1.65,1.65,1.65,1.65,1.65,1.65,1.65,1.65,1.65,1.65,1.65,1.65,1.65,1.65,1.65,1.65,1.65,1.65,1.65,1.65,1.65,1.65,1.65,1.65,1.6436,1.6392,1.6392,1.6253,1.62,1.6222,1.6362,1.6318,1.6222,1.6362,1.6318,1.62,1.3857,1.3616,1.3419,1.3492,1.3492,1.3492,1.3492,1.3492,1.3492,1.3492,1.3492,1.3492,1.3492,1.3492,1.3702,1.4222,1.4258,1.4573,1.5313,1.5384,1.5286,1.5037,1.4057,1.3811,1.4482,1.4573,1.5163,1.6332,1.6828,1.7103,1.716,1.7282,1.6926,1.6246,1.5988,1.5899,1.5909,1.6036,1.625,1.6543,1.6648,1.6619,1.6494,1.6212,1.6007,1.586,1.5527,1.5546,1.5701,1.5701,1.5798,1.5914,1.6009,1.5846,1.5594,1.5471,1.5126,1.4718,1.4397,1.4535,1.4716,1.4262,1.4408,1.464,1.464,1.504,1.5366,1.5366,1.5866,1.625,1.6098,1.6315,1.6445,1.6315,1.6402,1.65,1.65,1.65,1.65,1.65,1.65,1.65,1.65,1.65,1.65,1.65,1.65,1.65,1.65,1.65,1.65,1.65,1.65,1.65,1.65,1.65,1.65,1.65,1.65,1.65,1.65,1.65,1.65,1.65,1.6479,1.6479,1.6457,1.6371,1.6383,1.6414,1.6392,1.6392,1.6414,1.6457,1.6436,1.6414,1.421,1.3916,1.3689,1.3689,1.3689,1.3645,1.3514,1.3601,1.3638,1.3514,1.3492,1.3601,1.3912,1.3949,1.4222,1.4966,1.5376,1.5666,1.5807,1.6158,1.6228,1.5948,1.5081,1.4832,1.5313,1.5587,1.6184,1.7207,1.7491,1.775,1.7939,1.7783,1.7334,1.6636,1.6595,1.6435,1.6205,1.655,1.6792,1.7002,1.7233,1.7226,1.7029,1.6681,1.6435,1.6247,1.5762,1.572,1.5865,1.5865,1.5961,1.6116,1.6192,1.612,1.5998,1.5998,1.5628,1.5226,1.4927,1.5232,1.5534,1.5085,1.5028,1.5108,1.5108,1.5467,1.581,1.581,1.6173,1.65,1.65,1.65,1.65,1.65,1.65,1.65,1.65,1.65,1.65,1.65,1.65,1.65,1.65,1.65,1.6586,1.6765,1.6913,1.6942,1.6799,1.6778,1.6693,1.6522,1.65,1.65,1.65,1.65,1.65,1.65,1.65,1.65,1.65,1.65,1.65,1.65,1.65,1.65,1.65,1.6457,1.6457,1.65,1.6457,1.6457,1.65,1.65,1.65,1.65,1.4555,1.4291,1.4026,1.4026,1.4026,1.3916,1.3587,1.3792,1.3902,1.3645,1.3623,1.3921,1.4693,1.4756,1.5043,1.5797,1.6682,1.6932,1.6254,1.7026,1.7198,1.6515,1.6515,1.6437,1.6245,1.7017,1.7438,1.755,1.8192,1.8516,1.8506,1.815,1.7726,1.7292,1.7335,1.702,1.6475,1.73,1.7579,1.7537,1.8087,1.8065,1.7658,1.7358,1.703,1.6658,1.6135,1.6051,1.6165,1.6134,1.6249,1.6413,1.6413,1.6413,1.6413,1.6413,1.6112,1.5758,1.5725,1.6179,1.654,1.6004,1.5596,1.5302,1.5233,1.5557,1.5854,1.5854,1.6194,1.65,1.65,1.65,1.65,1.65,1.65,1.65,1.65,1.65,1.6522,1.6565,1.6565,1.6565,1.6565,1.6565,1.6744,1.722,1.7598,1.7618,1.722,1.7199,1.6976,1.6522,1.65,1.65,1.65,1.65,1.65,1.65,1.65,1.65,1.65,1.65,1.65,1.65,1.65,1.65,1.65,1.65,1.65,1.65,1.65,1.65,1.65,1.65,1.65,1.65,1.4798,1.4582,1.4401,1.4401,1.4401,1.4291,1.3923,1.3938,1.4082,1.4341,1.4689,1.5193,1.5928,1.6001,1.6299,1.7036,1.7691,1.7988,1.7808,1.809,1.8192,1.8022,1.8158,1.825,1.8172,1.7687,1.7755,1.8496,1.8674,1.8741,1.8741,1.8639,1.8397,1.798,1.7821,1.7696,1.7562,1.7753,1.8011,1.8285,1.8408,1.8388,1.8248,1.7896,1.7686,1.7536,1.6719,1.6526,1.6623,1.6401,1.6374,1.6413,1.6413,1.6413,1.6413,1.6413,1.634,1.6182,1.5796,1.6414,1.7025,1.6553,1.6668,1.6784,1.6305,1.6272,1.6358,1.6358,1.6423,1.65,1.65,1.65,1.65,1.65,1.65,1.65,1.65,1.65,1.665,1.701,1.7052,1.7052,1.7052,1.7052,1.7227,1.7639,1.776,1.7618,1.722,1.7199,1.6976,1.6522,1.65,1.65,1.65,1.65,1.65,1.65,1.65,1.65,1.65,1.65,1.65,1.65,1.65,1.65,1.65,1.65,1.65,1.65,1.65,1.65,1.65,1.65,1.65,1.65,1.5179,1.4911,1.4692,1.4692,1.4692,1.4739,1.4813,1.4965,1.521,1.5696,1.5976,1.6399,1.7184,1.7322,1.7651,1.8263,1.8646,1.8771,1.8549,1.8707,1.8774,1.8774,1.8875,1.8942,1.8942,1.8452,1.8442,1.8942,1.8942,1.8942,1.8942,1.8942,1.8695,1.8306,1.8424,1.8285,1.8015,1.8228,1.8395,1.8516,1.8617,1.864,1.86,1.8265,1.8156,1.8002,1.7114,1.6724,1.6597,1.6456,1.6413,1.6413,1.6413,1.6413,1.6413,1.6413,1.6413,1.6366,1.6107,1.6839,1.7571,1.7073,1.7545,1.7953,1.7124,1.6722,1.65,1.65,1.65,1.65,1.65,1.65,1.65,1.65,1.65,1.6586,1.6799,1.6829,1.6997,1.7434,1.7496,1.7496,1.7496,1.77,1.7908,1.8108,1.8305,1.8147,1.7516,1.7496,1.7186,1.6522,1.65,1.65,1.65,1.65,1.65,1.65,1.65,1.65,1.65,1.65,1.65,1.65,1.65,1.65,1.65,1.65,1.65,1.65,1.65,1.65,1.65,1.65,1.65,1.65,1.5936,1.5606,1.5418,1.5418,1.5418,1.557,1.5939,1.6249,1.6626,1.7145,1.7296,1.765,1.8462,1.8722,1.8962,1.9194,1.9387,1.9298,1.8838,1.9008,1.9108,1.9108,1.9108,1.9108,1.9108,1.9108,1.9108,1.9108,1.9108,1.9108,1.9108,1.9108,1.8901,1.8548,1.8932,1.8792,1.83,1.881,1.8875,1.864,1.8908,1.8931,1.8834,1.8608,1.8528,1.8424,1.7533,1.6984,1.6612,1.6612,1.656,1.6498,1.6498,1.6475,1.6413,1.6413,1.6413,1.6404,1.6394,1.7147,1.7859,1.7505,1.8153,1.8635,1.7842,1.7137,1.6638,1.6638,1.6563,1.65,1.65,1.65,1.65,1.65,1.6565,1.6757,1.7157,1.7261,1.7455,1.7868,1.7908,1.7908,1.7908,1.8266,1.85,1.85,1.8803,1.8649,1.7828,1.774,1.7318,1.6522,1.65,1.65,1.65,1.65,1.65,1.65,1.65,1.65,1.65,1.65,1.65,1.65,1.65,1.65,1.6522,1.6586,1.6565,1.6522,1.6586,1.6565,1.65,1.65,1.65,1.65,1.7666,1.76,1.7559,1.7559,1.7559,1.7513,1.7289,1.732,1.7488,1.796,1.8498,1.9089,1.9852,2.0143,2.0019,1.9259,1.9387,1.9298,1.8838,1.9008,1.9108,1.9108,1.9108,1.9108,1.9108,1.9108,1.9108,1.9108,1.9108,1.9108,1.9108,1.9108,1.9077,1.9015,1.9077,1.9034,1.9015,1.965,1.9584,1.9075,1.9682,1.9584,1.9065,1.9036,1.9015,1.8942,1.8414,1.7916,1.7513,1.7513,1.7254,1.6924,1.6924,1.6684,1.6413,1.6413,1.6413,1.6392,1.6415,1.6856,1.7418,1.7894,1.8109,1.8322,1.8709,1.8003,1.7285,1.7285,1.6861,1.65,1.65,1.65,1.65,1.65,1.6842,1.7136,1.7199,1.7496,1.7888,1.8344,1.8403,1.8403,1.8403,1.8461,1.85,1.85,1.8553,1.8344,1.7828,1.7475,1.7052,1.6522,1.65,1.65,1.65,1.65,1.65,1.65,1.65,1.65,1.65,1.65,1.65,1.65,1.65,1.65,1.6543,1.6947,1.6863,1.6543,1.6947,1.6863,1.65,1.65,1.65,1.65,1.8078,1.7997,1.7997,1.7997,1.7997,1.8098,1.8456,1.8508,1.8806,1.9612,1.9947,2.0283,2.0703,2.0951,2.0876,2.0324,2.0345,2.0108,1.9407,1.9424,1.9378,1.9119,1.9108,1.9108,1.9108,1.9108,1.9108,1.9108,1.9108,1.9108,1.9108,1.9108,1.9108,1.9108,1.9108,1.9108,1.9108,1.9429,1.9363,1.9131,1.9419,1.9206,1.8745,1.9005,1.8942,1.8683,1.8486,1.8102,1.7699,1.7699,1.7564,1.7358,1.7089,1.6882,1.6694,1.6485,1.6413,1.6413,1.6413,1.7039,1.7754,1.8038,1.8586,1.9129,1.9383,1.8857,1.8216,1.7903,1.74,1.6999,1.6999,1.6735,1.65,1.65,1.6892,1.7282,1.7496,1.7908,1.8344,1.8784,1.8841,1.8841,1.8841,1.863,1.85,1.85,1.8266,1.7908,1.7496,1.7303,1.6976,1.6522,1.65,1.65,1.65,1.65,1.65,1.65,1.6778,1.6744,1.65,1.65,1.65,1.65,1.65,1.665,1.6905,1.7115,1.7073,1.6905,1.7115,1.6905,1.65,1.65,1.65,1.65]}]]